ftp/pub/palmer/observations_modified/2017/November/AR171129_BASE.txt
Download
Sample DateTime Unit Id WS Avg 2min WD Avg 2min WGS 10min WGD 10min Air Temp Rel Humidity Dew Point Pyranometer Quantum Air Pressure Snow Level Rainfall PW Current Visibility CBase 1 CBase 2 CBase 3 Vert Vis
2017/11/29 00:00:01 BASE 13.91 42 16.67 43 4.3 76 0.5 13 39 967.8 NA 0.0000 9999 7020 0 0 0
2017/11/29 00:01:01 BASE 14.67 43 17.34 38 4.3 76 0.5 13 38 967.7 NA 0.0000 9999 6960 0 0 0
2017/11/29 00:02:00 BASE 15.72 43 17.34 38 4.3 76 0.4 12 37 967.7 NA 0.0000 9999 6990 0 0 0
2017/11/29 00:03:00 BASE 15.61 43 17.34 38 4.3 76 0.4 12 36 967.6 NA 0.0000 9999 7020 0 0 0
2017/11/29 00:04:01 BASE 15.10 42 17.34 38 4.3 75 0.3 11 34 967.6 NA 0.0000 9999 980 0 0 0
2017/11/29 00:05:01 BASE 15.01 44 17.34 38 4.3 75 0.3 11 32 967.5 NA 0.0000 9999 850 0 0 0
2017/11/29 00:06:01 BASE 15.09 47 17.59 47 4.3 75 0.3 10 32 967.4 NA 0.0000 9999 0 0 0 2990
2017/11/29 00:07:01 BASE 15.96 44 18.11 37 4.4 75 0.3 10 31 967.2 NA 0.0000 9999 0 0 0 3310
2017/11/29 00:08:01 BASE 16.13 41 18.11 37 4.4 75 0.4 10 31 967.3 NA 0.0000 9999 920 0 0 0
2017/11/29 00:09:01 BASE 16.39 43 18.37 49 4.5 75 0.4 10 31 967.2 NA 0.0000 9999 0 0 0 3870
2017/11/29 00:10:01 BASE 17.18 43 18.78 42 4.6 75 0.5 10 31 967.1 NA 0.0000 9999 0 0 0 3380
2017/11/29 00:11:01 BASE 17.11 43 20.53 48 4.6 75 0.5 11 32 967.0 NA 0.0000 9999 0 0 0 3940
2017/11/29 00:12:01 BASE 18.57 42 21.97 41 4.6 75 0.5 11 32 966.7 NA 0.0000 9000 390 0 0 0
2017/11/29 00:13:01 BASE 19.76 41 21.97 41 4.5 75 0.4 11 32 966.6 NA 0.0000 -RA 9000 620 0 0 0
2017/11/29 00:14:01 BASE 19.15 41 21.97 41 4.4 75 0.3 11 32 966.6 NA 0.0000 -RA 9999 460 0 0 0
2017/11/29 00:15:01 BASE 19.03 41 21.97 41 4.3 75 0.3 11 32 966.6 NA 0.0000 -RA 9999 460 0 0 0
2017/11/29 00:16:01 BASE 18.47 40 21.97 41 4.3 75 0.2 10 31 966.6 NA 0.0000 -RA 9999 460 0 0 0
2017/11/29 00:17:01 BASE 18.61 42 21.97 41 4.2 75 0.2 10 30 966.4 NA 0.0000 -RA 9000 390 0 0 0
2017/11/29 00:18:01 BASE 19.73 41 22.17 42 4.2 76 0.2 10 29 966.4 NA 0.0000 -RA 9000 390 0 0 0
2017/11/29 00:19:01 BASE 19.14 39 22.17 42 4.1 76 0.3 10 28 966.4 NA 0.0000 -RA 8000 390 0 0 0
2017/11/29 00:20:01 BASE 18.13 40 22.17 42 4.1 76 0.3 9 28 966.4 NA 0.0000 -RA 9000 360 0 0 0
2017/11/29 00:21:01 BASE 18.80 41 22.17 42 4.1 76 0.3 9 28 966.3 NA 0.0000 -RA 9000 0 0 0 3080
2017/11/29 00:22:01 BASE 19.01 40 22.17 42 4.1 77 0.3 9 28 966.3 NA 0.0000 -RA 9000 390 0 0 0
2017/11/29 00:23:01 BASE 19.57 41 22.17 44 4.0 77 0.3 9 28 966.2 NA 0.0000 -RA 9000 390 0 0 0
2017/11/29 00:24:01 BASE 20.60 43 22.17 44 4.0 77 0.4 9 27 966.2 NA 0.0000 -RA 9999 390 0 0 0
2017/11/29 00:25:01 BASE 20.57 42 22.64 45 3.9 77 0.4 9 27 966.2 NA 0.0000 -RA 9000 0 0 0 6890
2017/11/29 00:26:01 BASE 20.63 41 22.64 45 3.9 78 0.4 9 27 966.1 NA 0.0000 -RA 7000 390 0 0 0
2017/11/29 00:27:01 BASE 20.43 41 22.64 45 3.9 78 0.4 9 26 966.1 NA 0.0000 -RA 7000 390 0 0 0
2017/11/29 00:28:01 BASE 19.74 39 22.64 45 4.0 78 0.5 9 26 966.1 NA 0.0000 -RA 9000 390 0 0 0
2017/11/29 00:29:01 BASE 19.52 39 22.64 45 4.0 78 0.5 9 26 966.0 NA 0.0000 -RA 8000 390 0 0 0
2017/11/29 00:30:01 BASE 20.13 42 22.64 45 3.9 79 0.5 9 26 965.8 NA 0.0000 -RA 7000 390 0 0 0
2017/11/29 00:31:01 BASE 21.40 43 23.51 43 3.9 79 0.6 9 23 965.6 NA 0.0000 -RA 6000 0 0 0 5510
2017/11/29 00:32:01 BASE 21.27 42 23.51 43 3.9 79 0.6 8 23 965.7 NA 0.0000 -RA 6000 430 0 0 0
2017/11/29 00:33:01 BASE 20.17 43 23.51 43 3.9 79 0.5 8 21 965.7 NA 0.0000 -RA 7000 360 0 0 0
2017/11/29 00:34:01 BASE 20.98 45 23.51 43 3.8 79 0.5 8 21 965.6 NA 0.0000 -RA 6000 390 0 0 0
2017/11/29 00:35:01 BASE 21.72 44 23.56 42 3.9 79 0.5 7 20 965.7 NA 0.0000 -RA 5000 360 0 0 0
2017/11/29 00:36:01 BASE 20.79 43 23.56 42 3.9 79 0.5 7 20 965.9 NA 0.0000 -RA 4500 360 0 0 0
2017/11/29 00:37:01 BASE 19.62 45 23.56 42 3.8 79 0.6 7 20 965.9 NA 0.0000 -RA 4700 390 0 0 0
2017/11/29 00:38:01 BASE 19.36 46 23.56 42 3.8 80 0.6 7 20 965.9 NA 0.0000 -RA 5000 390 0 0 0
2017/11/29 00:39:01 BASE 19.25 46 23.56 42 3.8 80 0.7 7 19 966.0 NA 0.0000 -RA 5000 390 0 0 0
2017/11/29 00:40:01 BASE 19.03 44 23.56 42 3.8 80 0.8 7 19 966.0 NA 0.0000 -RA 5000 360 0 0 0
2017/11/29 00:41:01 BASE 19.58 44 23.56 42 3.8 81 0.8 7 18 965.9 NA 0.0000 -RA 6000 390 0 0 0
2017/11/29 00:42:01 BASE 20.07 46 23.56 42 3.8 81 0.9 6 18 965.8 NA 0.0000 -RA 7000 430 0 0 0
2017/11/29 00:43:01 BASE 19.90 48 23.56 42 3.9 81 1.0 6 17 965.8 NA 0.0000 -RA 5000 360 0 0 0
2017/11/29 00:44:01 BASE 19.49 48 23.56 42 3.9 81 1.0 6 17 965.9 NA 0.0000 -RA 5000 360 0 0 0
2017/11/29 00:45:01 BASE 18.26 46 22.64 40 4.0 81 1.1 6 15 966.0 NA 0.0000 -RA 4600 360 0 0 0
2017/11/29 00:46:01 BASE 18.57 45 22.48 49 4.0 81 1.1 6 16 965.8 NA 0.0000 -RA 4600 330 0 0 0
2017/11/29 00:47:01 BASE 18.38 46 22.48 49 4.0 81 1.1 6 16 966.0 NA 0.0000 -RA 4100 360 0 0 0
2017/11/29 00:48:01 BASE 18.05 47 22.48 49 3.9 82 1.1 6 17 965.8 NA 0.0000 -RA 4700 360 0 0 0
2017/11/29 00:49:01 BASE 18.88 48 22.48 49 3.9 82 1.2 6 17 965.9 NA 0.0000 -RA 4800 360 0 0 0
2017/11/29 00:50:01 BASE 18.70 47 22.48 49 3.9 83 1.2 6 17 965.9 NA 0.0000 -RA 4300 330 0 0 0
2017/11/29 00:51:01 BASE 19.01 46 22.07 43 3.9 83 1.3 7 18 965.8 NA 0.0000 -RA 4000 330 0 0 0
2017/11/29 00:52:01 BASE 19.44 46 22.48 44 3.9 83 1.3 7 18 965.8 NA 0.0000 -RA 3500 360 0 0 0
2017/11/29 00:53:01 BASE 19.34 45 22.48 44 3.9 83 1.3 7 16 965.8 NA 0.0000 -RA 3000 330 0 0 0
2017/11/29 00:54:01 BASE 18.77 42 22.48 44 3.9 83 1.3 7 18 965.7 NA 0.0000 -RA 2700 330 0 0 0
2017/11/29 00:55:01 BASE 18.58 41 22.48 44 3.8 83 1.3 6 17 965.7 NA 0.0000 -RA 2400 300 0 0 0
2017/11/29 00:56:01 BASE 18.47 39 22.48 44 3.8 83 1.2 6 17 965.7 NA 0.0000 -RA 2600 330 0 0 0
2017/11/29 00:57:01 BASE 18.51 38 22.48 44 3.7 84 1.2 6 16 965.7 NA 0.0000 -RA 2500 300 0 0 0
2017/11/29 00:58:01 BASE 18.54 39 22.48 44 3.6 84 1.2 6 15 965.7 NA 0.0000 -RA 2700 300 0 0 0
2017/11/29 00:59:01 BASE 18.88 40 22.58 42 3.6 85 1.3 5 15 965.6 NA 0.2540 -RA 2800 330 0 0 0
2017/11/29 01:00:01 BASE 19.84 42 22.58 42 3.6 85 1.3 5 13 965.5 NA 0.0000 -RA 2900 330 0 0 0
2017/11/29 01:01:01 BASE 19.93 42 22.58 42 3.5 85 1.3 5 12 965.6 NA 0.0000 -RA 2500 330 0 0 0
2017/11/29 01:02:01 BASE 19.93 42 22.58 42 3.5 85 1.3 4 11 965.5 NA 0.0000 -RA 3000 330 0 0 0
2017/11/29 01:03:01 BASE 19.43 44 22.58 42 3.6 85 1.4 4 11 965.6 NA 0.0000 -RA BR 2400 330 0 0 0
2017/11/29 01:04:01 BASE 19.33 44 22.58 42 3.6 85 1.4 4 7 965.6 NA 0.0000 -RA BR 2100 300 0 0 0
2017/11/29 01:05:01 BASE 19.88 43 22.58 42 3.6 86 1.4 4 10 965.5 NA 0.0000 -RA BR 1700 300 0 0 0
2017/11/29 01:06:01 BASE 20.11 43 22.58 51 3.6 86 1.4 4 10 965.5 NA 0.0000 -RA BR 1700 330 0 0 0
2017/11/29 01:07:01 BASE 18.96 44 22.58 51 3.6 86 1.4 3 10 965.6 NA 0.0000 -RA BR 2000 300 0 0 0
2017/11/29 01:08:01 BASE 18.51 44 22.58 51 3.5 86 1.4 3 10 965.5 NA 0.0000 -RA BR 2600 330 0 0 0
2017/11/29 01:09:01 BASE 19.42 44 22.58 51 3.5 86 1.3 3 9 965.5 NA 0.0000 -RA BR 2300 330 0 0 0
2017/11/29 01:10:01 BASE 19.49 43 22.58 51 3.4 86 1.3 3 8 965.5 NA 0.0000 -RA BR 2100 330 0 0 0
2017/11/29 01:11:01 BASE 19.45 42 22.58 51 3.4 86 1.2 3 8 965.5 NA 0.0000 -RA BR 1900 300 0 0 0
2017/11/29 01:12:01 BASE 19.82 43 23.87 43 3.3 86 1.2 3 3 965.4 NA 0.0000 -RA BR 1900 300 0 0 0
2017/11/29 01:13:01 BASE 19.99 42 23.87 43 3.3 86 1.2 3 0 965.4 NA 0.0000 -RA BR 1700 300 0 0 0
2017/11/29 01:14:01 BASE 19.50 40 23.87 43 3.2 86 1.2 3 1 965.3 NA 0.2540 -RA BR 1800 300 0 0 0
2017/11/29 01:15:01 BASE 20.09 40 23.87 43 3.2 87 1.2 3 1 965.2 NA 0.0000 -RA BR 2200 300 0 0 0
2017/11/29 01:16:01 BASE 21.46 42 23.87 43 3.2 87 1.2 3 1 965.1 NA 0.0000 -RA BR 1700 330 0 0 0
2017/11/29 01:17:01 BASE 21.54 43 24.08 47 3.2 87 1.2 3 5 965.2 NA 0.0000 -RA BR 1400 300 0 0 0
2017/11/29 01:18:01 BASE 21.03 43 24.08 47 3.1 87 1.2 3 9 965.1 NA 0.0000 -RA BR 1700 330 0 0 0
2017/11/29 01:19:01 BASE 20.99 41 24.08 47 3.1 87 1.2 3 8 965.2 NA 0.0000 -RA BR 1800 360 0 0 0
2017/11/29 01:20:01 BASE 20.85 40 24.08 47 3.0 87 1.1 3 8 965.1 NA 0.0000 -RA BR 1400 0 0 0 2820
2017/11/29 01:21:01 BASE 20.92 39 24.08 47 3.0 88 1.1 3 7 965.1 NA 0.2540 -RA BR 1900 330 0 0 0
2017/11/29 01:22:01 BASE 20.95 39 24.08 47 2.9 88 1.1 2 7 965.1 NA 0.0000 -RA BR 1700 0 0 0 3580
2017/11/29 01:23:01 BASE 21.10 39 24.08 47 2.9 88 1.1 2 7 965.2 NA 0.0000 -RA BR 2400 0 0 0 2790
2017/11/29 01:24:01 BASE 20.81 38 24.08 47 2.8 88 1.1 2 7 965.1 NA 0.0000 -RA BR 2100 360 0 0 0
2017/11/29 01:25:01 BASE 20.94 36 25.57 37 2.8 89 1.1 2 7 965.0 NA 0.0000 -RA BR 2100 0 0 0 2590
2017/11/29 01:26:01 BASE 21.74 35 25.57 37 2.8 89 1.1 2 7 964.9 NA 0.0000 -RA BR 2100 360 0 0 0
2017/11/29 01:27:01 BASE 22.20 33 26.19 31 2.7 89 1.1 2 6 964.7 NA 0.0000 -RA BR 2000 0 0 0 2460
2017/11/29 01:28:01 BASE 21.93 32 26.19 31 2.7 89 1.1 2 6 964.8 NA 0.2540 -RA BR 1800 0 0 0 2360
2017/11/29 01:29:01 BASE 21.88 33 26.19 31 2.6 90 1.1 2 6 964.7 NA 0.0000 -RA BR 1900 330 0 0 0
2017/11/29 01:30:01 BASE 22.29 33 26.19 31 2.6 90 1.1 2 6 964.8 NA 0.0000 -SN BR 2100 360 0 0 0
2017/11/29 01:31:01 BASE 21.87 33 26.19 31 2.6 90 1.2 2 6 964.8 NA 0.0000 -SN BR 2000 0 0 0 2200
2017/11/29 01:32:01 BASE 21.79 35 26.19 31 2.5 91 1.2 2 5 964.8 NA 0.0000 -SN BR 1500 0 0 0 2490
2017/11/29 01:33:01 BASE 21.97 35 26.19 31 2.5 91 1.2 2 5 964.9 NA 0.0000 -SN BR 2300 0 0 0 2990
2017/11/29 01:34:01 BASE 21.47 34 26.19 31 2.5 91 1.2 2 5 965.0 NA 0.2540 -SN BR 2700 0 0 0 2950
2017/11/29 01:35:01 BASE 20.69 34 26.19 31 2.5 91 1.2 2 5 965.1 NA 0.0000 -SN BR 3200 0 0 0 2400
2017/11/29 01:36:01 BASE 21.39 34 26.19 31 2.5 91 1.2 2 0 965.0 NA 0.0000 -SN BR 3000 0 0 0 2230
2017/11/29 01:37:01 BASE 20.77 34 25.00 36 2.6 91 1.3 2 5 965.3 NA 0.0000 -SN BR 2800 0 0 0 2300
2017/11/29 01:38:01 BASE 19.16 37 24.69 32 2.6 92 1.4 2 5 965.4 NA 0.0000 -SN BR 5000 0 0 0 2030
2017/11/29 01:39:01 BASE 18.90 37 24.59 33 2.6 92 1.4 1 5 965.5 NA 0.0000 -SN BR 5000 0 0 0 2200
2017/11/29 01:40:01 BASE 18.87 35 24.59 33 2.7 92 1.5 1 4 965.5 NA 0.0000 -SN BR 7000 0 0 0 2130
2017/11/29 01:41:01 BASE 18.92 35 24.23 32 2.7 92 1.5 1 4 965.6 NA 0.0000 -SN BR 7000 0 0 0 2100
2017/11/29 01:42:01 BASE 18.52 36 24.23 32 2.7 92 1.5 1 4 965.5 NA 0.0000 -SN BR 9000 0 0 0 2460
2017/11/29 01:43:01 BASE 18.72 38 24.23 32 2.7 91 1.4 1 4 965.4 NA 0.0000 -SN BR 9999 0 0 0 2690
2017/11/29 01:44:01 BASE 18.69 39 24.23 32 2.7 91 1.4 1 4 965.4 NA 0.2540 -SN BR 7000 0 0 0 2660
2017/11/29 01:45:01 BASE 18.47 39 24.23 32 2.7 91 1.4 1 4 965.4 NA 0.0000 -SN BR 6000 0 0 0 2590
2017/11/29 01:46:01 BASE 18.95 40 21.81 33 2.7 91 1.4 1 4 965.5 NA 0.0000 -SN BR 5000 0 0 0 2920
2017/11/29 01:47:01 BASE 18.99 40 21.81 33 2.7 91 1.4 1 4 965.5 NA 0.0000 -SN BR 6000 0 0 0 3020
2017/11/29 01:48:01 BASE 18.36 39 21.40 47 2.7 91 1.4 1 4 965.5 NA 0.0000 -SN BR 8000 0 0 0 2430
2017/11/29 01:49:01 BASE 17.93 39 21.40 47 2.7 92 1.4 1 3 965.6 NA 0.0000 -SN BR 6000 0 0 0 2070
2017/11/29 01:50:01 BASE 17.44 39 21.40 47 2.7 92 1.5 1 3 965.6 NA 0.0000 -SN BR 7000 0 0 0 1970
2017/11/29 01:51:01 BASE 17.80 40 21.40 47 2.7 92 1.5 1 2 965.4 NA 0.0000 -SN BR 9999 0 0 0 2030
2017/11/29 01:52:01 BASE 18.42 38 21.40 47 2.7 92 1.6 1 3 965.4 NA 0.0000 -SN BR 9999 0 0 0 2130
2017/11/29 01:53:01 BASE 17.91 38 21.04 41 2.8 92 1.6 1 2 965.4 NA 0.0000 -SN BR 9999 0 0 0 1970
2017/11/29 01:54:01 BASE 17.60 40 21.04 41 2.8 92 1.6 1 2 965.3 NA 0.2540 -SN BR 9999 0 0 0 2690
2017/11/29 01:55:01 BASE 17.51 39 21.04 41 2.8 92 1.6 1 2 965.3 NA 0.0000 -SN BR 9999 0 0 0 4820
2017/11/29 01:56:01 BASE 17.81 40 20.94 41 2.8 92 1.7 1 2 965.2 NA 0.0000 -SN BR 9999 0 0 0 4430
2017/11/29 01:57:01 BASE 19.02 42 21.40 43 2.8 92 1.7 1 2 965.0 NA 0.0000 -SN BR 9999 0 0 0 4530
2017/11/29 01:58:01 BASE 19.60 40 21.40 43 2.8 92 1.7 1 2 965.0 NA 0.0000 -SN BR 9999 0 0 0 4400
2017/11/29 01:59:01 BASE 19.88 39 22.43 44 2.9 92 1.7 1 2 965.0 NA 0.0000 -SN BR 9000 0 0 0 4890
2017/11/29 02:00:01 BASE 19.38 40 22.43 44 2.9 92 1.7 1 2 965.0 NA 0.0000 -SN 8000 0 0 0 3540
2017/11/29 02:01:01 BASE 18.27 40 22.43 44 2.9 92 1.7 1 2 965.0 NA 0.0000 9999 0 0 0 4590
2017/11/29 02:02:01 BASE 18.71 42 22.43 44 2.9 92 1.7 1 2 964.8 NA 0.0000 BR 9000 0 0 0 4430
2017/11/29 02:03:01 BASE 19.36 43 22.43 44 2.9 92 1.7 1 2 964.7 NA 0.0000 BR 9000 0 0 0 6990
2017/11/29 02:04:01 BASE 18.55 44 22.43 44 2.9 92 1.7 1 2 964.8 NA 0.0000 BR 9000 0 0 0 1970
2017/11/29 02:05:01 BASE 18.49 44 22.43 44 2.9 92 1.7 1 2 964.8 NA 0.0000 BR 9000 0 0 0 2620
2017/11/29 02:06:01 BASE 18.79 45 22.43 44 2.9 92 1.7 0 2 964.8 NA 0.0000 BR 9000 0 0 0 2990
2017/11/29 02:07:01 BASE 18.93 42 22.43 44 2.9 92 1.7 0 2 964.7 NA 0.0000 BR 8000 0 0 0 2760
2017/11/29 02:08:01 BASE 18.93 40 22.43 44 2.9 92 1.7 0 2 964.7 NA 0.0000 BR 8000 0 0 0 1710
2017/11/29 02:09:01 BASE 19.45 41 22.38 36 2.9 92 1.7 0 1 964.5 NA 0.0000 BR 8000 0 0 0 2200
2017/11/29 02:10:01 BASE 20.13 41 22.38 36 2.9 92 1.7 0 2 964.5 NA 0.0000 BR 7000 0 0 0 1280
2017/11/29 02:11:01 BASE 19.28 40 22.38 36 2.9 92 1.7 0 2 964.6 NA 0.0000 BR 8000 0 0 0 1570
2017/11/29 02:12:01 BASE 19.26 39 22.38 36 2.9 92 1.8 0 2 964.5 NA 0.0000 BR 8000 0 0 0 1840
2017/11/29 02:13:01 BASE 19.03 39 22.38 36 3.0 92 1.8 0 2 964.6 NA 0.0000 BR 8000 0 0 0 1350
2017/11/29 02:14:01 BASE 18.39 39 22.38 36 3.0 92 1.8 0 1 964.5 NA 0.0000 BR 8000 0 0 0 6860
2017/11/29 02:15:01 BASE 18.96 41 22.38 36 3.0 92 1.9 0 1 964.4 NA 0.0000 BR 8000 0 0 0 6990
2017/11/29 02:16:01 BASE 19.13 45 22.38 36 3.1 92 1.9 0 1 964.3 NA 0.0000 BR 7000 0 0 0 6820
2017/11/29 02:17:01 BASE 18.82 43 22.38 36 3.1 92 1.9 0 1 964.3 NA 0.0000 BR 7000 0 0 0 6660
2017/11/29 02:18:01 BASE 18.64 42 22.38 36 3.1 92 1.9 0 1 964.4 NA 0.0000 BR 7000 0 0 0 6630
2017/11/29 02:19:01 BASE 19.03 42 21.81 47 3.1 92 1.9 0 1 964.3 NA 0.0000 BR 7000 0 0 0 6330
2017/11/29 02:20:01 BASE 19.33 43 21.81 47 3.1 92 1.9 0 1 964.5 NA 0.0000 BR 7000 0 0 0 6230
2017/11/29 02:21:01 BASE 17.91 45 21.81 47 3.1 92 1.9 0 1 964.5 NA 0.0000 -SN BR 9000 0 0 0 6040
2017/11/29 02:22:01 BASE 17.71 44 21.81 47 3.1 91 1.8 0 1 964.4 NA 0.0000 -SN BR 9999 0 0 0 5940
2017/11/29 02:23:01 BASE 18.19 44 21.81 47 3.1 91 1.8 0 1 964.3 NA 0.0000 -SN BR 9999 0 0 0 6140
2017/11/29 02:24:01 BASE 18.53 45 21.81 47 3.1 91 1.8 0 1 964.3 NA 0.0000 -SN BR 9999 0 0 0 6200
2017/11/29 02:25:01 BASE 18.93 44 21.25 40 3.1 91 1.8 0 1 964.3 NA 0.0000 -SN BR 9999 0 0 0 6040
2017/11/29 02:26:01 BASE 18.23 46 21.25 40 3.1 91 1.8 0 1 964.4 NA 0.0000 -SN BR 9999 0 0 0 4460
2017/11/29 02:27:01 BASE 17.35 47 21.25 40 3.1 91 1.8 0 1 964.3 NA 0.0000 -SN BR 9999 0 0 0 6300
2017/11/29 02:28:01 BASE 17.01 46 21.14 46 3.2 91 1.8 0 1 964.4 NA 0.0000 -SN 9999 0 0 0 6200
2017/11/29 02:29:01 BASE 16.28 47 21.14 46 3.2 91 1.9 0 1 964.5 NA 0.0000 -SN 9999 0 0 0 6140
2017/11/29 02:30:00 BASE 15.64 48 21.14 46 3.2 91 1.9 0 1 964.5 NA 0.0000 -SN 9999 0 0 0 6100
2017/11/29 02:31:00 BASE 15.56 47 21.14 46 3.2 91 1.9 0 1 964.4 NA 0.2540 -SN 9999 0 0 0 6070
2017/11/29 02:32:00 BASE 15.20 46 21.14 46 3.2 91 1.9 0 1 964.4 NA 0.0000 -SN 9999 0 0 0 6100
2017/11/29 02:33:00 BASE 14.85 50 21.14 46 3.2 91 1.9 0 1 964.3 NA 0.0000 9999 0 0 0 6230
2017/11/29 02:34:00 BASE 15.69 50 21.14 46 3.2 91 1.9 0 1 964.3 NA 0.0000 9999 0 0 0 6370
2017/11/29 02:35:00 BASE 16.35 48 19.91 39 3.2 91 1.9 0 1 964.4 NA 0.0000 9999 0 0 0 6300
2017/11/29 02:36:00 BASE 15.77 48 19.91 39 3.2 91 1.9 0 1 964.4 NA 0.0000 9999 0 0 0 2300
2017/11/29 02:37:00 BASE 15.34 51 19.91 39 3.2 91 1.9 0 1 964.5 NA 0.0000 9999 0 0 0 2590
2017/11/29 02:38:00 BASE 14.64 53 18.11 48 3.2 91 1.9 0 1 964.5 NA 0.0000 9999 0 0 0 3350
2017/11/29 02:39:00 BASE 14.92 52 18.11 48 3.2 91 1.9 0 1 964.5 NA 0.0000 9999 0 0 0 3150
2017/11/29 02:40:00 BASE 15.01 49 18.11 48 3.2 91 1.9 0 1 964.5 NA 0.0000 9999 0 0 0 3540
2017/11/29 02:41:00 BASE 14.64 49 18.11 48 3.2 91 1.9 0 1 964.4 NA 0.0000 9999 0 0 0 2820
2017/11/29 02:42:00 BASE 13.88 53 18.11 48 3.2 91 1.9 0 1 964.4 NA 0.0000 9999 0 0 0 2430
2017/11/29 02:43:00 BASE 13.08 55 18.11 48 3.2 92 1.9 0 1 964.5 NA 0.0000 9999 0 0 0 2560
2017/11/29 02:44:00 BASE 13.97 54 17.65 47 3.1 92 1.9 0 1 964.4 NA 0.0000 9999 5540 0 0 0
2017/11/29 02:45:00 BASE 14.06 55 17.65 47 3.1 92 1.9 0 1 964.4 NA 0.0000 9999 5450 0 0 0
2017/11/29 02:46:00 BASE 13.57 55 17.65 47 3.1 92 1.9 0 1 964.4 NA 0.0000 9999 5380 0 0 0
2017/11/29 02:47:00 BASE 14.30 54 17.65 47 3.1 92 1.9 0 0 964.3 NA 0.0000 9999 5450 0 0 0
2017/11/29 02:48:00 BASE 14.35 52 17.65 47 3.1 92 1.9 0 0 964.3 NA 0.0000 9999 0 0 0 2460
2017/11/29 02:49:00 BASE 14.61 51 17.29 47 3.1 92 1.9 0 0 964.1 NA 0.0000 9999 0 0 0 2260
2017/11/29 02:50:00 BASE 15.73 53 18.11 57 3.1 92 1.9 0 0 964.1 NA 0.0000 9999 0 0 0 2360
2017/11/29 02:51:00 BASE 15.64 53 18.11 57 3.1 92 1.9 0 0 964.2 NA 0.0000 9999 0 0 0 2330
2017/11/29 02:52:00 BASE 14.66 58 18.11 57 3.1 92 1.9 0 0 964.2 NA 0.0000 9999 0 0 0 2230
2017/11/29 02:53:00 BASE 13.96 61 18.11 57 3.1 92 1.9 0 0 964.2 NA 0.0000 9999 0 0 0 6230
2017/11/29 02:54:00 BASE 13.90 59 18.11 57 3.1 92 1.9 0 0 964.1 NA 0.0000 9999 0 0 0 6140
2017/11/29 02:55:00 BASE 13.31 61 18.11 57 3.0 92 1.9 0 0 964.2 NA 0.0000 9999 0 0 0 6200
2017/11/29 02:56:00 BASE 13.17 63 18.11 57 3.0 93 1.9 0 0 964.2 NA 0.0000 9999 0 0 0 6200
2017/11/29 02:57:00 BASE 13.64 65 18.11 57 3.0 93 2.0 0 0 964.2 NA 0.0000 9999 0 0 0 6170
2017/11/29 02:58:00 BASE 13.19 70 18.11 57 3.0 93 2.0 0 0 964.2 NA 0.0000 9999 0 0 0 2200
2017/11/29 02:59:00 BASE 12.35 73 18.11 57 3.0 93 1.9 0 0 964.1 NA 0.0000 9999 0 0 0 6000
2017/11/29 03:00:00 BASE 13.11 71 17.18 54 2.9 93 1.9 0 0 964.1 NA 0.0000 9999 0 0 0 5840
2017/11/29 03:01:00 BASE 13.21 66 16.72 58 2.9 93 1.9 0 0 964.1 NA 0.0000 9999 0 0 0 5910
2017/11/29 03:02:00 BASE 12.24 65 16.15 62 2.9 93 1.9 0 0 964.1 NA 0.0000 9999 0 0 0 5870
2017/11/29 03:03:00 BASE 12.22 67 16.15 62 2.9 93 1.9 0 0 964.0 NA 0.0000 9999 0 0 0 5540
2017/11/29 03:04:00 BASE 12.43 65 16.10 70 3.0 93 1.9 0 0 964.0 NA 0.0000 9999 0 0 0 5250
2017/11/29 03:05:00 BASE 11.87 59 16.10 70 3.0 93 2.0 0 0 964.0 NA 0.0000 9999 0 0 0 5540
2017/11/29 03:06:00 BASE 11.45 55 15.95 68 3.0 93 2.0 0 0 964.0 NA 0.0000 BR 9000 390 0 0 0
2017/11/29 03:07:00 BASE 12.67 52 16.26 48 3.0 93 2.0 0 0 963.9 NA 0.0000 -SN BR 7000 0 0 0 5810
2017/11/29 03:08:00 BASE 13.90 52 16.46 50 3.0 93 2.0 0 0 963.7 NA 0.2540 -SN BR 8000 0 0 0 5870
2017/11/29 03:09:00 BASE 14.17 53 16.57 61 3.1 93 2.0 0 0 963.8 NA 0.0000 -SN BR 7000 0 0 0 5710
2017/11/29 03:10:00 BASE 13.94 53 16.57 61 3.1 93 2.0 0 0 963.8 NA 0.0000 -SN BR 9999 0 0 0 5910
2017/11/29 03:11:00 BASE 13.82 54 16.57 61 3.1 93 2.0 0 0 963.8 NA 0.0000 -SN BR 9999 390 0 0 0
2017/11/29 03:12:00 BASE 12.75 59 16.57 61 3.1 92 2.0 0 0 963.8 NA 0.0000 -SN BR 9000 390 0 0 0
2017/11/29 03:13:00 BASE 12.33 61 16.57 61 3.1 92 2.0 0 0 963.7 NA 0.0000 -SN BR 9999 390 0 0 0
2017/11/29 03:14:00 BASE 12.76 61 16.57 61 3.1 92 2.0 0 0 963.7 NA 0.0000 -SN BR 9000 0 0 0 2560
2017/11/29 03:15:00 BASE 12.43 63 16.57 61 3.1 92 2.0 0 0 963.7 NA 0.0000 -SN BR 9999 390 0 0 0
2017/11/29 03:16:00 BASE 11.98 61 16.57 61 3.1 92 1.9 0 0 963.7 NA 0.0000 -SN BR 9000 0 0 0 2360
2017/11/29 03:17:00 BASE 11.58 56 16.57 61 3.1 92 1.9 0 0 963.6 NA 0.0000 -SN BR 9000 0 0 0 2560
2017/11/29 03:18:00 BASE 12.49 52 16.57 61 3.1 92 1.9 0 0 963.5 NA 0.0000 -SN BR 9000 390 0 0 0
2017/11/29 03:19:00 BASE 13.16 51 16.20 43 3.1 92 1.9 0 0 963.5 NA 0.0000 -SN BR 9000 0 0 0 6200
2017/11/29 03:20:00 BASE 12.50 55 16.20 43 3.1 92 1.9 0 0 963.6 NA 0.0000 -SN BR 9000 0 0 0 2560
2017/11/29 03:21:00 BASE 12.27 58 16.20 43 3.1 92 2.0 0 0 963.6 NA 0.0000 -SN BR 9000 0 0 0 2720
2017/11/29 03:22:00 BASE 11.66 62 16.20 43 3.2 92 2.0 0 0 963.5 NA 0.0000 -SN BR 9000 0 0 0 2690
2017/11/29 03:23:00 BASE 11.32 63 16.20 43 3.2 92 2.0 0 0 963.4 NA 0.0000 -SN BR 9000 390 0 0 0
2017/11/29 03:24:00 BASE 11.61 59 16.20 43 3.2 92 2.0 0 0 963.3 NA 0.0000 -SN BR 9000 0 0 0 6100
2017/11/29 03:25:00 BASE 13.28 53 17.95 48 3.2 92 2.0 0 0 963.2 NA 0.0000 -SN BR 9000 0 0 0 6070
2017/11/29 03:26:00 BASE 15.06 49 17.95 48 3.1 92 2.0 0 0 963.1 NA 0.0000 -SN BR 8000 0 0 0 6000
2017/11/29 03:27:00 BASE 15.21 47 18.01 47 3.1 92 2.0 0 0 963.1 NA 0.0000 -SN BR 8000 0 0 0 6070
2017/11/29 03:28:00 BASE 14.58 49 18.01 47 3.2 92 2.0 0 0 963.1 NA 0.0000 -SN BR 9000 0 0 0 5970
2017/11/29 03:29:00 BASE 14.51 52 18.01 47 3.2 92 2.0 0 0 963.0 NA 0.0000 -SN BR 9999 0 0 0 5970
2017/11/29 03:30:00 BASE 14.67 52 18.01 47 3.2 92 2.0 0 0 963.1 NA 0.2540 -SN BR 9999 360 0 0 0
2017/11/29 03:31:00 BASE 13.46 49 18.01 47 3.2 92 2.0 0 0 963.1 NA 0.0000 -SN BR 9000 360 0 0 0
2017/11/29 03:32:00 BASE 13.58 49 18.01 47 3.2 92 2.0 0 0 963.1 NA 0.0000 -SN BR 9000 360 0 0 0
2017/11/29 03:33:00 BASE 14.84 48 18.01 47 3.2 92 2.0 0 0 963.0 NA 0.0000 -SN BR 8000 360 0 0 0
2017/11/29 03:34:00 BASE 15.05 48 18.01 47 3.2 92 2.1 0 0 962.9 NA 0.0000 -SN BR 8000 0 0 0 5970
2017/11/29 03:35:00 BASE 13.86 52 18.01 47 3.2 92 2.1 0 0 963.0 NA 0.0000 -SN BR 8000 0 0 0 5940
2017/11/29 03:36:00 BASE 13.74 53 18.01 47 3.3 92 2.1 0 0 962.9 NA 0.0000 -SN BR 8000 0 0 0 6000
2017/11/29 03:37:00 BASE 14.66 51 17.85 48 3.3 92 2.1 0 0 963.0 NA 0.0000 -SN BR 7000 330 0 0 0
2017/11/29 03:38:00 BASE 14.04 51 17.85 48 3.3 92 2.1 0 0 963.0 NA 0.0000 -SN BR 7000 330 0 0 0
2017/11/29 03:39:00 BASE 13.63 53 17.85 48 3.3 92 2.1 0 0 962.9 NA 0.0000 -SN BR 6000 300 0 0 0
2017/11/29 03:40:00 BASE 14.04 52 17.34 47 3.2 92 2.1 0 0 962.9 NA 0.0000 -SN BR 5000 330 0 0 0
2017/11/29 03:41:00 BASE 14.54 51 17.34 47 3.2 92 2.0 0 0 962.8 NA 0.2540 -SN BR 4900 300 0 0 0
2017/11/29 03:42:00 BASE 14.59 53 17.34 47 3.2 92 2.0 0 0 962.9 NA 0.0000 -SN BR 4400 300 0 0 0
2017/11/29 03:43:00 BASE 14.51 54 17.34 47 3.1 92 2.0 0 0 962.9 NA 0.0000 -SN BR 4600 300 0 0 0
2017/11/29 03:44:00 BASE 13.69 56 17.34 47 3.1 92 1.9 0 0 962.9 NA 0.0000 -SN BR 4400 0 0 0 6140
2017/11/29 03:45:00 BASE 12.75 56 17.34 47 3.1 92 1.9 0 0 962.9 NA 0.0000 -SN BR 4500 0 0 0 6140
2017/11/29 03:46:00 BASE 11.91 55 17.34 47 3.1 92 1.9 0 0 962.9 NA 0.0000 -SN BR 4100 0 0 0 6200
2017/11/29 03:47:00 BASE 12.41 52 17.34 47 3.0 93 2.0 0 0 962.8 NA 0.0000 -SN BR 4600 0 0 0 6100
2017/11/29 03:48:00 BASE 13.46 50 17.34 47 3.0 93 2.0 0 0 962.8 NA 0.0000 -SN BR 4700 0 0 0 6100
2017/11/29 03:49:00 BASE 13.73 50 17.34 47 3.0 93 2.0 0 0 962.7 NA 0.2540 -SN BR 4800 0 0 0 6140
2017/11/29 03:50:00 BASE 15.11 48 17.34 42 3.1 93 2.1 0 0 962.7 NA 0.0000 -RA BR 6000 0 0 0 6330
2017/11/29 03:51:00 BASE 15.83 47 18.42 43 3.1 93 2.1 0 0 962.7 NA 0.0000 -RA BR 6000 0 0 0 6500
2017/11/29 03:52:00 BASE 14.68 49 18.42 43 3.1 93 2.2 0 0 962.7 NA 0.0000 -RA BR 6000 330 0 0 0
2017/11/29 03:53:00 BASE 14.03 50 18.42 43 3.2 93 2.2 0 0 962.7 NA 0.0000 -RA BR 9000 330 0 0 0
2017/11/29 03:54:00 BASE 14.17 52 18.42 43 3.2 93 2.2 0 0 962.8 NA 0.0000 -RA BR 9999 330 0 0 0
2017/11/29 03:55:00 BASE 12.70 55 18.42 43 3.2 93 2.2 0 0 962.8 NA 0.0000 -RA BR 9999 360 0 0 0
2017/11/29 03:56:00 BASE 12.03 57 18.42 43 3.2 93 2.2 0 0 962.8 NA 0.0000 -RA BR 9999 0 0 0 6270
2017/11/29 03:57:00 BASE 12.46 56 18.42 43 3.2 93 2.2 0 0 962.8 NA 0.0000 -RA BR 9999 0 0 0 6270
2017/11/29 03:58:00 BASE 12.74 56 18.42 43 3.2 93 2.2 0 0 962.8 NA 0.0000 -RA BR 9999 330 0 0 0
2017/11/29 03:59:00 BASE 13.15 53 18.42 43 3.2 93 2.2 0 0 962.7 NA 0.0000 -RA BR 9999 0 0 0 6200
2017/11/29 04:00:00 BASE 13.10 55 18.42 43 3.2 93 2.2 0 0 962.7 NA 0.0000 -RA BR 9999 360 0 0 0
2017/11/29 04:01:00 BASE 12.39 61 18.01 52 3.2 93 2.2 0 0 962.8 NA 0.0000 -RA BR 9999 390 0 0 0
2017/11/29 04:02:00 BASE 11.95 63 18.01 52 3.2 93 2.1 0 0 962.8 NA 0.0000 9999 360 0 0 0
2017/11/29 04:03:00 BASE 11.70 64 16.00 57 3.2 93 2.1 0 0 962.8 NA 0.0000 9999 360 0 0 0
2017/11/29 04:04:00 BASE 10.97 65 15.59 57 3.1 93 2.1 0 0 962.8 NA 0.0000 9999 360 0 0 0
2017/11/29 04:05:00 BASE 11.12 60 15.59 57 3.1 93 2.2 0 0 962.7 NA 0.0000 9999 0 0 0 6000
2017/11/29 04:06:00 BASE 12.07 55 15.59 57 3.2 94 2.2 0 0 962.7 NA 0.2540 9999 390 0 0 0
2017/11/29 04:07:00 BASE 12.72 54 15.69 52 3.2 94 2.3 0 0 962.7 NA 0.0000 9999 390 0 0 0
2017/11/29 04:08:00 BASE 12.60 55 15.69 52 3.3 94 2.4 0 0 962.7 NA 0.0000 9999 360 0 0 0
2017/11/29 04:09:00 BASE 10.97 61 15.69 52 3.3 94 2.5 0 0 962.8 NA 0.0000 9999 360 0 0 0
2017/11/29 04:10:00 BASE 8.65 66 15.69 52 3.4 94 2.5 0 0 962.8 NA 0.0000 9999 390 0 0 0
2017/11/29 04:11:00 BASE 9.09 59 15.69 52 3.4 94 2.5 0 0 962.6 NA 0.0000 BR 9000 360 0 0 0
2017/11/29 04:12:00 BASE 10.91 52 15.69 52 3.4 94 2.5 0 0 962.6 NA 0.0000 BR 9000 0 0 0 6070
2017/11/29 04:13:00 BASE 11.12 55 15.69 52 3.4 93 2.4 0 0 962.6 NA 0.0000 BR 9999 360 0 0 0
2017/11/29 04:14:00 BASE 11.08 58 15.69 52 3.4 93 2.4 0 0 962.5 NA 0.0000 BR 9999 0 0 0 5610
2017/11/29 04:15:00 BASE 11.47 57 15.69 52 3.4 93 2.4 0 0 962.5 NA 0.0000 BR 9000 360 0 0 0
2017/11/29 04:16:00 BASE 11.39 55 15.69 52 3.4 93 2.4 0 0 962.5 NA 0.0000 -RA BR 9000 360 0 0 0
2017/11/29 04:17:00 BASE 11.69 54 14.61 51 3.5 93 2.4 0 0 962.4 NA 0.0000 -RA BR 9000 0 0 0 5810
2017/11/29 04:18:00 BASE 11.10 53 14.61 51 3.5 93 2.5 0 0 962.5 NA 0.0000 -RA BR 8000 330 0 0 0
2017/11/29 04:19:00 BASE 9.67 56 14.61 51 3.5 93 2.5 0 0 962.5 NA 0.0000 -RA BR 7000 0 0 0 5870
2017/11/29 04:20:00 BASE 9.76 53 14.61 51 3.5 93 2.5 0 0 962.4 NA 0.0000 -RA BR 7000 0 0 0 5840
2017/11/29 04:21:00 BASE 10.87 49 14.61 51 3.5 93 2.5 0 0 962.3 NA 0.0000 -RA BR 7000 360 0 0 0
2017/11/29 04:22:00 BASE 12.68 48 15.38 57 3.5 93 2.5 0 0 962.1 NA 0.2540 -RA BR 7000 360 0 0 0
2017/11/29 04:23:00 BASE 13.39 49 15.38 48 3.5 93 2.5 0 0 962.1 NA 0.0000 -RA BR 7000 330 0 0 0
2017/11/29 04:24:00 BASE 13.80 46 16.67 41 3.5 93 2.5 0 0 962.1 NA 0.0000 -RA BR 6000 0 0 0 5320
2017/11/29 04:25:00 BASE 15.57 46 18.16 51 3.5 93 2.5 0 0 962.0 NA 0.0000 -RA BR 5000 330 0 0 0
2017/11/29 04:26:00 BASE 16.27 46 18.16 51 3.5 93 2.5 0 0 962.0 NA 0.0000 -RA BR 5000 360 0 0 0
2017/11/29 04:27:00 BASE 15.91 43 18.16 51 3.5 93 2.5 0 0 962.0 NA 0.0000 -RA BR 5000 330 0 0 0
2017/11/29 04:28:00 BASE 15.58 40 18.16 51 3.5 93 2.5 0 0 962.0 NA 0.0000 -RA BR 4200 330 0 0 0
2017/11/29 04:29:00 BASE 14.61 38 18.16 51 3.5 93 2.5 0 0 962.1 NA 0.0000 -RA BR 3700 300 0 0 0
2017/11/29 04:30:00 BASE 14.07 38 18.16 51 3.5 93 2.5 0 0 962.2 NA 0.2540 -RA BR 3800 330 0 0 0
2017/11/29 04:31:00 BASE 14.10 37 18.16 51 3.5 93 2.5 0 0 962.2 NA 0.0000 -RA BR 4500 330 0 0 0
2017/11/29 04:32:00 BASE 13.91 37 18.16 51 3.5 93 2.5 0 0 962.1 NA 0.0000 -RA BR 4700 330 0 0 0
2017/11/29 04:33:00 BASE 14.45 38 18.16 51 3.5 93 2.5 0 0 962.1 NA 0.0000 -RA BR 4900 330 0 0 0
2017/11/29 04:34:00 BASE 15.05 38 18.16 51 3.5 94 2.5 0 0 962.1 NA 0.0000 -RA BR 5000 330 0 0 0
2017/11/29 04:35:00 BASE 15.41 39 18.01 36 3.5 94 2.6 0 0 962.1 NA 0.2540 -RA BR 5000 330 0 0 0
2017/11/29 04:36:00 BASE 15.92 38 18.01 36 3.4 94 2.6 0 0 962.0 NA 0.0000 -RA BR 4100 330 0 0 0
2017/11/29 04:37:00 BASE 15.72 37 17.70 37 3.4 94 2.5 0 0 962.1 NA 0.0000 -RA BR 2600 330 0 0 0
2017/11/29 04:38:00 BASE 14.82 35 17.70 37 3.4 94 2.5 0 0 962.0 NA 0.0000 -RA BR 5000 330 0 0 0
2017/11/29 04:39:00 BASE 14.10 34 17.70 37 3.4 94 2.5 0 0 962.1 NA 0.2540 -RA BR 5000 330 0 0 0
2017/11/29 04:40:00 BASE 14.88 33 17.80 29 3.3 94 2.5 0 0 962.0 NA 0.0000 -SN BR 5000 330 0 0 0
2017/11/29 04:41:00 BASE 15.79 33 18.78 28 3.3 95 2.5 0 0 961.9 NA 0.0000 -SN BR 4900 330 0 0 0
2017/11/29 04:42:00 BASE 15.44 34 18.78 28 3.3 95 2.6 0 0 961.9 NA 0.0000 -SN BR 3600 330 0 0 0
2017/11/29 04:43:00 BASE 14.99 35 18.78 28 3.3 95 2.6 0 0 961.9 NA 0.0000 -SN BR 3300 300 0 0 0
2017/11/29 04:44:00 BASE 15.10 35 18.78 28 3.3 95 2.5 0 0 961.8 NA 0.2540 -SN BR 2200 300 0 0 0
2017/11/29 04:45:00 BASE 15.15 33 18.78 28 3.2 95 2.5 0 0 961.9 NA 0.0000 -SN BR 2400 300 0 0 0
2017/11/29 04:46:00 BASE 14.38 33 18.78 28 3.2 95 2.5 0 0 961.9 NA 0.0000 -SN BR 4700 300 0 0 0
2017/11/29 04:47:00 BASE 14.39 32 18.78 28 3.1 95 2.5 0 0 961.8 NA 0.2540 -SN BR 5000 330 0 0 0
2017/11/29 04:48:00 BASE 15.90 33 18.78 28 3.1 96 2.4 0 0 961.7 NA 0.0000 -SN BR 4300 330 0 0 0
2017/11/29 04:49:00 BASE 17.20 35 19.03 30 3.1 96 2.5 0 0 961.6 NA 0.0000 -SN BR 4700 330 0 0 0
2017/11/29 04:50:00 BASE 16.90 37 19.03 30 3.1 96 2.5 0 0 961.5 NA 0.0000 -SN BR 5000 330 0 0 0
2017/11/29 04:51:00 BASE 17.28 37 19.91 46 3.1 96 2.5 0 0 961.4 NA 0.0000 -SN BR 6000 330 0 0 0
2017/11/29 04:52:00 BASE 17.71 36 19.91 46 3.1 96 2.5 0 0 961.5 NA 0.0000 -SN BR 5000 330 0 0 0
2017/11/29 04:53:00 BASE 17.03 35 19.91 46 3.1 96 2.5 0 0 961.5 NA 0.2540 -SN BR 5000 360 0 0 0
2017/11/29 04:54:00 BASE 17.11 32 19.91 46 3.1 96 2.5 0 0 961.4 NA 0.0000 -SN BR 5000 360 0 0 0
2017/11/29 04:55:00 BASE 17.47 33 19.91 46 3.1 96 2.5 0 0 961.3 NA 0.0000 -SN BR 3200 0 0 0 3840
2017/11/29 04:56:00 BASE 17.25 35 19.91 46 3.1 96 2.5 0 0 961.3 NA 0.0000 -SN BR 1900 330 0 0 0
2017/11/29 04:57:00 BASE 16.26 32 19.91 46 3.1 96 2.5 0 0 961.4 NA 0.2540 -SN BR 2000 300 0 0 0
2017/11/29 04:58:00 BASE 15.33 30 19.91 46 3.1 96 2.6 0 0 961.4 NA 0.0000 -SN BR 3100 330 0 0 0
2017/11/29 04:59:00 BASE 16.72 31 20.01 29 3.2 96 2.6 0 0 961.2 NA 0.0000 -SN BR 2000 330 0 0 0
2017/11/29 05:00:00 BASE 17.25 32 20.01 29 3.2 96 2.6 0 0 961.2 NA 0.2540 -SN BR 2800 300 0 0 0
2017/11/29 05:01:00 BASE 15.93 32 20.01 29 3.2 96 2.6 0 0 961.2 NA 0.0000 -SN BR 2800 330 0 0 0
2017/11/29 05:02:00 BASE 16.16 30 20.01 29 3.2 96 2.7 0 0 961.1 NA 0.2540 -SN BR 1900 330 0 0 0
2017/11/29 05:03:00 BASE 17.68 31 20.58 35 3.2 96 2.7 0 0 960.9 NA 0.0000 -SN BR 1800 360 0 0 0
2017/11/29 05:04:00 BASE 17.70 33 20.58 35 3.2 96 2.7 0 0 961.0 NA 0.0000 -SN BR 2600 330 0 0 0
2017/11/29 05:05:00 BASE 17.22 32 20.58 35 3.2 96 2.6 0 0 960.9 NA 0.2540 -SN BR 2000 390 0 0 0
2017/11/29 05:06:00 BASE 18.53 31 21.20 20 3.2 96 2.6 0 0 960.7 NA 0.0000 -SN BR 2900 0 0 0 3710
2017/11/29 05:07:00 BASE 18.83 30 21.81 30 3.2 96 2.6 0 0 960.8 NA 0.0000 -SN BR 1800 0 0 0 3640
2017/11/29 05:08:00 BASE 17.77 27 21.81 30 3.1 96 2.6 0 0 960.9 NA 0.2540 -SN BR 2600 0 0 0 3670
2017/11/29 05:09:00 BASE 15.91 25 21.81 30 3.1 96 2.5 0 0 961.0 NA 0.0000 -SN BR 2100 0 0 0 3710
2017/11/29 05:10:00 BASE 15.26 24 21.81 30 3.1 96 2.5 0 0 960.9 NA 0.2540 -SN BR 3300 0 0 0 4070
2017/11/29 05:11:00 BASE 16.78 26 21.81 30 3.1 96 2.6 0 0 960.7 NA 0.0000 -SN BR 2900 0 0 0 4100
2017/11/29 05:12:00 BASE 18.65 30 22.79 31 3.2 96 2.6 0 0 960.6 NA 0.0000 -SN BR 2800 0 0 0 3970
2017/11/29 05:13:00 BASE 18.68 28 22.79 31 3.2 96 2.7 0 0 960.7 NA 0.2540 -SN BR 3300 0 0 0 3670
2017/11/29 05:14:00 BASE 17.25 27 22.79 31 3.3 96 2.7 0 0 960.8 NA 0.0000 -SN BR 2800 360 0 0 0
2017/11/29 05:15:00 BASE 16.88 25 22.79 31 3.3 96 2.8 0 0 960.8 NA 0.0000 -SN BR 2500 390 0 0 0
2017/11/29 05:16:00 BASE 16.82 24 22.79 31 3.3 96 2.8 0 0 960.7 NA 0.2540 -SN BR 2600 0 0 0 3740
2017/11/29 05:17:00 BASE 16.60 24 22.79 31 3.3 96 2.7 0 0 960.7 NA 0.0000 -SN BR 2400 360 0 0 0
2017/11/29 05:18:00 BASE 16.76 25 22.79 31 3.3 96 2.7 0 0 960.6 NA 0.2540 -SN BR 2700 360 0 0 0
2017/11/29 05:19:00 BASE 17.22 27 22.79 31 3.3 96 2.7 0 0 960.5 NA 0.0000 -SN BR 2600 360 0 0 0
2017/11/29 05:20:00 BASE 17.67 27 22.79 31 3.3 96 2.7 0 0 960.4 NA 0.0000 -SN BR 2800 0 0 0 3310
2017/11/29 05:21:00 BASE 18.71 25 22.79 31 3.3 97 2.8 0 0 960.4 NA 0.2540 -SN BR 2500 330 0 0 0
2017/11/29 05:22:00 BASE 18.00 23 21.40 32 3.3 97 2.8 0 0 960.7 NA 0.0000 -SN BR 1700 330 0 0 0
2017/11/29 05:23:00 BASE 14.52 16 21.40 32 3.3 97 2.8 0 0 960.8 NA 0.0000 -SN BR 1800 360 0 0 0
2017/11/29 05:24:00 BASE 13.98 17 21.40 32 3.2 97 2.8 0 0 960.6 NA 0.2540 -SN BR 3800 390 0 0 0
2017/11/29 05:25:00 BASE 17.11 25 22.22 26 3.2 97 2.8 0 0 960.4 NA 0.0000 -SN BR 3300 360 0 0 0
2017/11/29 05:26:00 BASE 19.79 29 23.36 32 3.2 97 2.8 0 0 960.2 NA 0.0000 -SN BR 2400 360 0 0 0
2017/11/29 05:27:00 BASE 20.21 29 23.36 32 3.2 97 2.8 0 0 960.3 NA 0.2540 -SN BR 1600 0 0 0 2660
2017/11/29 05:28:00 BASE 19.07 28 23.36 32 3.2 97 2.7 0 0 960.5 NA 0.2540 -SN BR 2600 0 0 0 2920
2017/11/29 05:29:00 BASE 17.82 27 23.36 32 3.2 97 2.7 0 0 960.5 NA 0.0000 -SN BR 2600 0 0 0 3180
2017/11/29 05:30:00 BASE 17.35 25 23.36 32 3.1 97 2.7 0 0 960.5 NA 0.0000 -SN BR 2600 0 0 0 3020
2017/11/29 05:31:00 BASE 17.88 25 23.36 32 3.1 97 2.7 0 0 960.4 NA 0.2540 -SN BR 2400 0 0 0 2950
2017/11/29 05:32:00 BASE 18.65 24 23.36 32 3.1 98 2.8 0 0 960.4 NA 0.0000 -SN BR 2200 330 0 0 0
2017/11/29 05:33:00 BASE 17.77 23 23.36 32 3.1 98 2.8 0 0 960.4 NA 0.2540 -SN BR 1700 360 0 0 0
2017/11/29 05:34:00 BASE 16.77 25 23.36 32 3.1 98 2.8 0 0 960.5 NA 0.0000 -SN BR 2300 360 0 0 0
2017/11/29 05:35:00 BASE 18.27 26 23.36 32 3.1 98 2.8 0 0 960.3 NA 0.2540 -SN BR 2200 330 0 0 0
2017/11/29 05:36:00 BASE 18.62 25 22.74 27 3.0 98 2.8 0 0 960.4 NA 0.0000 -SN BR 2300 330 0 0 0
2017/11/29 05:37:00 BASE 17.36 23 21.61 31 3.0 98 2.7 0 0 960.5 NA 0.2540 -SN BR 2200 330 0 0 0
2017/11/29 05:38:00 BASE 16.70 23 21.61 31 3.0 98 2.7 0 0 960.4 NA 0.0000 -SN BR 1900 300 0 0 0
2017/11/29 05:39:00 BASE 17.14 24 21.61 31 3.0 98 2.7 0 0 960.3 NA 0.2540 -SN BR 1700 330 0 0 0
2017/11/29 05:40:00 BASE 18.74 25 22.58 29 3.0 98 2.7 0 0 960.2 NA 0.0000 -SN BR 1700 330 0 0 0
2017/11/29 05:41:00 BASE 18.61 26 22.58 29 3.0 98 2.7 0 1 960.3 NA 0.2540 -SN BR 1300 360 0 0 0
2017/11/29 05:42:00 BASE 17.51 21 22.58 29 3.0 98 2.8 0 1 960.2 NA 0.2540 -SN BR 1600 330 0 0 0
2017/11/29 05:43:00 BASE 17.80 21 22.58 29 3.0 99 2.8 0 1 960.1 NA 0.0000 -SN BR 1200 330 0 0 0
2017/11/29 05:44:00 BASE 18.01 24 22.58 29 3.0 99 2.8 0 1 960.1 NA 0.2540 -SN BR 1700 330 0 0 0
2017/11/29 05:45:00 BASE 18.12 27 22.58 29 3.0 99 2.8 0 1 960.0 NA 0.0000 -SN BR 2500 330 0 0 0
2017/11/29 05:46:00 BASE 18.15 28 22.58 29 3.0 99 2.8 0 1 960.1 NA 0.2540 -SN BR 2000 360 0 0 0
2017/11/29 05:47:00 BASE 18.77 26 22.58 29 3.0 99 2.8 0 1 959.9 NA 0.0000 -SN BR 1800 330 0 0 0
2017/11/29 05:48:00 BASE 19.07 25 22.58 29 3.0 99 2.9 0 0 960.0 NA 0.2540 -SN BR 1700 330 0 0 0
2017/11/29 05:49:00 BASE 17.28 24 22.58 29 3.0 99 2.9 0 1 960.1 NA 0.0000 -SN BR 1400 330 0 0 0
2017/11/29 05:50:00 BASE 16.95 22 22.48 31 3.1 99 2.9 0 1 959.9 NA 0.2540 -SN BR 2300 330 0 0 0
2017/11/29 05:51:00 BASE 17.72 23 22.48 31 3.1 99 3.0 0 1 959.9 NA 0.0000 -SN BR 1500 360 0 0 0
2017/11/29 05:52:00 BASE 17.35 22 22.48 31 3.1 100 3.1 0 1 959.9 NA 0.2540 -SN BR 2100 330 0 0 0
2017/11/29 05:53:00 BASE 18.07 23 22.48 31 3.1 100 3.1 0 1 959.9 NA 0.0000 -SN BR 2200 360 0 0 0
2017/11/29 05:54:00 BASE 18.64 24 22.48 31 3.2 100 3.1 0 1 959.9 NA 0.0000 -SN BR 2100 330 0 0 0
2017/11/29 05:55:00 BASE 17.58 23 22.48 31 3.2 100 3.2 0 1 959.9 NA 0.2540 -SN BR 1400 330 0 0 0
2017/11/29 05:56:00 BASE 17.02 23 22.48 31 3.2 100 3.1 0 1 959.9 NA 0.0000 -SN BR 2500 360 0 0 0
2017/11/29 05:57:00 BASE 17.69 23 22.94 23 3.2 99 3.1 0 1 959.7 NA 0.0000 -SN BR 2400 360 0 0 0
2017/11/29 05:58:00 BASE 17.95 23 22.94 23 3.2 99 3.1 0 1 959.9 NA 0.0000 -SN BR 1700 0 0 0 3020
2017/11/29 05:59:00 BASE 17.07 23 22.94 23 3.2 99 3.0 0 1 960.0 NA 0.0000 -SN BR 3000 0 0 0 3050
2017/11/29 06:00:00 BASE 16.65 21 22.94 23 3.2 99 3.0 0 1 960.0 NA 0.2540 -SN BR 3000 330 0 0 0
2017/11/29 06:01:00 BASE 16.82 19 22.94 23 3.1 99 3.0 0 1 959.9 NA 0.0000 -SN BR 2700 0 0 0 2990
2017/11/29 06:02:00 BASE 15.90 19 22.94 23 3.1 99 3.0 0 1 960.0 NA 0.0000 -SN BR 2300 0 0 0 3220
2017/11/29 06:03:00 BASE 15.11 16 22.94 23 3.1 99 3.0 0 1 960.0 NA 0.0000 -SN BR 3000 330 0 0 0
2017/11/29 06:04:00 BASE 15.36 14 22.94 23 3.1 99 3.0 0 1 959.9 NA 0.0000 -SN BR 2800 0 0 0 2620
2017/11/29 06:05:00 BASE 15.27 18 22.94 23 3.1 99 3.0 0 1 959.9 NA 0.2540 -SN BR 2600 360 0 0 0
2017/11/29 06:06:00 BASE 16.91 24 22.94 23 3.2 99 3.0 0 1 959.7 NA 0.0000 -SN BR 2800 360 0 0 0
2017/11/29 06:07:00 BASE 18.68 25 20.89 14 3.2 99 3.0 0 1 959.6 NA 0.0000 -SN BR 2300 750 0 0 0
2017/11/29 06:08:00 BASE 18.78 22 21.97 27 3.2 99 3.0 0 1 959.7 NA 0.2540 -SN BR 1300 330 0 0 0
2017/11/29 06:09:00 BASE 18.43 22 21.97 27 3.2 99 3.0 0 1 959.7 NA 0.0000 -SN BR 1400 330 0 0 0
2017/11/29 06:10:00 BASE 17.93 19 21.97 27 3.2 99 3.0 0 1 959.7 NA 0.0000 -SN BR 2300 330 0 0 0
2017/11/29 06:11:00 BASE 18.02 18 22.48 16 3.1 99 3.0 0 2 959.8 NA 0.2540 -SN BR 2200 330 0 0 0
2017/11/29 06:12:00 BASE 18.63 18 22.48 16 3.1 99 3.0 1 2 959.7 NA 0.0000 -SN BR 2200 330 0 0 0
2017/11/29 06:13:00 BASE 18.39 17 22.48 16 3.1 99 3.0 1 2 959.8 NA 0.0000 -SN BR 2500 330 0 0 0
2017/11/29 06:14:00 BASE 17.48 17 22.48 16 3.1 99 2.9 0 2 959.9 NA 0.0000 -SN BR 2500 330 0 0 0
2017/11/29 06:15:00 BASE 17.31 15 22.48 16 3.1 99 2.9 0 2 959.8 NA 0.2540 -SN BR 2300 330 0 0 0
2017/11/29 06:16:00 BASE 18.18 14 22.48 16 3.1 99 2.9 0 2 959.7 NA 0.0000 -SN BR 2300 330 0 0 0
2017/11/29 06:17:00 BASE 18.64 18 22.48 16 3.1 99 3.0 0 2 959.8 NA 0.0000 -SN BR 2600 330 0 0 0
2017/11/29 06:18:00 BASE 18.40 18 22.48 16 3.1 99 3.0 1 2 959.7 NA 0.0000 -SN BR 1900 300 0 0 0
2017/11/29 06:19:00 BASE 18.27 19 22.48 16 3.1 99 2.9 1 2 959.8 NA 0.2540 -SN BR 1500 1670 0 0 0
2017/11/29 06:20:00 BASE 16.76 19 22.48 16 3.1 99 2.9 1 2 960.0 NA 0.0000 -SN BR 1500 300 0 0 0
2017/11/29 06:21:00 BASE 15.99 18 22.28 13 3.0 99 2.9 1 2 959.9 NA 0.2540 -SN BR 2800 330 0 0 0
2017/11/29 06:22:00 BASE 17.09 18 22.28 13 3.0 99 2.8 1 2 959.8 NA 0.0000 -SN BR 2000 300 0 0 0
2017/11/29 06:23:00 BASE 17.71 18 22.28 13 2.9 99 2.8 1 2 959.8 NA 0.0000 -SN BR 1300 300 0 0 0
2017/11/29 06:24:00 BASE 17.66 19 22.28 13 2.9 99 2.7 1 2 959.8 NA 0.2540 -SN BR 1500 300 0 0 0
2017/11/29 06:25:00 BASE 17.00 21 22.28 13 2.8 99 2.7 1 2 959.8 NA 0.0000 -SN BR 1300 300 0 0 0
2017/11/29 06:26:00 BASE 17.42 22 22.12 8 2.7 99 2.6 1 2 959.7 NA 0.2540 -SN BR 1600 300 0 0 0
2017/11/29 06:27:00 BASE 18.99 23 23.25 19 2.7 99 2.6 1 2 959.6 NA 0.2540 -SN BR 1200 330 0 0 0
2017/11/29 06:28:00 BASE 19.49 23 23.25 19 2.7 100 2.6 1 2 959.6 NA 0.0000 -SN BR 1100 300 0 0 0
2017/11/29 06:29:00 BASE 19.31 22 23.25 19 2.7 100 2.6 1 0 959.6 NA 0.2540 -SN BR 1100 300 0 0 0
2017/11/29 06:30:00 BASE 19.41 21 23.25 19 2.6 100 2.6 1 0 959.7 NA 0.2540 -SN BR 1100 300 0 0 0
2017/11/29 06:31:00 BASE 19.42 20 23.25 19 2.6 100 2.6 1 0 959.7 NA 0.0000 -SN BR 1200 260 0 0 0
2017/11/29 06:32:00 BASE 18.47 18 23.25 19 2.6 100 2.6 1 0 959.8 NA 0.2540 -SN BR 1100 0 0 0 2100
2017/11/29 06:33:00 BASE 18.87 16 23.25 19 2.6 100 2.6 1 0 959.6 NA 0.0000 -SN BR 1300 260 0 0 0
2017/11/29 06:34:00 BASE 19.98 19 23.25 19 2.6 100 2.6 1 4 959.5 NA 0.2540 -SN BR 1700 260 0 0 0
2017/11/29 06:35:00 BASE 19.50 21 23.25 19 2.6 100 2.6 1 5 959.5 NA 0.0000 -SN BR 2300 300 0 0 0
2017/11/29 06:36:00 BASE 19.06 20 23.25 19 2.6 100 2.6 2 6 959.5 NA 0.0000 -SN BR 2000 0 0 0 2400
2017/11/29 06:37:00 BASE 19.19 19 22.38 21 2.7 100 2.7 2 7 959.4 NA 0.2540 -SN BR 2300 0 0 0 2790
2017/11/29 06:38:00 BASE 18.18 18 22.38 21 2.7 100 2.7 2 7 959.4 NA 0.0000 -SN BR 2400 0 0 0 3020
2017/11/29 06:39:00 BASE 18.04 18 22.22 15 2.7 100 2.7 2 8 959.3 NA 0.0000 -SN BR 3200 0 0 0 2990
2017/11/29 06:40:00 BASE 18.76 17 22.22 15 2.8 100 2.8 3 8 959.3 NA 0.0000 -SN BR 2100 0 0 0 3310
2017/11/29 06:41:00 BASE 18.43 18 22.17 17 2.8 100 2.8 3 9 959.3 NA 0.0000 -SN BR 2200 0 0 0 2920
2017/11/29 06:42:00 BASE 18.69 18 22.22 10 2.8 100 2.8 3 2 959.2 NA 0.0000 -SN BR 2100 0 0 0 2920
2017/11/29 06:43:00 BASE 19.25 16 22.22 10 2.8 100 2.8 3 6 959.3 NA 0.0000 -SN BR 2000 0 0 0 2620
2017/11/29 06:44:00 BASE 19.53 15 22.22 10 2.8 100 2.8 3 6 959.3 NA 0.0000 -SN BR 1900 360 0 0 0
2017/11/29 06:45:00 BASE 19.96 15 22.22 10 2.8 100 2.8 3 7 959.3 NA 0.2540 -SN BR 1600 260 0 0 0
2017/11/29 06:46:00 BASE 19.07 14 22.22 10 2.8 100 2.8 3 9 959.5 NA 0.0000 -SN BR 1500 330 0 0 0
2017/11/29 06:47:00 BASE 18.30 13 22.22 10 2.8 100 2.8 4 10 959.4 NA 0.0000 -SN BR 1500 360 0 0 0
2017/11/29 06:48:00 BASE 19.00 16 22.28 18 2.8 100 2.8 4 9 959.4 NA 0.0000 -SN BR 1700 0 0 0 2820
2017/11/29 06:49:00 BASE 19.54 17 22.28 18 2.8 100 2.8 3 8 959.3 NA 0.0000 -SN BR 1800 0 0 0 2690
2017/11/29 06:50:00 BASE 19.22 14 22.28 18 2.8 100 2.8 3 6 959.5 NA 0.0000 -SN BR 1800 0 0 0 2620
2017/11/29 06:51:00 BASE 17.80 11 22.28 18 2.8 100 2.8 2 5 959.6 NA 0.0000 -SN BR 1400 300 0 0 0
2017/11/29 06:52:00 BASE 17.43 11 22.28 18 2.8 100 2.8 2 5 959.6 NA 0.2540 -SN BR 1200 300 0 0 0
2017/11/29 06:53:00 BASE 17.40 12 22.28 18 2.8 100 2.8 2 5 959.6 NA 0.0000 -SN BR 1400 300 0 0 0
2017/11/29 06:54:00 BASE 17.45 9 22.28 18 2.7 100 2.7 3 6 959.6 NA 0.0000 -SN BR 1700 360 0 0 0
2017/11/29 06:55:00 BASE 18.10 10 22.28 18 2.7 100 2.7 3 7 959.5 NA 0.0000 -SN BR 1600 360 0 0 0
2017/11/29 06:56:00 BASE 17.61 14 22.28 18 2.7 100 2.7 2 6 959.6 NA 0.0000 -SN BR 1500 360 0 0 0
2017/11/29 06:57:00 BASE 17.94 12 22.28 18 2.7 100 2.7 2 5 959.5 NA 0.2540 -SN BR 1700 0 0 0 2690
2017/11/29 06:58:00 BASE 18.77 12 21.61 8 2.7 100 2.7 1 3 959.5 NA 0.0000 -SN BR 3600 0 0 0 2890
2017/11/29 06:59:00 BASE 18.63 14 21.61 23 2.8 100 2.8 1 1 959.5 NA 0.0000 -SN BR 3100 0 0 0 2300
2017/11/29 07:00:00 BASE 19.10 12 22.17 17 2.8 100 2.8 1 0 959.4 NA 0.0000 -SN BR 2600 300 0 0 0
2017/11/29 07:01:00 BASE 19.36 13 22.17 17 2.8 100 2.8 1 0 959.4 NA 0.2540 -SN BR 2300 330 0 0 0
2017/11/29 07:02:00 BASE 18.39 12 22.17 17 2.8 100 2.8 1 1 959.7 NA 0.0000 -SN BR 2200 330 0 0 0
2017/11/29 07:03:00 BASE 17.55 9 22.17 17 2.7 100 2.7 1 2 959.7 NA 0.0000 -SN BR 2100 330 0 0 0
2017/11/29 07:04:00 BASE 18.14 7 22.17 17 2.7 100 2.7 1 2 959.6 NA 0.0000 -SN BR 2200 330 0 0 0
2017/11/29 07:05:00 BASE 18.06 5 22.17 17 2.6 100 2.6 1 2 959.7 NA 0.2540 -SN BR 2600 330 0 0 0
2017/11/29 07:06:00 BASE 17.14 6 22.17 17 2.6 100 2.6 1 2 959.7 NA 0.0000 -SN BR 2600 360 0 0 0
2017/11/29 07:07:00 BASE 17.87 8 22.17 17 2.6 100 2.6 1 3 959.5 NA 0.0000 -SN BR 2400 330 0 0 0
2017/11/29 07:08:00 BASE 19.01 9 22.17 17 2.6 100 2.6 1 3 959.6 NA 0.2540 -SN BR 1300 330 0 0 0
2017/11/29 07:09:00 BASE 18.96 9 22.17 17 2.6 100 2.6 2 4 959.7 NA 0.0000 -SN BR 1500 330 0 0 0
2017/11/29 07:10:00 BASE 18.34 8 21.86 9 2.6 100 2.6 3 5 959.7 NA 0.2540 -SN BR 1800 330 0 0 0
2017/11/29 07:11:00 BASE 18.28 8 21.92 3 2.5 100 2.5 3 6 959.7 NA 0.0000 -SN BR 2500 330 0 0 0
2017/11/29 07:12:00 BASE 17.98 9 21.92 3 2.5 100 2.5 4 8 959.8 NA 0.0000 -SN BR 1400 330 0 0 0
2017/11/29 07:13:00 BASE 17.65 9 21.92 3 2.5 100 2.5 5 12 959.7 NA 0.0000 -SN BR 1600 360 0 0 0
2017/11/29 07:14:00 BASE 18.59 9 21.92 3 2.5 100 2.5 6 15 959.7 NA 0.2540 -SN BR 1700 390 0 0 0
2017/11/29 07:15:00 BASE 18.39 9 21.92 3 2.6 100 2.6 7 16 959.7 NA 0.0000 -SN BR 2100 660 0 0 0
2017/11/29 07:16:00 BASE 17.29 8 21.92 3 2.6 100 2.6 6 15 959.8 NA 0.0000 -SN BR 2100 620 0 0 0
2017/11/29 07:17:00 BASE 16.57 9 21.92 3 2.6 100 2.6 5 12 959.8 NA 0.0000 -SN BR 2000 660 0 0 0
2017/11/29 07:18:00 BASE 16.63 10 21.92 3 2.6 100 2.6 5 12 959.7 NA 0.0000 -SN BR 1800 360 0 0 0
2017/11/29 07:19:00 BASE 17.19 10 21.92 3 2.7 100 2.7 6 15 959.8 NA 0.0000 -SN BR 2000 330 0 0 0
2017/11/29 07:20:00 BASE 16.26 10 21.92 3 2.7 100 2.7 7 15 959.8 NA 0.0000 -SN BR 1400 360 0 0 0
2017/11/29 07:21:00 BASE 15.27 10 21.86 15 2.7 100 2.7 7 17 959.8 NA 0.2540 -SN BR 1600 330 0 0 0
2017/11/29 07:22:00 BASE 16.52 12 21.86 15 2.6 100 2.6 7 14 959.7 NA 0.0000 -SN BR 1300 330 0 0 0
2017/11/29 07:23:00 BASE 18.18 12 21.09 3 2.6 100 2.6 5 10 959.6 NA 0.0000 -SN BR 1400 360 0 0 0
2017/11/29 07:24:00 BASE 18.91 9 21.92 12 2.5 100 2.5 5 10 959.6 NA 0.0000 -SN BR 1200 330 0 0 0
2017/11/29 07:25:00 BASE 18.72 6 21.92 12 2.5 100 2.5 7 15 959.7 NA 0.2540 -SN BR 1200 260 0 0 0
2017/11/29 07:26:00 BASE 18.27 3 21.92 12 2.5 100 2.5 8 17 959.7 NA 0.0000 -SN BR 1200 300 0 0 0
2017/11/29 07:27:00 BASE 18.64 6 21.92 12 2.5 100 2.5 8 16 959.7 NA 0.0000 -SN BR 1300 330 0 0 0
2017/11/29 07:28:00 BASE 18.06 7 21.92 12 2.4 100 2.4 8 16 959.7 NA 0.0000 -SN BR 1400 300 0 0 0
2017/11/29 07:29:00 BASE 17.83 6 21.92 12 2.4 100 2.4 6 13 959.6 NA 0.2540 -SN BR 1300 260 0 0 0
2017/11/29 07:30:00 BASE 18.03 7 21.92 12 2.4 100 2.4 5 10 959.7 NA 0.0000 -SN BR 1100 260 0 0 0
2017/11/29 07:31:00 BASE 18.73 7 21.92 12 2.4 100 2.4 5 9 959.5 NA 0.2540 -SN BR 1000 260 0 0 0
2017/11/29 07:32:00 BASE 18.78 8 21.92 12 2.3 100 2.3 4 7 959.7 NA 0.0000 -SN BR 0800 260 0 0 0
2017/11/29 07:33:00 BASE 18.13 11 21.92 12 2.3 100 2.3 3 7 959.7 NA 0.2540 -SN BR 0700 200 0 0 0
2017/11/29 07:34:00 BASE 17.96 11 21.45 14 2.3 100 2.3 3 7 959.7 NA 0.2540 SN BR 0550 230 0 0 0
2017/11/29 07:35:00 BASE 16.51 9 21.45 14 2.3 100 2.3 3 7 959.8 NA 0.0000 +SN BR 0800 300 0 0 0
2017/11/29 07:36:00 BASE 16.55 10 21.45 14 2.2 100 2.2 3 6 959.6 NA 0.2540 +SN BR 0800 330 0 0 0
2017/11/29 07:37:00 BASE 17.21 11 21.45 14 2.2 100 2.2 3 5 959.7 NA 0.0000 SN FG 0650 330 0 0 0
2017/11/29 07:38:00 BASE 16.77 9 21.45 14 2.2 100 2.2 3 5 959.7 NA 0.2540 SN FG 0650 300 0 0 0
2017/11/29 07:39:00 BASE 16.51 10 21.45 14 2.1 100 2.1 2 5 959.7 NA 0.0000 SN FG 0650 330 0 0 0
2017/11/29 07:40:00 BASE 16.41 11 21.45 14 2.1 100 2.1 3 6 959.7 NA 0.2540 SN FG 1100 330 0 0 0
2017/11/29 07:41:00 BASE 16.01 10 20.78 13 2.1 100 2.1 3 7 959.7 NA 0.0000 SN FG 0900 360 0 0 0
2017/11/29 07:42:00 BASE 16.08 9 20.47 18 2.1 100 2.1 3 8 959.6 NA 0.0000 SN FG 1100 390 0 0 0
2017/11/29 07:43:00 BASE 16.46 8 20.47 18 2.2 100 2.2 4 10 959.6 NA 0.2540 SN FG 1300 390 0 0 0
2017/11/29 07:44:00 BASE 16.30 7 19.34 8 2.2 100 2.2 4 9 959.6 NA 0.0000 SN FG 1300 390 0 0 0
2017/11/29 07:45:00 BASE 15.98 7 19.34 8 2.2 100 2.2 5 11 959.7 NA 0.0000 SN BR 1500 390 0 0 0
2017/11/29 07:46:00 BASE 16.00 7 18.67 10 2.3 100 2.3 5 13 959.6 NA 0.0000 SN BR 1300 360 0 0 0
2017/11/29 07:47:00 BASE 17.26 6 20.94 2 2.3 100 2.3 6 15 959.5 NA 0.0000 SN BR 1600 360 0 0 0
2017/11/29 07:48:00 BASE 18.43 4 20.94 2 2.3 100 2.3 6 16 959.5 NA 0.2540 -SN BR 1600 360 0 0 0
2017/11/29 07:49:00 BASE 18.85 6 21.71 5 2.4 100 2.4 7 17 959.4 NA 0.0000 -SN BR 1900 360 0 0 0
2017/11/29 07:50:00 BASE 19.43 6 21.71 5 2.4 100 2.4 7 19 959.4 NA 0.0000 -SN BR 1700 360 0 0 0
2017/11/29 07:51:00 BASE 20.22 1 22.12 5 2.4 100 2.4 8 20 959.3 NA 0.0000 -SN BR 1600 360 0 0 0
2017/11/29 07:52:00 BASE 20.13 1 22.12 5 2.4 100 2.4 8 19 959.4 NA 0.0000 -SN BR 1600 360 0 0 0
2017/11/29 07:53:00 BASE 20.16 4 22.53 1 2.5 100 2.5 7 19 959.3 NA 0.2540 -SN BR 1500 330 0 0 0
2017/11/29 07:54:00 BASE 20.56 3 22.53 1 2.5 100 2.5 7 19 959.3 NA 0.0000 -SN BR 2100 330 0 0 0
2017/11/29 07:55:00 BASE 19.39 358 22.53 1 2.5 100 2.5 8 21 959.5 NA 0.0000 -SN BR 2300 330 0 0 0
2017/11/29 07:56:00 BASE 17.57 346 22.53 1 2.5 100 2.5 9 22 959.7 NA 0.0000 -SN BR 2300 300 0 0 0
2017/11/29 07:57:00 BASE 16.80 342 22.53 1 2.4 100 2.4 9 23 959.6 NA 0.0000 -SN BR 5000 260 1350 0 0
2017/11/29 07:58:00 BASE 17.47 350 22.53 1 2.4 100 2.4 9 24 959.5 NA 0.0000 -SN BR 9999 260 1280 0 0
2017/11/29 07:59:00 BASE 17.79 352 22.53 1 2.3 100 2.3 10 25 959.6 NA 0.0000 -SN BR 9999 260 0 0 0
2017/11/29 08:00:00 BASE 16.85 350 22.53 1 2.3 100 2.3 11 28 959.7 NA 0.0000 -SN BR 7000 260 0 0 0
2017/11/29 08:01:00 BASE 15.72 345 22.53 1 2.2 100 2.2 11 29 959.7 NA 0.0000 -SN BR 9999 300 0 0 0
2017/11/29 08:02:00 BASE 16.13 346 22.53 1 2.2 100 2.2 11 29 959.6 NA 0.2540 -SN BR 9999 260 0 0 0
2017/11/29 08:03:00 BASE 17.54 354 21.56 6 2.2 100 2.2 11 28 959.5 NA 0.0000 -SN BR 9999 300 0 0 0
2017/11/29 08:04:00 BASE 18.31 4 20.47 352 2.2 100 2.2 10 28 959.5 NA 0.0000 -SN BR 4300 300 0 0 0
2017/11/29 08:05:00 BASE 18.51 4 21.66 4 2.3 100 2.3 11 29 959.6 NA 0.0000 -SN BR 4900 300 0 0 0
2017/11/29 08:06:00 BASE 18.06 358 21.66 4 2.3 100 2.3 11 30 959.6 NA 0.0000 -SN BR 5000 300 1610 0 0
2017/11/29 08:07:00 BASE 18.44 358 21.66 4 2.3 100 2.3 12 32 959.5 NA 0.0000 -SN BR 8000 300 0 0 0
2017/11/29 08:08:00 BASE 18.11 355 21.66 4 2.3 100 2.3 13 32 959.7 NA 0.0000 -SN BR 4500 260 0 0 0
2017/11/29 08:09:00 BASE 17.13 353 21.66 4 2.3 100 2.3 12 31 959.6 NA 0.0000 -SN BR 6000 260 0 0 0
2017/11/29 08:10:00 BASE 18.10 358 21.66 4 2.3 100 2.3 12 32 959.6 NA 0.0000 -SN BR 9999 260 1440 0 0
2017/11/29 08:11:00 BASE 19.65 2 21.71 3 2.3 100 2.3 13 33 959.5 NA 0.0000 -SN BR 6000 260 0 0 0
2017/11/29 08:12:00 BASE 19.22 359 21.71 3 2.3 100 2.3 13 35 959.6 NA 0.0000 -SN BR 3800 260 0 0 0
2017/11/29 08:13:00 BASE 17.98 354 21.71 3 2.3 100 2.3 14 37 959.6 NA 0.0000 -SN BR 3100 300 0 0 0
2017/11/29 08:14:00 BASE 18.58 357 21.71 3 2.3 100 2.3 14 38 959.6 NA 0.0000 -SN BR 9999 260 0 0 0
2017/11/29 08:15:00 BASE 18.85 359 21.71 3 2.3 100 2.3 15 40 959.6 NA 0.0000 -SN BR 4700 260 1510 0 0
2017/11/29 08:16:00 BASE 18.76 357 21.71 3 2.3 100 2.3 15 39 959.7 NA 0.0000 -SN BR 3800 260 0 0 0
2017/11/29 08:17:00 BASE 18.99 357 21.71 3 2.3 100 2.3 14 38 959.6 NA 0.0000 -SN BR 2900 260 0 0 0
2017/11/29 08:18:00 BASE 18.89 355 21.71 3 2.3 100 2.3 14 38 959.7 NA 0.0000 -SN BR 3800 260 0 0 0
2017/11/29 08:19:00 BASE 19.23 359 22.33 1 2.3 100 2.3 15 41 959.6 NA 0.0000 -SN BR 3600 260 0 0 0
2017/11/29 08:20:00 BASE 19.36 0 22.33 1 2.3 100 2.3 15 40 959.7 NA 0.0000 -SN BR 4500 260 0 0 0
2017/11/29 08:21:00 BASE 18.81 358 22.33 1 2.3 100 2.3 14 38 959.8 NA 0.0000 -SN BR 4600 260 0 0 0
2017/11/29 08:22:00 BASE 17.94 357 22.33 1 2.3 100 2.3 15 40 959.8 NA 0.0000 -SN BR 3400 260 0 0 0
2017/11/29 08:23:00 BASE 17.62 358 22.33 1 2.2 100 2.2 15 40 959.8 NA 0.0000 -SN BR 3100 230 0 0 0
2017/11/29 08:24:00 BASE 18.56 3 22.33 1 2.2 100 2.2 15 40 959.8 NA 0.0000 -SN BR 4600 230 0 0 0
2017/11/29 08:25:00 BASE 18.97 2 22.33 1 2.2 100 2.2 16 43 959.8 NA 0.0000 -SN BR 2900 230 0 0 0
2017/11/29 08:26:00 BASE 18.54 2 22.33 1 2.1 100 2.1 17 46 959.8 NA 0.0000 -SN BR 3600 260 0 0 0
2017/11/29 08:27:00 BASE 18.73 2 22.33 1 2.1 100 2.1 18 47 959.7 NA 0.2540 -SN BR 2500 260 0 0 0
2017/11/29 08:28:00 BASE 19.20 357 22.33 1 2.1 100 2.1 19 52 959.8 NA 0.0000 -SN BR 2500 260 0 0 0
2017/11/29 08:29:00 BASE 19.17 357 21.92 330 2.1 100 2.1 21 56 959.7 NA 0.0000 -SN BR 3500 260 0 0 0
2017/11/29 08:30:00 BASE 19.04 3 21.92 330 2.1 100 2.1 23 60 959.7 NA 0.0000 -SN BR 9999 300 0 0 0
2017/11/29 08:31:00 BASE 19.44 8 21.92 330 2.0 100 2.0 24 64 959.6 NA 0.0000 -SN BR 7000 300 0 0 0
2017/11/29 08:32:00 BASE 19.71 3 21.92 330 2.0 100 2.0 25 66 959.7 NA 0.0000 -SN BR 7000 300 0 0 0
2017/11/29 08:33:00 BASE 19.13 356 21.92 330 2.0 100 2.0 27 71 959.7 NA 0.0000 -SN BR 9999 300 0 0 0
2017/11/29 08:34:00 BASE 18.54 353 21.92 330 2.0 100 2.0 28 72 959.8 NA 0.0000 -SN BR 9999 300 0 0 0
2017/11/29 08:35:00 BASE 18.59 356 21.92 330 2.0 100 2.0 28 74 959.7 NA 0.0000 -SN BR 9999 300 0 0 0
2017/11/29 08:36:00 BASE 19.19 358 21.92 330 2.0 100 2.0 32 82 959.7 NA 0.0000 -SN BR 8000 300 0 0 0
2017/11/29 08:37:00 BASE 18.62 1 21.81 5 2.0 100 2.0 37 92 959.8 NA 0.0000 -SN BR 6000 300 1440 0 0
2017/11/29 08:38:00 BASE 17.41 359 21.81 5 2.0 100 2.0 38 96 959.8 NA 0.0000 -SN BR 9999 300 0 0 0
2017/11/29 08:39:00 BASE 17.24 354 21.81 5 2.0 100 2.0 38 94 959.8 NA 0.0000 -SN BR 9999 300 0 0 0
2017/11/29 08:40:00 BASE 17.87 354 21.81 5 2.0 100 2.0 38 96 959.7 NA 0.0000 -SN 9999 300 1350 0 0
2017/11/29 08:41:00 BASE 17.94 357 20.68 350 2.0 100 2.0 41 101 959.8 NA 0.0000 -SN 9999 300 0 0 0
2017/11/29 08:42:00 BASE 17.86 355 20.83 354 2.0 100 2.0 46 112 959.8 NA 0.0000 -SN 9999 300 0 0 0
2017/11/29 08:43:00 BASE 18.37 352 22.33 349 2.0 100 2.0 53 126 959.8 NA 0.0000 -SN 9999 330 0 0 0
2017/11/29 08:44:00 BASE 18.25 352 22.33 349 2.0 100 2.0 59 139 959.8 NA 0.0000 -SN 9999 300 0 0 0
2017/11/29 08:45:00 BASE 17.67 353 22.33 349 2.0 100 2.0 60 140 959.8 NA 0.0000 -SN 9999 330 0 0 0
2017/11/29 08:46:00 BASE 17.57 358 22.33 349 2.0 100 2.0 57 137 959.8 NA 0.0000 9999 330 0 0 0
2017/11/29 08:47:00 BASE 17.13 353 22.33 349 2.0 100 2.0 62 148 960.0 NA 0.0000 9999 330 0 0 0
2017/11/29 08:48:00 BASE 16.91 349 22.33 349 2.0 100 2.0 66 155 959.9 NA 0.0000 9999 360 0 0 0
2017/11/29 08:49:00 BASE 18.02 352 22.33 349 2.0 100 2.0 67 157 959.8 NA 0.0000 9999 360 0 0 0
2017/11/29 08:50:00 BASE 18.05 353 22.33 349 2.0 100 2.0 73 170 959.8 NA 0.0000 9999 360 0 0 0
2017/11/29 08:51:00 BASE 17.18 354 22.33 349 2.0 100 2.0 72 168 959.9 NA 0.0000 9999 430 0 0 0
2017/11/29 08:52:00 BASE 17.28 353 22.33 349 2.0 100 2.0 68 163 959.9 NA 0.0000 9999 620 0 0 0
2017/11/29 08:53:00 BASE 17.20 349 20.73 330 2.0 100 2.0 69 166 959.9 NA 0.0000 9999 490 0 0 0
2017/11/29 08:54:00 BASE 16.01 349 20.73 330 2.0 100 2.0 76 180 960.0 NA 0.0000 9999 460 0 0 0
2017/11/29 08:55:00 BASE 15.45 349 20.73 330 2.0 100 2.0 77 184 960.0 NA 0.0000 9999 390 0 0 0
2017/11/29 08:56:00 BASE 15.50 350 20.32 1 2.0 100 2.0 84 198 960.1 NA 0.0000 9999 360 0 0 0
2017/11/29 08:57:00 BASE 15.70 351 20.32 1 2.0 100 2.0 85 201 960.0 NA 0.0000 9999 330 0 0 0
2017/11/29 08:58:00 BASE 16.34 349 20.32 1 2.0 100 2.0 89 212 960.0 NA 0.0000 9999 330 0 0 0
2017/11/29 08:59:00 BASE 16.22 348 19.81 345 1.9 100 1.9 94 220 960.1 NA 0.0000 9999 300 1050 0 0
2017/11/29 09:00:00 BASE 15.59 348 19.81 345 1.9 100 1.9 87 207 960.1 NA 0.0000 9999 390 0 0 0
2017/11/29 09:01:00 BASE 15.63 348 19.81 345 1.9 100 1.9 79 191 960.1 NA 0.0000 9999 390 0 0 0
2017/11/29 09:02:00 BASE 15.83 348 18.01 352 1.9 100 1.9 75 183 960.1 NA 0.0000 9999 430 0 0 0
2017/11/29 09:03:00 BASE 16.30 346 17.65 346 1.9 100 1.9 75 184 960.0 NA 0.0000 9999 390 0 0 0
2017/11/29 09:04:00 BASE 16.27 347 17.65 346 1.9 100 1.9 76 186 960.1 NA 0.0000 9999 390 0 0 0
2017/11/29 09:05:00 BASE 15.42 347 17.65 346 1.9 100 1.9 73 181 960.2 NA 0.0000 9999 360 0 0 0
2017/11/29 09:06:00 BASE 15.40 345 17.65 346 1.9 100 1.9 76 188 960.1 NA 0.0000 9999 360 0 0 0
2017/11/29 09:07:00 BASE 15.68 348 17.65 346 1.9 100 1.9 77 190 960.1 NA 0.0000 9999 360 0 0 0
2017/11/29 09:08:00 BASE 15.84 347 17.65 346 1.9 100 1.9 79 193 960.1 NA 0.0000 9999 360 0 0 0
2017/11/29 09:09:00 BASE 15.28 347 17.49 351 1.9 100 1.9 77 190 960.2 NA 0.0000 9999 360 0 0 0
2017/11/29 09:10:00 BASE 14.72 352 17.49 351 1.9 100 1.9 76 189 960.2 NA 0.0000 9999 360 0 0 0
2017/11/29 09:11:00 BASE 15.10 348 17.49 351 1.9 100 1.9 78 193 960.1 NA 0.0000 9999 330 0 0 0
2017/11/29 09:12:00 BASE 15.05 344 17.49 351 1.8 100 1.8 74 184 960.2 NA 0.0000 9999 330 2030 0 0
2017/11/29 09:13:00 BASE 14.47 345 17.29 347 1.8 100 1.8 71 177 960.2 NA 0.0000 9999 330 0 0 0
2017/11/29 09:14:00 BASE 14.07 347 17.29 347 1.8 100 1.8 67 170 960.2 NA 0.0000 9999 330 0 0 0
2017/11/29 09:15:00 BASE 14.13 350 17.29 347 1.8 100 1.8 64 163 960.3 NA 0.0000 9999 330 1440 0 0
2017/11/29 09:16:00 BASE 14.01 349 16.82 347 1.8 100 1.8 64 162 960.3 NA 0.0000 9999 330 0 0 0
2017/11/29 09:17:00 BASE 13.06 348 16.82 347 1.7 100 1.7 67 170 960.3 NA 0.0000 9999 330 1640 0 0
2017/11/29 09:18:00 BASE 13.59 349 16.67 352 1.7 100 1.7 72 183 960.2 NA 0.0000 9999 330 0 0 0
2017/11/29 09:19:00 BASE 14.97 354 16.67 352 1.7 100 1.7 81 200 960.1 NA 0.0000 9999 330 0 0 0
2017/11/29 09:20:00 BASE 14.36 355 16.67 352 1.7 100 1.7 84 208 960.2 NA 0.0000 9999 360 0 0 0
2017/11/29 09:21:00 BASE 14.17 353 16.67 352 1.7 100 1.7 88 216 960.1 NA 0.0000 9999 360 0 0 0
2017/11/29 09:22:00 BASE 14.68 353 16.67 352 1.8 100 1.8 88 214 960.1 NA 0.0000 9999 390 0 0 0
2017/11/29 09:23:00 BASE 14.76 353 16.67 352 1.8 100 1.8 82 203 960.1 NA 0.0000 9999 360 0 0 0
2017/11/29 09:24:00 BASE 15.06 356 16.67 352 1.8 100 1.8 76 190 960.1 NA 0.0000 9999 390 0 0 0
2017/11/29 09:25:00 BASE 14.68 352 16.67 352 1.8 100 1.8 67 171 960.2 NA 0.0000 9999 430 0 0 0
2017/11/29 09:26:00 BASE 14.26 347 16.67 352 1.8 100 1.8 64 164 960.2 NA 0.0000 9999 430 0 0 0
2017/11/29 09:27:00 BASE 14.40 350 16.67 352 1.8 100 1.8 63 162 960.2 NA 0.0000 9999 460 0 0 0
2017/11/29 09:28:00 BASE 14.14 352 16.51 348 1.8 100 1.8 62 159 960.2 NA 0.0000 9999 460 0 0 0
2017/11/29 09:29:00 BASE 14.00 351 16.05 351 1.9 100 1.9 60 156 960.3 NA 0.0000 9999 460 0 0 0
2017/11/29 09:30:00 BASE 14.04 350 16.05 351 1.9 100 1.9 60 157 960.3 NA 0.0000 9999 430 0 0 0
2017/11/29 09:31:00 BASE 13.85 352 16.05 351 1.9 100 1.9 63 164 960.3 NA 0.0000 9999 430 0 0 0
2017/11/29 09:32:00 BASE 14.48 356 16.77 349 1.9 100 1.9 66 172 960.2 NA 0.0000 9999 390 0 0 0
2017/11/29 09:33:00 BASE 15.15 355 16.77 349 1.9 100 1.9 67 173 960.2 NA 0.0000 9999 430 0 0 0
2017/11/29 09:34:00 BASE 15.17 352 16.77 349 1.9 100 1.9 67 172 960.2 NA 0.0000 9999 390 0 0 0
2017/11/29 09:35:00 BASE 14.71 350 16.77 349 1.9 100 1.9 66 170 960.3 NA 0.0000 9999 390 0 0 0
2017/11/29 09:36:00 BASE 14.04 349 16.77 349 1.9 100 1.9 62 162 960.3 NA 0.0000 9999 360 0 0 0
2017/11/29 09:37:00 BASE 13.74 348 16.77 349 1.9 100 1.9 58 152 960.3 NA 0.0000 9999 390 0 0 0
2017/11/29 09:38:00 BASE 13.93 349 16.77 349 1.9 100 1.9 53 141 960.4 NA 0.0000 9999 390 0 0 0
2017/11/29 09:39:00 BASE 13.95 349 16.77 349 1.9 100 1.9 48 129 960.4 NA 0.0000 9999 390 0 0 0
2017/11/29 09:40:00 BASE 13.78 346 16.77 349 1.9 100 1.9 43 117 960.4 NA 0.0000 9999 430 0 0 0
2017/11/29 09:41:00 BASE 13.99 345 16.77 349 1.9 100 1.9 39 109 960.4 NA 0.0000 9999 430 0 0 0
2017/11/29 09:42:00 BASE 13.81 346 16.67 354 1.9 100 1.9 35 99 960.4 NA 0.0000 9999 430 0 0 0
2017/11/29 09:43:00 BASE 13.92 346 16.31 353 1.9 100 1.9 33 95 960.4 NA 0.0000 9999 390 0 0 0
2017/11/29 09:44:00 BASE 14.35 347 15.90 360 1.9 100 1.9 34 98 960.4 NA 0.0000 9999 460 0 0 0
2017/11/29 09:45:00 BASE 14.75 349 16.41 348 1.9 100 1.9 39 113 960.4 NA 0.0000 9999 390 0 0 0
2017/11/29 09:46:00 BASE 14.68 350 16.41 348 1.9 100 1.9 48 134 960.4 NA 0.0000 9999 390 0 0 0
2017/11/29 09:47:00 BASE 14.04 350 16.41 348 1.9 100 1.9 58 157 960.4 NA 0.0000 9999 360 0 0 0
2017/11/29 09:48:00 BASE 14.11 350 16.41 348 1.9 100 1.9 70 185 960.4 NA 0.0000 9999 390 1770 0 0
2017/11/29 09:49:00 BASE 14.28 354 16.41 348 1.9 100 1.9 86 221 960.4 NA 0.0000 9999 430 0 0 0
2017/11/29 09:50:00 BASE 14.21 354 16.41 348 1.9 100 1.9 105 264 960.5 NA 0.0000 9999 430 0 0 0
2017/11/29 09:51:00 BASE 14.03 349 16.41 348 1.9 100 1.9 129 317 960.5 NA 0.0000 9999 430 0 0 0
2017/11/29 09:52:00 BASE 13.48 347 16.41 348 1.9 100 1.9 164 394 960.6 NA 0.0000 9999 1800 16630 0 0
2017/11/29 09:53:00 BASE 13.31 347 16.41 348 1.9 100 1.9 203 479 960.6 NA 0.0000 9999 1900 0 0 0
2017/11/29 09:54:00 BASE 13.07 347 16.41 348 1.9 100 1.9 231 535 960.6 NA 0.0000 9999 1800 0 0 0
2017/11/29 09:55:00 BASE 12.90 348 16.05 350 1.9 100 1.9 238 553 960.7 NA 0.0000 9999 2130 0 0 0
2017/11/29 09:56:00 BASE 12.69 347 16.05 350 1.9 100 1.9 212 504 960.7 NA 0.0000 9999 2130 0 0 0
2017/11/29 09:57:00 BASE 13.06 344 16.05 350 1.9 100 1.9 170 419 960.7 NA 0.0000 9999 1770 0 0 0
2017/11/29 09:58:00 BASE 13.45 342 16.05 350 1.9 100 1.9 138 352 960.7 NA 0.0000 9999 1840 0 0 0
2017/11/29 09:59:00 BASE 12.89 341 16.05 350 1.9 100 1.9 127 330 960.7 NA 0.0000 9999 1870 0 0 0
2017/11/29 10:00:00 BASE 13.22 341 14.92 345 1.9 100 1.9 136 348 960.6 NA 0.0000 9999 490 0 0 0
2017/11/29 10:01:00 BASE 13.37 344 14.97 354 2.0 100 2.0 151 380 960.7 NA 0.0000 9999 430 0 0 0
2017/11/29 10:02:00 BASE 12.76 345 14.97 354 2.0 100 2.0 162 402 960.7 NA 0.0000 9999 390 0 0 0
2017/11/29 10:03:00 BASE 13.06 343 14.97 354 1.9 100 1.9 174 428 960.6 NA 0.0000 9999 22770 0 0 0
2017/11/29 10:04:00 BASE 13.14 342 15.28 349 1.9 100 1.9 187 459 960.7 NA 0.0000 9999 0 0 0 5220
2017/11/29 10:05:00 BASE 12.70 344 15.28 349 1.9 100 1.9 200 491 960.7 NA 0.0000 9999 430 0 0 0
2017/11/29 10:06:00 BASE 12.66 345 15.28 349 1.8 100 1.8 211 519 960.7 NA 0.0000 9999 0 0 0 4100
2017/11/29 10:07:00 BASE 12.91 344 15.28 349 1.8 100 1.8 208 520 960.7 NA 0.0000 9999 2030 0 0 0
2017/11/29 10:08:00 BASE 13.17 343 15.28 349 1.9 100 1.9 195 496 960.7 NA 0.0000 9999 2130 0 0 0
2017/11/29 10:09:00 BASE 12.80 342 15.28 349 1.9 100 1.9 176 456 960.8 NA 0.0000 9999 2170 0 0 0
2017/11/29 10:10:00 BASE 12.63 342 15.28 349 1.9 100 1.9 163 431 960.8 NA 0.0000 9999 2100 0 0 0
2017/11/29 10:11:00 BASE 12.86 343 15.28 349 1.9 100 1.9 153 411 960.8 NA 0.0000 9999 5410 0 0 0
2017/11/29 10:12:00 BASE 13.20 343 15.28 349 1.9 100 1.9 147 396 960.8 NA 0.0000 9999 5280 0 0 0
2017/11/29 10:13:00 BASE 13.38 343 15.28 349 1.9 100 1.9 140 379 960.9 NA 0.0000 9999 4720 0 0 0
2017/11/29 10:14:00 BASE 13.44 345 14.97 347 1.9 100 1.9 135 367 960.9 NA 0.0000 9999 4790 0 0 0
2017/11/29 10:15:00 BASE 13.62 343 14.97 347 1.9 100 1.9 130 357 960.9 NA 0.0000 9999 5050 0 0 0
2017/11/29 10:16:00 BASE 12.96 340 14.97 347 1.9 100 1.9 125 340 961.0 NA 0.0000 9999 5120 0 0 0
2017/11/29 10:17:00 BASE 12.95 341 15.74 349 1.9 100 1.9 117 324 961.0 NA 0.0000 9999 4990 0 0 0
2017/11/29 10:18:00 BASE 13.79 342 15.74 349 1.9 100 1.9 108 301 961.0 NA 0.0000 9999 0 0 0 5320
2017/11/29 10:19:00 BASE 13.89 342 15.74 349 1.9 100 1.9 98 276 961.1 NA 0.0000 9999 0 0 0 5050
2017/11/29 10:20:00 BASE 13.64 341 15.74 349 1.9 100 1.9 88 250 961.1 NA 0.0000 9999 0 0 0 4630
2017/11/29 10:21:00 BASE 13.62 343 15.74 349 1.9 100 1.9 77 225 961.1 NA 0.0000 9999 0 0 0 3740
2017/11/29 10:22:00 BASE 13.66 344 15.74 349 1.9 100 1.9 69 202 961.2 NA 0.0000 9999 1280 0 0 0
2017/11/29 10:23:00 BASE 14.01 344 16.20 345 1.9 100 1.9 62 184 961.2 NA 0.0000 9999 0 0 0 3280
2017/11/29 10:24:00 BASE 13.41 346 16.20 345 1.8 100 1.8 56 168 961.3 NA 0.0000 9999 690 0 0 0
2017/11/29 10:25:00 BASE 12.46 344 16.20 345 1.8 100 1.8 51 154 961.4 NA 0.0000 9999 490 0 0 0
2017/11/29 10:26:00 BASE 12.40 342 16.20 345 1.8 100 1.8 46 141 961.4 NA 0.0000 9999 0 0 0 2430
2017/11/29 10:27:00 BASE 12.72 345 16.20 345 1.7 100 1.7 41 125 961.4 NA 0.0000 9999 430 0 0 0
2017/11/29 10:28:00 BASE 13.54 344 16.20 345 1.7 100 1.7 35 109 961.4 NA 0.0000 9999 330 0 0 0
2017/11/29 10:29:00 BASE 13.45 344 16.20 345 1.7 100 1.7 34 105 961.5 NA 0.0000 9999 260 0 0 0
2017/11/29 10:30:00 BASE 12.91 347 16.20 345 1.6 100 1.6 32 97 961.5 NA 0.0000 9999 260 0 0 0
2017/11/29 10:31:00 BASE 12.27 347 16.20 345 1.6 100 1.6 30 92 961.6 NA 0.0000 9999 300 0 0 0
2017/11/29 10:32:00 BASE 11.96 344 16.20 345 1.6 100 1.6 28 86 961.6 NA 0.0000 9999 300 0 0 0
2017/11/29 10:33:00 BASE 12.68 345 15.28 343 1.5 100 1.5 26 82 961.6 NA 0.0000 UP 9999 300 0 0 0
2017/11/29 10:34:00 BASE 13.04 347 15.28 343 1.5 100 1.5 26 82 961.6 NA 0.0000 UP 9999 260 0 0 0
2017/11/29 10:35:00 BASE 12.45 347 15.28 343 1.4 100 1.4 26 81 961.7 NA 0.0000 UP 9999 260 0 0 0
2017/11/29 10:36:00 BASE 12.53 345 15.28 343 1.4 100 1.4 26 81 961.7 NA 0.0000 UP 9999 300 0 0 0
2017/11/29 10:37:00 BASE 13.24 345 15.28 343 1.3 100 1.3 27 81 961.7 NA 0.0000 UP 9999 230 0 0 0
2017/11/29 10:38:00 BASE 13.41 349 15.33 353 1.3 100 1.3 29 86 961.8 NA 0.0000 UP 9000 230 0 0 0
2017/11/29 10:39:00 BASE 13.21 349 15.33 353 1.2 100 1.2 30 89 961.8 NA 0.2540 UP 5000 260 0 0 0
2017/11/29 10:40:00 BASE 12.69 344 15.33 353 1.2 100 1.2 31 94 961.9 NA 0.0000 -SN 9999 230 0 0 0
2017/11/29 10:41:00 BASE 11.74 341 15.33 353 1.1 100 1.1 35 104 962.0 NA 0.0000 -SN 9999 0 0 0 890
2017/11/29 10:42:00 BASE 11.19 341 15.33 353 1.1 100 1.1 37 110 962.0 NA 0.0000 -SN 9999 0 0 0 890
2017/11/29 10:43:00 BASE 11.13 342 15.33 353 1.0 100 1.0 39 113 962.1 NA 0.0000 -SN 9999 260 0 0 0
2017/11/29 10:44:00 BASE 11.15 341 15.33 353 1.0 100 1.0 41 118 962.0 NA 0.0000 -SN 9999 200 0 0 0
2017/11/29 10:45:00 BASE 11.42 343 15.33 353 1.0 100 1.0 42 122 962.1 NA 0.0000 -SN 9999 200 0 0 0
2017/11/29 10:46:00 BASE 11.24 345 15.33 353 0.9 100 0.9 44 127 962.2 NA 0.0000 -SN 9999 230 0 0 0
2017/11/29 10:47:00 BASE 10.77 345 15.33 353 0.9 100 0.9 46 131 962.3 NA 0.0000 -SN 9999 200 0 0 0
2017/11/29 10:48:00 BASE 11.29 345 13.84 348 0.9 100 0.9 47 135 962.2 NA 0.2540 -SN 9999 160 0 0 0
2017/11/29 10:49:00 BASE 11.50 345 13.48 347 0.9 100 0.9 51 146 962.3 NA 0.0000 -SN 9999 0 0 0 1020
2017/11/29 10:50:00 BASE 10.83 342 13.48 347 0.9 100 0.9 50 145 962.3 NA 0.0000 -SN 9999 200 0 0 0
2017/11/29 10:51:00 BASE 10.38 341 13.48 347 0.9 100 0.9 48 139 962.3 NA 0.0000 -SN 9999 230 0 0 0
2017/11/29 10:52:00 BASE 10.20 343 13.48 347 0.9 100 0.9 50 142 962.4 NA 0.0000 -SN 9999 200 0 0 0
2017/11/29 10:53:00 BASE 10.56 343 13.48 347 0.8 100 0.8 52 147 962.4 NA 0.0000 -SN 9999 200 0 0 0
2017/11/29 10:54:00 BASE 10.80 343 13.48 347 0.8 100 0.8 54 153 962.4 NA 0.0000 -SN 9999 200 0 0 0
2017/11/29 10:55:00 BASE 10.57 341 13.48 347 0.8 100 0.8 53 150 962.5 NA 0.2540 -SN 9999 0 0 0 980
2017/11/29 10:56:00 BASE 10.62 339 13.48 347 0.8 100 0.8 52 149 962.5 NA 0.0000 -SN 9999 0 0 0 920
2017/11/29 10:57:00 BASE 10.17 338 13.48 347 0.8 100 0.8 51 145 962.6 NA 0.0000 -SN 9999 0 0 0 850
2017/11/29 10:58:00 BASE 9.63 337 12.14 337 0.8 100 0.8 49 141 962.6 NA 0.0000 -SN 9999 0 0 0 850
2017/11/29 10:59:00 BASE 9.45 335 12.14 337 0.8 100 0.8 47 135 962.8 NA 0.0000 -SN 9999 0 0 0 890
2017/11/29 11:00:00 BASE 9.53 334 11.99 346 0.8 100 0.8 47 133 962.8 NA 0.0000 -SN 9999 0 0 0 850
2017/11/29 11:01:00 BASE 9.49 335 11.99 346 0.7 100 0.7 47 135 962.8 NA 0.0000 -SN 9999 0 0 0 820
2017/11/29 11:02:00 BASE 9.42 334 11.99 346 0.7 100 0.7 49 139 962.9 NA 0.0000 -SN 9999 0 0 0 920
2017/11/29 11:03:00 BASE 9.36 332 11.99 346 0.7 100 0.7 51 144 962.9 NA 0.0000 -SN 9999 0 0 0 1020
2017/11/29 11:04:00 BASE 8.66 330 11.99 346 0.7 100 0.7 52 146 963.0 NA 0.0000 -SN 9999 0 0 0 1120
2017/11/29 11:05:00 BASE 8.52 331 11.99 346 0.7 100 0.7 55 153 963.1 NA 0.0000 -SN 9999 0 0 0 1250
2017/11/29 11:06:00 BASE 8.90 332 10.96 327 0.6 100 0.6 56 156 963.1 NA 0.0000 -SN 9999 0 0 0 1280
2017/11/29 11:07:00 BASE 9.01 333 10.96 327 0.6 100 0.6 58 160 963.1 NA 0.0000 -SN 9999 0 0 0 1250
2017/11/29 11:08:00 BASE 8.88 332 10.96 327 0.6 100 0.6 60 166 963.1 NA 0.0000 -SN 9999 0 0 0 1740
2017/11/29 11:09:00 BASE 9.36 334 10.96 327 0.6 100 0.6 63 173 963.1 NA 0.0000 -SN 9999 0 0 0 1710
2017/11/29 11:10:00 BASE 9.59 338 10.96 327 0.6 100 0.6 64 174 963.1 NA 0.0000 -SN 9999 0 0 0 1640
2017/11/29 11:11:00 BASE 9.24 338 10.96 327 0.6 100 0.6 65 179 963.2 NA 0.0000 -SN 9999 0 0 0 1610
2017/11/29 11:12:00 BASE 9.24 336 10.80 339 0.6 100 0.6 67 184 963.2 NA 0.0000 -SN 9999 0 0 0 1440
2017/11/29 11:13:00 BASE 9.79 336 10.91 338 0.6 100 0.6 71 194 963.2 NA 0.0000 -SN 9999 0 0 0 1350
2017/11/29 11:14:00 BASE 10.01 333 10.91 329 0.6 100 0.6 73 200 963.3 NA 0.0000 -SN 9999 0 0 0 1380
2017/11/29 11:15:00 BASE 9.71 329 10.91 329 0.6 100 0.6 74 203 963.4 NA 0.0000 -SN 9999 0 0 0 1250
2017/11/29 11:16:00 BASE 9.69 330 11.47 333 0.6 100 0.6 73 202 963.4 NA 0.0000 -SN 9999 0 0 0 1180
2017/11/29 11:17:00 BASE 10.27 331 11.73 333 0.6 100 0.6 71 197 963.4 NA 0.0000 -SN 9999 0 0 0 1150
2017/11/29 11:18:00 BASE 10.40 331 11.73 333 0.5 100 0.5 68 192 963.4 NA 0.0000 -SN 9999 0 0 0 1150
2017/11/29 11:19:00 BASE 9.91 331 11.73 333 0.5 100 0.5 65 184 963.5 NA 0.0000 -SN 9999 0 0 0 1210
2017/11/29 11:20:00 BASE 9.03 333 11.73 333 0.5 100 0.5 63 178 963.6 NA 0.2540 -SN 9999 0 0 0 1310
2017/11/29 11:21:00 BASE 8.64 334 11.73 333 0.5 100 0.5 61 175 963.7 NA 0.0000 -SN 9999 0 0 0 1310
2017/11/29 11:22:00 BASE 9.18 333 11.73 333 0.5 100 0.5 62 176 963.6 NA 0.0000 -SN 9999 0 0 0 1280
2017/11/29 11:23:00 BASE 9.22 331 11.73 333 0.5 100 0.5 61 174 963.7 NA 0.0000 -SN 9999 0 0 0 1210
2017/11/29 11:24:00 BASE 9.17 329 11.73 333 0.5 100 0.5 62 176 963.8 NA 0.0000 -SN 9999 0 0 0 1150
2017/11/29 11:25:00 BASE 8.94 330 11.73 333 0.5 100 0.5 62 178 963.8 NA 0.0000 -SN 9999 0 0 0 1210
2017/11/29 11:26:00 BASE 8.74 331 11.73 333 0.5 100 0.5 66 187 963.9 NA 0.0000 -SN 9999 0 0 0 1150
2017/11/29 11:27:00 BASE 9.57 330 11.32 335 0.5 100 0.5 64 184 963.8 NA 0.0000 -SN 9999 0 0 0 1380
2017/11/29 11:28:00 BASE 9.80 330 11.27 319 0.5 100 0.5 65 186 963.9 NA 0.0000 -SN 9999 0 0 0 1150
2017/11/29 11:29:00 BASE 9.85 329 11.32 326 0.5 100 0.5 65 186 963.9 NA 0.0000 -SN 9999 0 0 0 1310
2017/11/29 11:30:00 BASE 10.20 326 11.32 326 0.4 100 0.4 63 182 964.0 NA 0.0000 -SN 9999 0 0 0 1380
2017/11/29 11:31:00 BASE 9.90 325 11.32 326 0.4 100 0.4 60 174 964.0 NA 0.0000 -SN 9999 0 0 0 1510
2017/11/29 11:32:00 BASE 9.69 327 11.32 326 0.4 100 0.4 57 165 964.1 NA 0.0000 -SN 9999 0 0 0 1410
2017/11/29 11:33:00 BASE 9.25 329 11.32 326 0.4 100 0.4 55 159 964.2 NA 0.0000 -SN 9999 0 0 0 1280
2017/11/29 11:34:00 BASE 8.96 327 11.32 326 0.4 100 0.4 57 164 964.3 NA 0.0000 -SN 9999 0 0 0 1150
2017/11/29 11:35:00 BASE 9.23 326 11.32 326 0.4 100 0.4 58 167 964.3 NA 0.0000 -SN 9999 0 0 0 1440
2017/11/29 11:36:00 BASE 9.36 325 11.32 326 0.4 100 0.4 60 171 964.3 NA 0.0000 -SN 9999 0 0 0 1380
2017/11/29 11:37:00 BASE 9.23 324 11.32 326 0.3 100 0.3 61 174 964.4 NA 0.0000 -SN 9999 0 0 0 1480
2017/11/29 11:38:00 BASE 9.04 322 11.32 326 0.3 100 0.3 61 173 964.5 NA 0.0000 -SN 9999 0 0 0 1440
2017/11/29 11:39:00 BASE 9.20 318 10.91 329 0.3 100 0.3 60 173 964.5 NA 0.0000 -SN 9999 0 0 0 1350
2017/11/29 11:40:00 BASE 9.19 319 10.91 329 0.3 100 0.3 61 174 964.6 NA 0.0000 -SN 9999 0 0 0 1380
2017/11/29 11:41:00 BASE 9.55 318 11.01 315 0.3 100 0.3 60 173 964.5 NA 0.2540 -SN 9999 0 0 0 1380
2017/11/29 11:42:00 BASE 10.23 311 11.11 311 0.3 100 0.3 60 173 964.6 NA 0.0000 -SN 9000 0 0 0 1280
2017/11/29 11:43:00 BASE 10.32 309 11.37 312 0.3 100 0.3 58 167 964.6 NA 0.0000 -SN BR 5000 0 0 0 1440
2017/11/29 11:44:00 BASE 10.14 314 12.19 321 0.4 100 0.4 57 166 964.6 NA 0.0000 -SN BR 6000 0 0 0 1310
2017/11/29 11:45:00 BASE 10.36 318 12.24 309 0.4 100 0.4 57 165 964.6 NA 0.0000 -SN BR 7000 0 0 0 1510
2017/11/29 11:46:00 BASE 10.66 317 12.24 309 0.4 100 0.4 56 163 964.7 NA 0.0000 -SN BR 7000 0 0 0 1410
2017/11/29 11:47:00 BASE 10.23 317 12.24 309 0.4 100 0.4 57 166 964.8 NA 0.0000 -SN BR 9000 0 0 0 1250
2017/11/29 11:48:00 BASE 10.01 313 12.24 309 0.3 100 0.3 60 172 964.9 NA 0.0000 -SN BR 7000 0 0 0 1280
2017/11/29 11:49:00 BASE 10.11 312 12.24 309 0.3 100 0.3 63 183 964.9 NA 0.0000 -SN BR 6000 0 0 0 1350
2017/11/29 11:50:00 BASE 10.36 314 12.24 309 0.3 100 0.3 66 191 964.9 NA 0.0000 -SN BR 6000 0 0 0 1440
2017/11/29 11:51:00 BASE 11.06 315 12.35 307 0.3 100 0.3 66 191 964.8 NA 0.2540 -SN BR 7000 0 0 0 1350
2017/11/29 11:52:00 BASE 11.39 314 12.35 307 0.3 100 0.3 63 185 965.0 NA 0.0000 -SN BR 6000 0 0 0 1410
2017/11/29 11:53:00 BASE 11.12 315 12.35 307 0.3 100 0.3 63 184 965.1 NA 0.0000 -SN BR 5000 0 0 0 1280
2017/11/29 11:54:00 BASE 11.28 314 12.35 307 0.3 100 0.3 61 181 965.1 NA 0.0000 -SN BR 5000 0 0 0 1250
2017/11/29 11:55:00 BASE 11.56 313 13.12 316 0.3 100 0.3 64 190 965.1 NA 0.0000 -SN BR 4800 0 0 0 1180
2017/11/29 11:56:00 BASE 11.57 314 13.12 316 0.3 100 0.3 68 199 965.2 NA 0.0000 -SN BR 5000 0 0 0 1180
2017/11/29 11:57:00 BASE 11.01 316 13.12 316 0.3 100 0.3 69 204 965.3 NA 0.0000 -SN BR 5000 0 0 0 1310
2017/11/29 11:58:00 BASE 10.76 315 13.12 316 0.3 100 0.3 68 202 965.3 NA 0.0000 -SN BR 5000 0 0 0 1180
2017/11/29 11:59:00 BASE 10.86 312 13.12 316 0.2 100 0.2 66 198 965.4 NA 0.2540 -SN BR 4700 0 0 0 1210
2017/11/29 12:00:00 BASE 11.24 312 13.12 316 0.2 100 0.2 65 198 965.4 NA 0.0000 -SN BR 4700 0 0 0 1350
2017/11/29 12:01:00 BASE 11.26 313 13.12 316 0.2 100 0.2 60 182 965.5 NA 0.0000 -SN BR 5000 0 0 0 1250
2017/11/29 12:02:00 BASE 11.23 313 13.12 316 0.2 100 0.2 57 173 965.5 NA 0.0000 -SN BR 4800 0 0 0 1080
2017/11/29 12:03:00 BASE 12.32 313 14.15 311 0.2 100 0.2 59 178 965.4 NA 0.0000 -SN BR 3500 0 0 0 950
2017/11/29 12:04:00 BASE 12.15 311 14.15 311 0.2 100 0.2 62 188 965.6 NA 0.0000 -SN BR 3700 0 0 0 1180
2017/11/29 12:05:00 BASE 11.08 310 14.15 311 0.1 100 0.1 62 189 965.7 NA 0.0000 -SN BR 4100 0 0 0 1210
2017/11/29 12:06:00 BASE 10.98 312 14.15 311 0.1 100 0.1 61 184 965.7 NA 0.2540 -SN BR 4700 0 0 0 1210
2017/11/29 12:07:00 BASE 11.12 312 14.15 311 0.1 100 0.1 59 178 965.8 NA 0.0000 -SN BR 4600 0 0 0 1210
2017/11/29 12:08:00 BASE 11.68 312 14.15 311 0.1 100 0.1 59 179 965.7 NA 0.0000 -SN BR 5000 0 0 0 1250
2017/11/29 12:09:00 BASE 11.49 313 14.15 311 0.1 100 0.1 59 178 965.9 NA 0.0000 -SN BR 4800 0 0 0 1210
2017/11/29 12:10:00 BASE 10.93 314 14.15 311 0.1 100 0.1 59 179 965.9 NA 0.0000 -SN BR 4900 0 0 0 1250
2017/11/29 12:11:00 BASE 10.83 313 14.15 311 0.1 100 0.1 60 183 966.0 NA 0.0000 -SN BR 4100 0 0 0 1120
2017/11/29 12:12:00 BASE 10.92 312 14.15 311 0.0 100 0.0 59 179 966.0 NA 0.0000 -SN BR 4700 0 0 0 1210
2017/11/29 12:13:00 BASE 11.57 314 13.02 307 0.0 100 0.0 57 175 966.0 NA 0.0000 -SN BR 4700 0 0 0 1210
2017/11/29 12:14:00 BASE 11.57 316 12.91 316 0.0 100 0.0 53 166 966.1 NA 0.0000 -SN BR 4300 0 0 0 1080
2017/11/29 12:15:00 BASE 10.85 318 12.91 316 0.0 100 0.0 51 163 966.2 NA 0.0000 -SN BR 3700 0 0 0 1120
2017/11/29 12:16:00 BASE 10.37 315 12.91 316 0.0 100 0.0 51 164 966.3 NA 0.2540 -SN BR 4800 0 0 0 1120
2017/11/29 12:17:00 BASE 10.83 312 12.91 316 -0.0 100 -0.0 51 163 966.3 NA 0.0000 -SN BR 4700 0 0 0 1310
2017/11/29 12:18:00 BASE 10.92 312 12.86 313 -0.0 100 -0.0 50 163 966.4 NA 0.0000 -SN BR 4600 0 0 0 1210
2017/11/29 12:19:00 BASE 10.86 311 12.86 313 -0.1 100 -0.1 48 157 966.4 NA 0.0000 -SN BR 4600 0 0 0 1310
2017/11/29 12:20:00 BASE 11.52 312 12.91 306 -0.1 100 -0.1 46 143 966.4 NA 0.0000 -SN BR 3500 0 0 0 1210
2017/11/29 12:21:00 BASE 11.46 313 12.91 306 -0.1 100 -0.1 42 138 966.5 NA 0.0000 -SN BR 3900 0 0 0 1150
2017/11/29 12:22:00 BASE 10.93 312 12.91 306 -0.1 100 -0.1 42 138 966.7 NA 0.0000 -SN BR 3900 0 0 0 980
2017/11/29 12:23:00 BASE 10.65 313 12.91 306 -0.1 100 -0.1 42 140 966.7 NA 0.0000 -SN BR 3900 0 0 0 980
2017/11/29 12:24:00 BASE 10.26 314 12.91 306 -0.1 100 -0.1 43 142 966.8 NA 0.0000 -SN BR 3400 0 0 0 1080
2017/11/29 12:25:00 BASE 9.93 314 12.91 306 -0.2 100 -0.2 44 144 966.8 NA 0.0000 -SN BR 4000 0 0 0 980
2017/11/29 12:26:00 BASE 9.86 315 12.91 306 -0.2 100 -0.2 45 146 966.9 NA 0.0000 -SN BR 4000 0 0 0 1020
2017/11/29 12:27:00 BASE 10.09 315 12.91 306 -0.2 100 -0.2 45 148 966.9 NA 0.0000 -SN BR 3800 0 0 0 1020
2017/11/29 12:28:00 BASE 10.36 313 12.91 306 -0.2 100 -0.2 46 151 966.9 NA 0.0000 -SN BR 3500 0 0 0 1020
2017/11/29 12:29:00 BASE 10.01 313 12.91 306 -0.2 100 -0.2 47 152 967.0 NA 0.0000 -SN BR 3900 0 0 0 980
2017/11/29 12:30:00 BASE 9.76 313 11.63 312 -0.2 100 -0.2 47 154 967.1 NA 0.0000 -SN BR 3800 0 0 0 1150
2017/11/29 12:31:00 BASE 10.02 312 11.63 312 -0.2 100 -0.2 47 152 967.1 NA 0.0000 -SN BR 3700 0 0 0 1020
2017/11/29 12:32:00 BASE 10.89 313 12.60 308 -0.2 100 -0.2 47 152 967.1 NA 0.0000 -SN BR 3700 0 0 0 980
2017/11/29 12:33:00 BASE 11.23 315 12.60 308 -0.2 100 -0.2 47 152 967.2 NA 0.0000 -SN BR 3600 0 0 0 890
2017/11/29 12:34:00 BASE 11.26 315 12.60 308 -0.2 100 -0.2 48 155 967.2 NA 0.0000 BR 3500 0 0 0 920
2017/11/29 12:35:00 BASE 11.52 314 12.60 308 -0.2 100 -0.2 48 155 966.7 NA 0.0000 BR 3500 0 0 0 1020
2017/11/29 12:36:00 BASE 11.11 315 12.60 308 -0.3 100 -0.3 46 150 967.3 NA 0.0000 BR 3400 0 0 0 1150
2017/11/29 12:37:00 BASE 10.38 315 12.60 308 -0.3 100 -0.3 47 153 967.5 NA 0.0000 BR 3400 0 0 0 850
2017/11/29 12:38:00 BASE 10.09 313 12.60 308 -0.3 100 -0.3 46 151 967.5 NA 0.0000 BR 3300 0 0 0 980
2017/11/29 12:39:00 BASE 10.53 311 12.60 308 -0.3 100 -0.3 46 150 967.5 NA 0.0000 BR 3300 0 0 0 950
2017/11/29 12:40:00 BASE 10.80 310 12.60 308 -0.3 100 -0.3 47 154 967.5 NA 0.0000 BR 3300 0 0 0 920
2017/11/29 12:41:00 BASE 10.57 310 12.60 308 -0.3 100 -0.3 46 152 967.6 NA 0.0000 BR 3200 0 0 0 1080
2017/11/29 12:42:00 BASE 10.26 312 12.35 307 -0.3 100 -0.3 45 150 967.7 NA 0.0000 BR 3200 0 0 0 1020
2017/11/29 12:43:00 BASE 10.20 314 12.35 307 -0.4 100 -0.4 45 149 967.8 NA 0.0000 BR 3100 0 0 0 850
2017/11/29 12:44:00 BASE 9.93 313 12.30 308 -0.4 100 -0.4 43 146 967.8 NA 0.0000 BR 3100 0 0 0 950
2017/11/29 12:45:00 BASE 9.78 314 12.30 308 -0.4 100 -0.4 43 144 967.9 NA 0.0000 BR 3100 0 0 0 820
2017/11/29 12:46:00 BASE 9.12 317 12.30 308 -0.4 100 -0.4 43 144 968.0 NA 0.2540 BR 3000 0 0 0 790
2017/11/29 12:47:00 BASE 8.40 319 12.30 308 -0.4 100 -0.4 42 143 968.1 NA 0.0000 -SN BR 3000 0 0 0 890
2017/11/29 12:48:00 BASE 8.67 318 12.30 308 -0.4 100 -0.4 42 142 968.1 NA 0.0000 -SN BR 3100 0 0 0 820
2017/11/29 12:49:00 BASE 8.89 318 12.30 308 -0.4 100 -0.4 41 142 968.1 NA 0.0000 -SN BR 2900 0 0 0 820
2017/11/29 12:50:00 BASE 8.87 319 10.96 315 -0.4 100 -0.4 44 150 968.1 NA 0.0000 -SN BR 2900 0 0 0 820
2017/11/29 12:51:00 BASE 9.05 316 10.96 315 -0.4 100 -0.4 44 150 968.2 NA 0.0000 -SN BR 2800 0 0 0 980
2017/11/29 12:52:00 BASE 9.36 317 10.91 312 -0.4 100 -0.4 44 148 968.2 NA 0.0000 -SN BR 2800 0 0 0 920
2017/11/29 12:53:00 BASE 9.40 321 10.65 314 -0.4 100 -0.4 45 152 968.3 NA 0.0000 -SN BR 2800 0 0 0 750
2017/11/29 12:54:00 BASE 9.08 321 10.60 310 -0.4 100 -0.4 46 155 968.3 NA 0.0000 -SN BR 2700 0 0 0 790
2017/11/29 12:55:00 BASE 9.52 321 10.75 322 -0.4 100 -0.4 48 161 968.3 NA 0.0000 -SN BR 2800 0 0 0 750
2017/11/29 12:56:00 BASE 10.02 320 10.75 322 -0.4 100 -0.4 49 164 968.3 NA 0.0000 -SN BR 2700 0 0 0 980
2017/11/29 12:57:00 BASE 9.67 320 10.75 322 -0.4 100 -0.4 49 166 968.4 NA 0.0000 -SN BR 2800 0 0 0 890
2017/11/29 12:58:00 BASE 9.79 321 11.57 317 -0.4 100 -0.4 48 162 968.4 NA 0.0000 -SN BR 2800 0 0 0 980
2017/11/29 12:59:00 BASE 10.27 319 11.78 313 -0.4 100 -0.4 48 164 968.4 NA 0.0000 -SN BR 2700 0 0 0 920
2017/11/29 13:00:00 BASE 9.95 318 11.78 313 -0.4 100 -0.4 44 152 968.5 NA 0.0000 -SN BR 2700 0 0 0 1080
2017/11/29 13:01:00 BASE 9.71 320 11.78 313 -0.4 100 -0.4 44 151 968.5 NA 0.0000 -SN BR 2700 0 0 0 950
2017/11/29 13:02:00 BASE 9.91 319 11.78 313 -0.4 100 -0.4 43 140 968.6 NA 0.0000 -SN BR 2700 0 0 0 950
2017/11/29 13:03:00 BASE 9.91 316 11.78 313 -0.4 100 -0.4 45 145 968.6 NA 0.0000 -SN BR 2700 0 0 0 920
2017/11/29 13:04:00 BASE 10.11 316 11.78 313 -0.4 100 -0.4 45 154 968.7 NA 0.0000 BR 2600 0 0 0 980
2017/11/29 13:05:00 BASE 10.11 317 11.78 313 -0.4 100 -0.4 46 156 968.7 NA 0.0000 BR 2600 0 0 0 920
2017/11/29 13:06:00 BASE 9.83 317 11.78 313 -0.4 100 -0.4 47 159 968.9 NA 0.0000 BR 2600 0 0 0 980
2017/11/29 13:07:00 BASE 9.20 315 11.78 313 -0.4 100 -0.4 48 162 968.9 NA 0.0000 BR 2600 0 0 0 920
2017/11/29 13:08:00 BASE 9.02 317 11.78 313 -0.4 100 -0.4 48 161 968.9 NA 0.0000 BR 2600 0 0 0 980
2017/11/29 13:09:00 BASE 9.60 317 11.73 312 -0.4 100 -0.4 51 170 969.0 NA 0.0000 BR 2500 0 0 0 920
2017/11/29 13:10:00 BASE 9.90 318 11.73 312 -0.4 100 -0.4 50 167 969.0 NA 0.0000 BR 2500 0 0 0 1080
2017/11/29 13:11:00 BASE 9.65 319 11.73 312 -0.4 100 -0.4 52 174 969.1 NA 0.0000 BR 2500 0 0 0 950
2017/11/29 13:12:00 BASE 9.78 320 11.73 312 -0.4 100 -0.4 53 177 969.1 NA 0.0000 BR 2500 0 0 0 980
2017/11/29 13:13:00 BASE 10.38 321 11.73 312 -0.4 100 -0.4 54 179 969.1 NA 0.0000 BR 2500 0 0 0 890
2017/11/29 13:14:00 BASE 10.37 319 11.68 320 -0.4 100 -0.4 56 186 969.2 NA 0.0000 BR 2500 0 0 0 980
2017/11/29 13:15:00 BASE 10.29 318 11.68 320 -0.4 100 -0.4 56 185 969.2 NA 0.0000 BR 2500 0 0 0 1020
2017/11/29 13:16:00 BASE 10.22 315 11.68 320 -0.4 100 -0.4 59 193 969.3 NA 0.0000 BR 2500 0 0 0 920
2017/11/29 13:17:00 BASE 10.21 315 11.68 320 -0.5 100 -0.5 58 191 969.3 NA 0.0000 -SN BR 2500 0 0 0 1080
2017/11/29 13:18:00 BASE 10.70 316 12.24 311 -0.5 100 -0.5 57 178 969.3 NA 0.0000 -SN BR 2500 0 0 0 1080
2017/11/29 13:19:00 BASE 10.23 314 12.24 311 -0.5 100 -0.5 59 186 969.5 NA 0.0000 -SN BR 2400 0 0 0 950
2017/11/29 13:20:00 BASE 9.68 313 12.24 311 -0.5 100 -0.5 59 188 969.5 NA 0.0000 -SN BR 2400 0 0 0 1120
2017/11/29 13:21:00 BASE 9.92 313 12.24 311 -0.5 100 -0.5 59 189 969.6 NA 0.0000 -SN BR 2400 0 0 0 980
2017/11/29 13:22:00 BASE 10.11 314 12.24 311 -0.5 100 -0.5 59 189 969.6 NA 0.0000 -SN BR 2400 0 0 0 890
2017/11/29 13:23:00 BASE 10.61 315 12.24 311 -0.5 100 -0.5 56 178 969.6 NA 0.0000 -SN BR 2400 0 0 0 1120
2017/11/29 13:24:00 BASE 10.82 314 12.24 311 -0.5 100 -0.5 56 177 969.7 NA 0.0000 -SN BR 2400 0 0 0 920
2017/11/29 13:25:00 BASE 10.31 313 12.24 311 -0.5 100 -0.5 57 182 969.8 NA 0.0000 -SN BR 2400 0 0 0 1020
2017/11/29 13:26:00 BASE 10.30 312 12.24 311 -0.5 100 -0.5 54 171 969.8 NA 0.0000 -SN BR 2400 0 0 0 1180
2017/11/29 13:27:00 BASE 10.80 312 12.24 311 -0.5 100 -0.5 56 175 969.8 NA 0.0000 BR 2400 0 0 0 920
2017/11/29 13:28:00 BASE 10.71 312 11.78 316 -0.5 100 -0.5 57 177 969.9 NA 0.0000 BR 2400 200 0 0 0
2017/11/29 13:29:00 BASE 10.54 314 11.78 316 -0.5 100 -0.5 57 175 970.0 NA 0.0000 BR 2400 230 0 0 0
2017/11/29 13:30:00 BASE 10.42 315 11.78 316 -0.5 100 -0.5 57 176 970.1 NA 0.0000 BR 2400 200 0 0 0
2017/11/29 13:31:00 BASE 9.92 314 11.78 316 -0.6 100 -0.6 55 168 970.2 NA 0.0000 BR 2300 230 0 0 0
2017/11/29 13:32:00 BASE 9.24 315 11.78 316 -0.6 100 -0.6 57 173 970.3 NA 0.0000 BR 2300 230 0 0 0
2017/11/29 13:33:00 BASE 9.60 315 12.04 305 -0.6 100 -0.6 58 177 970.3 NA 0.0000 BR 2300 230 0 0 0
2017/11/29 13:34:00 BASE 10.26 311 12.04 305 -0.6 100 -0.6 57 172 970.3 NA 0.0000 BR 2300 230 0 0 0
2017/11/29 13:35:00 BASE 10.32 310 12.04 305 -0.6 100 -0.6 60 180 970.3 NA 0.0000 BR 2300 0 0 0 890
2017/11/29 13:36:00 BASE 10.39 311 12.04 305 -0.6 100 -0.6 59 178 970.4 NA 0.0000 BR 2300 200 0 0 0
2017/11/29 13:37:00 BASE 10.13 313 12.04 305 -0.6 100 -0.6 62 184 970.4 NA 0.0000 BR 2300 300 0 0 0
2017/11/29 13:38:00 BASE 10.29 314 12.04 305 -0.6 100 -0.6 65 192 970.4 NA 0.0000 BR 2600 330 0 0 0
2017/11/29 13:39:00 BASE 10.68 311 12.04 305 -0.6 100 -0.6 65 191 970.5 NA 0.0000 BR 8000 390 0 0 0
2017/11/29 13:40:00 BASE 10.42 306 12.04 305 -0.6 100 -0.6 64 186 970.6 NA 0.0000 BR 7000 660 0 0 0
2017/11/29 13:41:00 BASE 10.13 306 12.04 305 -0.6 100 -0.6 65 190 970.6 NA 0.0000 BR 8000 750 0 0 0
2017/11/29 13:42:00 BASE 10.44 311 12.91 311 -0.6 100 -0.6 66 200 970.6 NA 0.0000 BR 8000 690 0 0 0
2017/11/29 13:43:00 BASE 10.18 311 12.91 311 -0.6 100 -0.6 64 196 970.8 NA 0.0000 BR 9000 590 0 0 0
2017/11/29 13:44:00 BASE 10.26 309 12.91 311 -0.6 100 -0.6 67 204 970.7 NA 0.0000 BR 9000 690 0 0 0
2017/11/29 13:45:00 BASE 10.61 309 12.91 311 -0.5 100 -0.5 68 208 970.8 NA 0.0000 BR 9000 820 0 0 0
2017/11/29 13:46:00 BASE 10.37 309 12.91 311 -0.5 100 -0.5 68 206 970.9 NA 0.0000 BR 8000 820 0 0 0
2017/11/29 13:47:00 BASE 10.25 305 12.91 311 -0.5 100 -0.5 70 213 971.0 NA 0.0000 BR 9000 790 0 0 0
2017/11/29 13:48:00 BASE 9.84 302 12.91 311 -0.5 100 -0.5 72 219 971.0 NA 0.0000 BR 9000 720 0 0 0
2017/11/29 13:49:00 BASE 9.86 303 12.91 311 -0.5 100 -0.5 75 227 971.1 NA 0.0000 BR 8000 750 0 0 0
2017/11/29 13:50:00 BASE 10.16 302 12.91 311 -0.5 100 -0.5 77 232 971.1 NA 0.0000 BR 9000 750 0 0 0
2017/11/29 13:51:00 BASE 9.79 300 12.91 311 -0.5 100 -0.5 75 228 971.2 NA 0.0000 BR 9000 790 0 0 0
2017/11/29 13:52:00 BASE 9.54 300 12.35 303 -0.5 100 -0.5 77 232 971.2 NA 0.0000 BR 9000 790 0 0 0
2017/11/29 13:53:00 BASE 9.35 299 12.35 303 -0.5 100 -0.5 77 234 971.3 NA 0.0000 BR 9000 750 0 0 0
2017/11/29 13:54:00 BASE 9.12 299 12.35 303 -0.5 100 -0.5 75 229 971.4 NA 0.0000 BR 8000 660 0 0 0
2017/11/29 13:55:00 BASE 9.59 299 12.35 303 -0.5 100 -0.5 77 233 971.4 NA 0.0000 BR 8000 750 0 0 0
2017/11/29 13:56:00 BASE 9.42 299 12.35 303 -0.6 100 -0.6 78 236 971.5 NA 0.0000 BR 8000 750 0 0 0
2017/11/29 13:57:00 BASE 9.16 300 11.32 295 -0.6 100 -0.6 79 238 971.5 NA 0.0000 BR 8000 460 0 0 0
2017/11/29 13:58:00 BASE 9.33 301 11.32 295 -0.6 100 -0.6 80 240 971.5 NA 0.0000 BR 8000 750 0 0 0
2017/11/29 13:59:00 BASE 9.21 303 11.32 295 -0.6 100 -0.6 82 246 971.6 NA 0.0000 BR 8000 430 0 0 0
2017/11/29 14:00:00 BASE 9.11 306 11.16 299 -0.6 100 -0.6 82 248 971.7 NA 0.0000 BR 9000 430 0 0 0
2017/11/29 14:01:00 BASE 9.21 306 11.16 299 -0.6 100 -0.6 82 247 971.7 NA 0.0000 BR 8000 390 0 0 0
2017/11/29 14:02:00 BASE 9.30 304 11.16 299 -0.6 100 -0.6 84 251 971.7 NA 0.0000 BR 8000 390 0 0 0
2017/11/29 14:03:00 BASE 9.25 304 11.16 299 -0.6 100 -0.6 85 255 971.8 NA 0.0000 BR 7000 390 0 0 0
2017/11/29 14:04:00 BASE 9.36 303 11.16 299 -0.6 100 -0.6 82 247 971.8 NA 0.0000 BR 6000 360 0 0 0
2017/11/29 14:05:00 BASE 8.95 305 10.65 301 -0.6 100 -0.6 83 249 971.9 NA 0.0000 BR 6000 330 0 0 0
2017/11/29 14:06:00 BASE 8.91 307 10.65 301 -0.6 100 -0.6 82 245 971.9 NA 0.0000 BR 6000 330 0 0 0
2017/11/29 14:07:00 BASE 9.53 308 10.91 300 -0.6 100 -0.6 84 251 971.9 NA 0.0000 BR 6000 330 0 0 0
2017/11/29 14:08:00 BASE 9.46 309 10.91 300 -0.6 100 -0.6 82 245 972.0 NA 0.0000 BR 6000 330 0 0 0
2017/11/29 14:09:00 BASE 9.37 308 10.91 300 -0.6 100 -0.6 81 243 972.0 NA 0.0000 BR 6000 330 0 0 0
2017/11/29 14:10:00 BASE 9.40 306 10.91 300 -0.6 100 -0.6 85 253 972.1 NA 0.0000 BR 6000 330 0 0 0
2017/11/29 14:11:00 BASE 9.68 304 11.16 301 -0.6 100 -0.6 83 249 972.1 NA 0.0000 BR 6000 330 0 0 0
2017/11/29 14:12:00 BASE 9.96 302 11.16 301 -0.6 100 -0.6 81 242 972.2 NA 0.0000 BR 6000 330 0 0 0
2017/11/29 14:13:00 BASE 10.28 301 11.47 297 -0.6 100 -0.6 81 244 972.2 NA 0.0000 BR 6000 330 0 0 0
2017/11/29 14:14:00 BASE 10.73 299 11.57 293 -0.6 100 -0.6 79 239 972.2 NA 0.0000 BR 5000 330 0 0 0
2017/11/29 14:15:00 BASE 10.49 298 11.57 293 -0.6 100 -0.6 83 249 972.3 NA 0.0000 BR 5000 330 0 0 0
2017/11/29 14:16:00 BASE 10.49 300 11.94 304 -0.6 100 -0.6 85 255 972.3 NA 0.0000 BR 5000 330 0 0 0
2017/11/29 14:17:00 BASE 10.50 302 11.94 304 -0.6 100 -0.6 85 253 972.4 NA 0.0000 BR 5000 330 0 0 0
2017/11/29 14:18:00 BASE 10.38 301 11.94 304 -0.6 100 -0.6 90 266 972.3 NA 0.0000 BR 5000 330 0 0 0
2017/11/29 14:19:00 BASE 10.38 302 11.94 304 -0.6 100 -0.6 96 283 972.4 NA 0.0000 BR 6000 330 0 0 0
2017/11/29 14:20:00 BASE 10.18 302 11.94 304 -0.6 100 -0.6 97 285 972.5 NA 0.0000 BR 6000 330 0 0 0
2017/11/29 14:21:00 BASE 10.08 302 11.94 304 -0.6 100 -0.6 94 277 972.5 NA 0.0000 BR 7000 330 0 0 0
2017/11/29 14:22:00 BASE 10.12 300 11.94 304 -0.6 100 -0.6 97 283 972.5 NA 0.0000 BR 7000 360 0 0 0
2017/11/29 14:23:00 BASE 9.81 300 11.94 304 -0.6 100 -0.6 97 282 972.7 NA 0.0000 BR 7000 360 0 0 0
2017/11/29 14:24:00 BASE 9.42 302 11.94 304 -0.6 100 -0.6 100 291 972.7 NA 0.0000 BR 7000 360 0 0 0
2017/11/29 14:25:00 BASE 9.75 302 11.94 304 -0.6 100 -0.6 102 295 972.6 NA 0.0000 BR 8000 360 0 0 0
2017/11/29 14:26:00 BASE 10.41 301 11.78 299 -0.6 100 -0.6 104 301 972.6 NA 0.0000 BR 8000 390 0 0 0
2017/11/29 14:27:00 BASE 10.51 301 11.63 293 -0.6 100 -0.6 101 292 972.7 NA 0.0000 BR 7000 390 0 0 0
2017/11/29 14:28:00 BASE 10.02 303 11.63 293 -0.6 100 -0.6 104 299 972.8 NA 0.0000 BR 7000 360 0 0 0
2017/11/29 14:29:00 BASE 9.66 304 11.63 293 -0.6 100 -0.6 104 300 972.8 NA 0.0000 BR 7000 390 0 0 0
2017/11/29 14:30:00 BASE 9.53 305 11.63 293 -0.6 100 -0.6 104 303 972.9 NA 0.0000 BR 8000 360 0 0 0
2017/11/29 14:31:00 BASE 9.32 305 11.63 293 -0.6 100 -0.6 106 309 972.9 NA 0.0000 BR 8000 360 0 0 0
2017/11/29 14:32:00 BASE 9.55 306 11.63 293 -0.6 100 -0.6 106 306 972.9 NA 0.2540 BR 7000 360 0 0 0
2017/11/29 14:33:00 BASE 9.80 303 11.63 293 -0.6 100 -0.6 108 311 973.0 NA 0.0000 BR 7000 360 0 0 0
2017/11/29 14:34:00 BASE 9.35 300 11.63 293 -0.6 100 -0.6 107 309 973.1 NA 0.0000 BR 8000 360 0 0 0
2017/11/29 14:35:00 BASE 9.03 301 11.63 293 -0.6 100 -0.6 104 301 973.1 NA 0.0000 BR 8000 390 0 0 0
2017/11/29 14:36:00 BASE 8.84 302 11.42 304 -0.6 100 -0.6 107 309 973.2 NA 0.0000 BR 8000 390 0 0 0
2017/11/29 14:37:00 BASE 8.95 302 11.42 304 -0.6 100 -0.6 108 311 973.2 NA 0.0000 BR 7000 360 0 0 0
2017/11/29 14:38:00 BASE 8.82 303 11.42 304 -0.6 100 -0.6 110 316 973.2 NA 0.0000 BR 8000 390 0 0 0
2017/11/29 14:39:00 BASE 8.49 305 11.42 304 -0.6 100 -0.6 114 325 973.4 NA 0.0000 BR 7000 360 0 0 0
2017/11/29 14:40:00 BASE 8.80 306 11.42 304 -0.6 100 -0.6 118 335 973.3 NA 0.0000 BR 7000 360 0 0 0
2017/11/29 14:41:00 BASE 9.33 305 11.42 304 -0.6 100 -0.6 120 342 973.3 NA 0.0000 BR 9000 360 0 0 0
2017/11/29 14:42:00 BASE 9.17 304 10.75 300 -0.6 100 -0.6 118 335 973.4 NA 0.0000 BR 9000 330 0 0 0
2017/11/29 14:43:00 BASE 8.82 308 10.75 300 -0.6 100 -0.6 119 339 973.4 NA 0.0000 BR 9000 330 0 0 0
2017/11/29 14:44:00 BASE 9.09 308 10.75 300 -0.6 100 -0.6 124 350 973.4 NA 0.0000 BR 9000 330 0 0 0
2017/11/29 14:45:00 BASE 8.76 307 10.75 300 -0.6 100 -0.6 118 337 973.5 NA 0.0000 BR 9000 360 0 0 0
2017/11/29 14:46:00 BASE 8.68 310 10.75 300 -0.6 100 -0.6 123 349 973.5 NA 0.0000 BR 8000 330 0 0 0
2017/11/29 14:47:00 BASE 9.05 312 10.75 300 -0.6 100 -0.6 123 349 973.5 NA 0.0000 BR 8000 330 0 0 0
2017/11/29 14:48:00 BASE 9.11 311 10.75 300 -0.6 100 -0.6 122 347 973.5 NA 0.0000 BR 7000 330 0 0 0
2017/11/29 14:49:00 BASE 9.33 308 10.75 300 -0.5 100 -0.5 118 335 973.6 NA 0.0000 BR 7000 360 0 0 0
2017/11/29 14:50:00 BASE 9.31 306 10.75 300 -0.5 100 -0.5 120 340 973.6 NA 0.0000 BR 7000 360 0 0 0
2017/11/29 14:51:00 BASE 9.54 308 10.60 312 -0.5 100 -0.5 120 342 973.6 NA 0.0000 BR 8000 360 0 0 0
2017/11/29 14:52:00 BASE 9.19 311 10.60 312 -0.5 100 -0.5 125 354 973.7 NA 0.0000 BR 8000 360 21880 0 0
2017/11/29 14:53:00 BASE 8.68 312 10.60 312 -0.5 100 -0.5 127 359 973.7 NA 0.0000 BR 8000 360 0 0 0
2017/11/29 14:54:00 BASE 9.23 312 10.60 312 -0.5 100 -0.5 125 356 973.7 NA 0.0000 BR 8000 360 0 0 0
2017/11/29 14:55:00 BASE 9.53 311 10.60 312 -0.5 100 -0.5 122 347 973.7 NA 0.0000 BR 9000 330 0 0 0
2017/11/29 14:56:00 BASE 9.47 311 10.60 312 -0.5 100 -0.5 121 345 973.8 NA 0.0000 BR 9000 360 0 0 0
2017/11/29 14:57:00 BASE 9.60 311 10.60 312 -0.5 100 -0.5 121 345 973.8 NA 0.0000 BR 8000 330 0 0 0
2017/11/29 14:58:00 BASE 9.67 313 10.60 312 -0.5 100 -0.5 116 331 973.9 NA 0.0000 BR 8000 360 0 0 0
2017/11/29 14:59:00 BASE 9.44 314 10.60 312 -0.5 100 -0.5 121 345 973.9 NA 0.0000 BR 9000 330 0 0 0
2017/11/29 15:00:00 BASE 9.29 312 10.60 312 -0.5 100 -0.5 127 359 974.0 NA 0.0000 BR 8000 330 0 0 0
2017/11/29 15:01:00 BASE 8.98 311 10.39 312 -0.5 100 -0.5 136 382 974.0 NA 0.0000 BR 7000 330 0 0 0
2017/11/29 15:02:00 BASE 9.16 312 10.44 312 -0.5 100 -0.5 136 383 974.0 NA 0.0000 BR 7000 330 0 0 0
2017/11/29 15:03:00 BASE 9.57 311 10.44 312 -0.5 100 -0.5 137 384 974.0 NA 0.0000 UP BR 7000 330 0 0 0
2017/11/29 15:04:00 BASE 9.43 309 10.85 304 -0.5 100 -0.5 141 393 974.1 NA 0.0000 UP BR 8000 330 0 0 0
2017/11/29 15:05:00 BASE 9.31 309 10.85 304 -0.5 100 -0.5 146 405 974.1 NA 0.0000 UP BR 8000 330 0 0 0
2017/11/29 15:06:00 BASE 9.30 307 10.85 304 -0.4 100 -0.4 148 409 974.2 NA 0.0000 UP BR 8000 330 0 0 0
2017/11/29 15:07:00 BASE 9.54 308 11.21 310 -0.4 100 -0.4 151 415 974.2 NA 0.0000 UP BR 8000 360 0 0 0
2017/11/29 15:08:00 BASE 9.50 310 11.21 310 -0.4 100 -0.4 146 405 974.2 NA 0.0000 UP BR 9000 360 0 0 0
2017/11/29 15:09:00 BASE 9.56 309 11.21 310 -0.4 100 -0.4 143 397 974.2 NA 0.0000 UP BR 8000 360 0 0 0
2017/11/29 15:10:00 BASE 9.56 309 11.21 310 -0.4 100 -0.4 145 402 974.2 NA 0.0000 UP BR 9000 390 0 0 0
2017/11/29 15:11:00 BASE 9.27 308 11.21 310 -0.4 100 -0.4 147 407 974.3 NA 0.0000 UP BR 8000 390 0 0 0
2017/11/29 15:12:00 BASE 8.93 308 11.21 310 -0.4 100 -0.4 152 419 974.3 NA 0.0000 UP BR 9000 390 0 0 0
2017/11/29 15:13:00 BASE 8.66 310 11.21 310 -0.4 100 -0.4 156 428 974.3 NA 0.0000 BR 8000 390 0 0 0
2017/11/29 15:14:00 BASE 8.81 311 11.21 310 -0.4 100 -0.4 158 432 974.3 NA 0.0000 BR 9000 390 0 0 0
2017/11/29 15:15:00 BASE 8.98 310 11.21 310 -0.4 100 -0.4 157 431 974.4 NA 0.0000 BR 8000 690 0 0 0
2017/11/29 15:16:00 BASE 8.58 309 11.21 310 -0.4 100 -0.4 159 434 974.5 NA 0.0000 BR 8000 790 0 0 0
2017/11/29 15:17:00 BASE 8.33 309 10.13 307 -0.4 100 -0.4 161 438 974.5 NA 0.0000 BR 9999 1080 0 0 0
2017/11/29 15:18:00 BASE 8.40 308 10.13 307 -0.4 100 -0.4 162 440 974.5 NA 0.0000 BR 9000 1150 0 0 0
2017/11/29 15:19:00 BASE 8.43 309 10.03 303 -0.4 100 -0.4 162 441 974.5 NA 0.2540 BR 8000 1410 0 0 0
2017/11/29 15:20:00 BASE 8.30 308 10.03 303 -0.4 100 -0.4 160 435 974.6 NA 0.0000 BR 9000 1480 0 0 0
2017/11/29 15:21:00 BASE 7.97 309 10.03 303 -0.4 100 -0.4 157 429 974.6 NA 0.0000 BR 9999 1640 0 0 0
2017/11/29 15:22:00 BASE 8.31 310 10.03 303 -0.4 100 -0.4 156 427 974.6 NA 0.0000 BR 9999 2430 0 0 0
2017/11/29 15:23:00 BASE 8.77 309 10.03 303 -0.4 100 -0.4 157 430 974.6 NA 0.0000 BR 8000 1610 0 0 0
2017/11/29 15:24:00 BASE 8.66 308 10.03 303 -0.4 100 -0.4 160 436 974.7 NA 0.0000 BR 8000 1610 0 0 0
2017/11/29 15:25:00 BASE 8.40 309 9.52 310 -0.4 100 -0.4 163 443 974.7 NA 0.0000 BR 9000 2460 0 0 0
2017/11/29 15:26:00 BASE 8.34 310 9.52 310 -0.4 100 -0.4 167 451 974.7 NA 0.0000 BR 9000 1710 0 0 0
2017/11/29 15:27:00 BASE 8.33 310 9.52 310 -0.4 100 -0.4 171 460 974.8 NA 0.0000 BR 9000 2000 0 0 0
2017/11/29 15:28:00 BASE 8.36 310 9.52 310 -0.4 100 -0.4 176 471 974.8 NA 0.0000 BR 8000 1800 0 0 0
2017/11/29 15:29:00 BASE 8.47 310 9.52 310 -0.4 100 -0.4 179 478 974.8 NA 0.0000 BR 8000 2490 0 0 0
2017/11/29 15:30:00 BASE 8.45 310 9.52 310 -0.4 100 -0.4 179 475 974.9 NA 0.0000 BR 8000 2200 0 0 0
2017/11/29 15:31:00 BASE 8.54 310 9.52 310 -0.4 100 -0.4 175 466 974.9 NA 0.0000 BR 8000 2170 0 0 0
2017/11/29 15:32:00 BASE 8.56 311 9.52 310 -0.4 100 -0.4 173 460 974.9 NA 0.0000 BR 8000 2170 0 0 0
2017/11/29 15:33:00 BASE 8.46 312 9.31 308 -0.4 100 -0.4 172 457 974.9 NA 0.0000 BR 8000 2490 0 0 0
2017/11/29 15:34:00 BASE 8.85 311 9.83 311 -0.4 100 -0.4 171 455 975.0 NA 0.0000 BR 9000 1900 20570 0 0
2017/11/29 15:35:00 BASE 8.87 313 9.83 311 -0.3 100 -0.3 171 455 975.0 NA 0.0000 BR 9999 2260 0 0 0
2017/11/29 15:36:00 BASE 8.65 315 9.83 311 -0.3 100 -0.3 172 458 975.0 NA 0.0000 BR 9999 2230 0 0 0
2017/11/29 15:37:00 BASE 8.95 315 9.83 311 -0.3 100 -0.3 175 465 975.0 NA 0.0000 BR 8000 2230 0 0 0
2017/11/29 15:38:00 BASE 8.80 315 9.83 311 -0.3 100 -0.3 179 474 975.0 NA 0.0000 BR 8000 1970 0 0 0
2017/11/29 15:39:00 BASE 8.76 313 9.83 311 -0.3 100 -0.3 182 480 975.1 NA 0.0000 BR 9000 2530 0 0 0
2017/11/29 15:40:00 BASE 8.61 312 9.83 311 -0.3 100 -0.3 185 486 975.2 NA 0.2540 BR 9000 2260 0 0 0
2017/11/29 15:41:00 BASE 8.30 313 9.83 311 -0.3 100 -0.3 188 493 975.1 NA 0.0000 BR 9000 2330 0 0 0
2017/11/29 15:42:00 BASE 8.54 312 9.83 311 -0.3 100 -0.3 188 495 975.2 NA 0.0000 BR 9999 2360 0 0 0
2017/11/29 15:43:00 BASE 8.54 312 9.83 311 -0.3 100 -0.3 188 493 975.2 NA 0.0000 BR 9000 2330 0 0 0
2017/11/29 15:44:00 BASE 8.52 311 9.67 315 -0.3 100 -0.3 188 494 975.2 NA 0.0000 BR 9000 1250 0 0 0
2017/11/29 15:45:00 BASE 8.57 311 9.67 315 -0.3 100 -0.3 191 499 975.2 NA 0.0000 BR 9000 2400 0 0 0
2017/11/29 15:46:00 BASE 8.72 312 9.67 315 -0.3 100 -0.3 192 502 975.2 NA 0.0000 BR 8000 2620 0 0 0
2017/11/29 15:47:00 BASE 8.77 313 9.62 311 -0.3 100 -0.3 192 502 975.2 NA 0.0000 BR 9000 2360 0 0 0
2017/11/29 15:48:00 BASE 8.57 315 9.62 311 -0.3 100 -0.3 194 507 975.3 NA 0.0000 BR 9000 2360 0 0 0
2017/11/29 15:49:00 BASE 8.66 315 9.67 312 -0.2 100 -0.3 198 516 975.3 NA 0.0000 BR 9000 2660 0 0 0
2017/11/29 15:50:00 BASE 8.87 315 9.67 314 -0.2 99 -0.3 197 514 975.3 NA 0.0000 BR 9000 2720 0 0 0
2017/11/29 15:51:00 BASE 8.39 318 9.67 314 -0.2 99 -0.3 194 509 975.4 NA 0.0000 BR 9000 2720 0 0 0
2017/11/29 15:52:00 BASE 8.29 316 9.67 314 -0.2 99 -0.4 193 507 975.4 NA 0.0000 BR 9999 2490 0 0 0
2017/11/29 15:53:00 BASE 8.73 314 9.67 320 -0.2 98 -0.4 194 509 975.4 NA 0.0000 BR 9999 2460 0 0 0
2017/11/29 15:54:00 BASE 8.92 314 9.67 320 -0.2 98 -0.4 195 512 975.5 NA 0.0000 BR 9999 2760 0 0 0
2017/11/29 15:55:00 BASE 8.72 314 9.67 316 -0.2 98 -0.5 198 518 975.5 NA 0.0000 BR 9999 2790 0 0 0
2017/11/29 15:56:00 BASE 8.94 314 9.93 310 -0.1 97 -0.5 200 522 975.5 NA 0.0000 BR 9999 2850 0 0 0
2017/11/29 15:57:00 BASE 9.08 313 9.93 310 -0.1 97 -0.6 200 522 975.6 NA 0.0000 BR 9999 1940 0 0 0
2017/11/29 15:58:00 BASE 8.33 313 9.93 310 -0.1 97 -0.6 201 524 975.7 NA 0.0000 BR 9999 2660 0 0 0
2017/11/29 15:59:00 BASE 8.19 314 9.93 310 -0.1 96 -0.6 199 520 975.6 NA 0.0000 BR 9999 2720 0 0 0
2017/11/29 16:00:00 BASE 8.49 314 9.93 310 -0.1 96 -0.6 198 518 975.7 NA 0.0000 BR 9999 2620 0 0 0
2017/11/29 16:01:00 BASE 8.84 314 9.93 310 -0.1 96 -0.7 199 519 975.7 NA 0.0000 9999 2690 0 0 0
2017/11/29 16:02:00 BASE 8.52 315 9.93 310 -0.1 96 -0.7 199 520 975.8 NA 0.0000 9999 2690 0 0 0
2017/11/29 16:03:00 BASE 7.76 317 9.93 310 -0.1 96 -0.7 198 516 975.8 NA 0.0000 9999 2690 0 0 0
2017/11/29 16:04:00 BASE 7.90 315 9.93 310 -0.1 95 -0.7 196 511 975.8 NA 0.2540 9999 2690 0 0 0
2017/11/29 16:05:00 BASE 8.34 312 9.93 310 -0.1 95 -0.8 196 510 975.9 NA 0.0000 9999 2690 0 0 0
2017/11/29 16:06:00 BASE 8.45 314 9.62 317 -0.1 95 -0.8 193 503 975.9 NA 0.0000 9999 2760 0 0 0
2017/11/29 16:07:00 BASE 8.50 313 9.62 317 -0.1 95 -0.8 187 490 975.9 NA 0.0000 9999 2790 0 0 0
2017/11/29 16:08:00 BASE 8.61 314 9.62 317 -0.1 95 -0.8 184 482 975.9 NA 0.0000 9999 2850 0 0 0
2017/11/29 16:09:00 BASE 8.39 316 9.62 317 -0.0 94 -0.8 180 475 976.0 NA 0.0000 9999 2790 0 0 0
2017/11/29 16:10:00 BASE 8.18 315 9.62 317 -0.0 94 -0.9 182 479 976.0 NA 0.0000 9999 2760 0 0 0
2017/11/29 16:11:00 BASE 7.99 315 9.41 316 -0.0 94 -0.9 183 481 976.1 NA 0.0000 9999 2920 0 0 0
2017/11/29 16:12:00 BASE 7.78 316 9.41 316 0.0 94 -0.9 184 483 976.1 NA 0.0000 9999 2790 0 0 0
2017/11/29 16:13:00 BASE 7.86 314 9.41 316 0.0 94 -0.9 185 486 976.2 NA 0.0000 9999 2850 0 0 0
2017/11/29 16:14:00 BASE 8.03 313 9.41 316 0.0 94 -0.9 185 485 976.2 NA 0.0000 9999 3050 0 0 0
2017/11/29 16:15:00 BASE 8.21 313 9.41 316 0.0 94 -0.9 184 483 976.2 NA 0.0000 9999 2990 0 0 0
2017/11/29 16:16:00 BASE 8.56 313 9.67 312 0.0 94 -0.9 181 477 976.2 NA 0.0000 9999 2950 0 0 0
2017/11/29 16:17:00 BASE 9.11 313 9.77 312 0.0 93 -0.9 177 466 976.2 NA 0.0000 9999 2950 0 0 0
2017/11/29 16:18:00 BASE 9.23 313 9.77 312 0.0 93 -1.0 177 466 976.2 NA 0.0000 9999 2760 0 0 0
2017/11/29 16:19:00 BASE 9.10 312 10.08 305 0.0 93 -1.0 177 467 976.2 NA 0.0000 9999 2790 0 0 0
2017/11/29 16:20:00 BASE 9.17 312 10.08 305 0.0 93 -1.0 178 469 976.3 NA 0.0000 9999 2760 0 0 0
2017/11/29 16:21:00 BASE 9.15 313 10.08 305 0.0 93 -1.0 176 465 976.3 NA 0.0000 9999 2850 0 0 0
2017/11/29 16:22:00 BASE 9.15 313 10.08 305 0.0 93 -1.0 171 454 976.3 NA 0.0000 9999 2890 0 0 0
2017/11/29 16:23:00 BASE 9.11 313 10.08 305 0.0 93 -1.0 168 448 976.3 NA 0.0000 9999 2690 0 0 0
2017/11/29 16:24:00 BASE 8.96 314 10.08 305 0.0 93 -1.0 168 446 976.4 NA 0.0000 9999 2620 0 0 0
2017/11/29 16:25:00 BASE 8.69 313 10.08 305 0.0 93 -1.0 166 443 976.4 NA 0.0000 9999 2720 0 0 0
2017/11/29 16:26:00 BASE 8.45 312 10.08 305 0.0 93 -1.0 165 441 976.5 NA 0.0000 9999 2720 0 0 0
2017/11/29 16:27:00 BASE 8.35 314 10.08 305 0.0 93 -1.0 165 442 976.5 NA 0.0000 9999 2660 18900 0 0
2017/11/29 16:28:00 BASE 8.13 314 10.08 305 0.0 93 -1.0 166 443 976.6 NA 0.0000 9999 2790 0 0 0
2017/11/29 16:29:00 BASE 8.31 313 9.88 310 0.0 93 -1.0 169 450 976.5 NA 0.0000 9999 2760 0 0 0
2017/11/29 16:30:00 BASE 8.74 312 9.88 310 0.0 93 -1.0 172 456 976.5 NA 0.0000 9999 2720 3280 0 0
2017/11/29 16:31:00 BASE 8.72 312 9.88 310 0.0 93 -1.0 172 458 976.6 NA 0.0000 9999 2690 0 0 0
2017/11/29 16:32:00 BASE 8.61 312 9.77 317 0.0 93 -1.0 175 464 976.6 NA 0.0000 9999 2660 0 0 0
2017/11/29 16:33:00 BASE 8.52 311 9.67 311 0.0 93 -1.0 180 475 976.7 NA 0.0000 9999 2690 0 0 0
2017/11/29 16:34:00 BASE 8.43 311 9.67 311 0.0 93 -1.0 185 486 976.7 NA 0.0000 9999 2720 0 0 0
2017/11/29 16:35:00 BASE 8.33 311 9.67 311 0.0 93 -1.0 188 492 976.7 NA 0.0000 9999 2720 0 0 0
2017/11/29 16:36:00 BASE 8.32 310 9.67 311 0.0 93 -1.0 191 499 976.7 NA 0.0000 9999 2720 0 0 0
2017/11/29 16:37:00 BASE 8.45 311 9.67 311 0.0 93 -1.0 192 502 976.8 NA 0.0000 9999 2760 0 0 0
2017/11/29 16:38:00 BASE 8.66 311 9.67 311 0.0 93 -1.0 196 511 976.8 NA 0.0000 9999 2720 0 0 0
2017/11/29 16:39:00 BASE 8.78 310 9.88 304 0.1 93 -0.9 199 517 976.8 NA 0.0000 9999 2760 0 0 0
2017/11/29 16:40:00 BASE 8.73 311 9.88 304 0.1 93 -0.9 200 519 976.8 NA 0.0000 9999 2790 0 0 0
2017/11/29 16:41:00 BASE 9.05 311 9.98 306 0.1 93 -0.9 200 519 976.9 NA 0.0000 9999 2820 0 0 0
2017/11/29 16:42:00 BASE 9.35 311 9.98 306 0.1 93 -0.9 200 519 976.9 NA 0.0000 9999 2820 0 0 0
2017/11/29 16:43:00 BASE 9.19 310 10.29 309 0.1 93 -0.9 200 521 976.9 NA 0.0000 9999 2820 19360 0 0
2017/11/29 16:44:00 BASE 9.11 309 10.29 309 0.1 93 -0.9 200 520 977.0 NA 0.0000 9999 2850 20640 0 0
2017/11/29 16:45:00 BASE 8.96 311 10.29 309 0.1 93 -0.9 198 514 977.0 NA 0.0000 9999 2850 0 0 0
2017/11/29 16:46:00 BASE 9.03 311 10.29 309 0.1 93 -0.9 196 510 977.0 NA 0.0000 9999 2820 0 0 0
2017/11/29 16:47:00 BASE 9.42 311 10.29 309 0.1 93 -0.9 197 514 977.0 NA 0.0000 9999 2850 0 0 0
2017/11/29 16:48:00 BASE 9.31 310 10.29 309 0.1 93 -0.9 200 520 977.1 NA 0.0000 9999 2920 0 0 0
2017/11/29 16:49:00 BASE 9.24 311 10.29 314 0.1 94 -0.8 202 524 977.1 NA 0.0000 9999 2950 0 0 0
2017/11/29 16:50:00 BASE 10.02 314 11.52 313 0.1 94 -0.8 204 529 977.0 NA 0.0000 9999 2950 0 0 0
2017/11/29 16:51:00 BASE 10.32 313 11.52 313 0.1 94 -0.8 209 539 977.1 NA 0.0000 9999 3020 0 0 0
2017/11/29 16:52:00 BASE 9.53 313 11.52 313 0.1 94 -0.8 215 552 977.2 NA 0.0000 9999 3120 0 0 0
2017/11/29 16:53:00 BASE 9.60 311 11.52 301 0.1 94 -0.8 220 564 977.2 NA 0.0000 9999 3150 0 0 0
2017/11/29 16:54:00 BASE 10.11 310 11.52 301 0.1 94 -0.8 223 570 977.2 NA 0.0000 9999 3510 0 0 0
2017/11/29 16:55:00 BASE 10.25 310 11.52 301 0.1 94 -0.8 224 574 977.2 NA 0.0000 9999 3450 0 0 0
2017/11/29 16:56:00 BASE 10.07 308 11.52 301 0.1 94 -0.8 227 579 977.3 NA 0.0000 9999 3510 0 0 0
2017/11/29 16:57:00 BASE 9.52 307 11.52 301 0.1 94 -0.8 229 584 977.4 NA 0.0000 9999 3580 0 0 0
2017/11/29 16:58:00 BASE 9.37 309 11.52 301 0.1 94 -0.8 231 588 977.4 NA 0.0000 9999 3540 0 0 0
2017/11/29 16:59:00 BASE 9.08 310 11.52 301 0.1 94 -0.8 232 589 977.4 NA 0.0000 9999 3480 22930 0 0
2017/11/29 17:00:00 BASE 8.84 311 11.52 301 0.1 94 -0.7 230 586 977.4 NA 0.0000 9999 3480 0 0 0
2017/11/29 17:01:00 BASE 9.04 311 11.52 301 0.1 94 -0.7 229 583 977.4 NA 0.0000 9999 3540 0 0 0
2017/11/29 17:02:00 BASE 9.40 310 11.52 301 0.1 95 -0.7 229 584 977.5 NA 0.0000 9999 3540 0 0 0
2017/11/29 17:03:00 BASE 9.39 309 11.27 308 0.1 95 -0.6 229 584 977.5 NA 0.0000 9999 3510 0 0 0
2017/11/29 17:04:00 BASE 9.34 310 11.27 308 0.1 95 -0.6 228 583 977.5 NA 0.0000 9999 3540 0 0 0
2017/11/29 17:05:00 BASE 9.39 310 10.91 305 0.1 95 -0.6 228 582 977.5 NA 0.0000 9999 3540 0 0 0
2017/11/29 17:06:00 BASE 9.20 310 10.65 301 0.1 95 -0.6 229 585 977.6 NA 0.0000 9999 3540 0 0 0
2017/11/29 17:07:00 BASE 9.19 311 10.65 301 0.1 95 -0.6 231 588 977.6 NA 0.0000 9999 3580 0 0 0
2017/11/29 17:08:00 BASE 9.06 311 10.65 301 0.1 95 -0.6 233 592 977.7 NA 0.0000 9999 3580 0 0 0
2017/11/29 17:09:00 BASE 8.81 313 10.65 301 0.1 95 -0.7 234 595 977.7 NA 0.0000 9999 3580 0 0 0
2017/11/29 17:10:00 BASE 8.84 313 10.44 299 0.1 94 -0.7 236 599 977.7 NA 0.0000 9999 3540 0 0 0
2017/11/29 17:11:00 BASE 9.47 312 10.85 314 0.1 94 -0.7 237 601 977.6 NA 0.0000 9999 3580 0 0 0
2017/11/29 17:12:00 BASE 10.00 313 10.85 314 0.1 94 -0.7 238 602 977.6 NA 0.0000 9999 3610 0 0 0
2017/11/29 17:13:00 BASE 9.73 312 10.85 314 0.2 94 -0.7 238 602 977.7 NA 0.0000 9999 3610 0 0 0
2017/11/29 17:14:00 BASE 9.66 311 10.85 314 0.2 94 -0.7 237 600 977.7 NA 0.0000 9999 3640 0 0 0
2017/11/29 17:15:00 BASE 9.39 310 10.85 314 0.2 94 -0.7 235 596 977.8 NA 0.0000 9999 3670 0 0 0
2017/11/29 17:16:00 BASE 9.22 312 10.85 314 0.2 93 -0.7 232 590 977.8 NA 0.0000 9999 3480 0 0 0
2017/11/29 17:17:00 BASE 9.72 311 10.85 314 0.2 93 -0.8 229 583 977.8 NA 0.0000 9999 3350 0 0 0
2017/11/29 17:18:00 BASE 9.82 311 10.85 314 0.2 93 -0.8 226 576 977.8 NA 0.0000 9999 3450 0 0 0
2017/11/29 17:19:00 BASE 9.67 312 10.85 314 0.2 93 -0.8 223 569 977.9 NA 0.0000 9999 3410 0 0 0
2017/11/29 17:20:00 BASE 9.85 312 10.91 313 0.2 93 -0.8 221 566 977.8 NA 0.0000 9999 3510 0 0 0
2017/11/29 17:21:00 BASE 9.77 313 10.91 313 0.2 93 -0.8 221 565 977.9 NA 0.0000 9999 3480 0 0 0
2017/11/29 17:22:00 BASE 9.75 313 10.96 317 0.2 93 -0.8 221 565 977.9 NA 0.0000 9999 3480 0 0 0
2017/11/29 17:23:00 BASE 9.67 312 10.96 317 0.2 93 -0.8 220 563 977.9 NA 0.0000 9999 3450 0 0 0
2017/11/29 17:24:00 BASE 9.48 310 10.96 317 0.2 93 -0.7 219 561 978.0 NA 0.0000 9999 3540 0 0 0
2017/11/29 17:25:00 BASE 9.64 310 10.96 317 0.2 94 -0.7 219 560 978.0 NA 0.0000 9999 3540 0 0 0
2017/11/29 17:26:00 BASE 9.89 311 11.01 312 0.2 94 -0.7 221 564 978.0 NA 0.0000 9999 3540 0 0 0
2017/11/29 17:27:00 BASE 10.03 310 11.01 312 0.2 94 -0.6 225 572 978.0 NA 0.0000 9999 3540 0 0 0
2017/11/29 17:28:00 BASE 10.05 310 11.01 312 0.2 94 -0.7 230 583 978.0 NA 0.0000 9999 3540 0 0 0
2017/11/29 17:29:00 BASE 10.08 309 11.01 312 0.3 94 -0.7 235 594 978.0 NA 0.0000 9999 3770 0 0 0
2017/11/29 17:30:00 BASE 9.66 308 11.01 312 0.3 93 -0.7 240 604 978.0 NA 0.0000 9999 3810 0 0 0
2017/11/29 17:31:00 BASE 9.38 309 11.01 312 0.3 93 -0.7 244 613 978.1 NA 0.0000 9999 3770 0 0 0
2017/11/29 17:32:00 BASE 9.45 309 11.01 312 0.3 93 -0.7 246 618 978.1 NA 0.0000 9999 3740 0 0 0
2017/11/29 17:33:00 BASE 10.18 309 11.78 309 0.3 93 -0.7 247 619 978.0 NA 0.0000 9999 3840 0 0 0
2017/11/29 17:34:00 BASE 10.67 309 11.78 309 0.3 93 -0.7 247 620 978.1 NA 0.0000 9999 3900 0 0 0
2017/11/29 17:35:00 BASE 10.06 309 11.78 309 0.3 93 -0.7 250 626 978.2 NA 0.0000 9999 3870 0 0 0
2017/11/29 17:36:00 BASE 10.10 308 11.78 309 0.3 93 -0.7 256 640 978.1 NA 0.0000 9999 3970 0 0 0
2017/11/29 17:37:00 BASE 10.60 308 11.78 309 0.3 93 -0.7 263 654 978.1 NA 0.0000 9999 4130 0 0 0
2017/11/29 17:38:00 BASE 10.81 308 11.88 302 0.3 93 -0.7 267 661 978.1 NA 0.0000 9999 4100 0 0 0
2017/11/29 17:39:00 BASE 10.69 308 11.88 302 0.3 93 -0.7 267 662 978.2 NA 0.0000 9999 4200 0 0 0
2017/11/29 17:40:00 BASE 10.20 310 11.88 302 0.3 93 -0.7 263 653 978.2 NA 0.0000 9999 4200 0 0 0
2017/11/29 17:41:00 BASE 9.92 310 11.88 302 0.3 93 -0.7 255 634 978.2 NA 0.0000 9999 4170 0 0 0
2017/11/29 17:42:00 BASE 9.93 308 11.88 302 0.3 93 -0.7 245 613 978.3 NA 0.0000 9999 4100 0 0 0
2017/11/29 17:43:00 BASE 9.77 308 11.88 302 0.3 93 -0.7 237 596 978.3 NA 0.0000 9999 3900 0 0 0
2017/11/29 17:44:00 BASE 9.68 308 11.88 302 0.3 93 -0.7 236 594 978.3 NA 0.0000 9999 3840 0 0 0
2017/11/29 17:45:00 BASE 9.78 308 11.88 302 0.3 93 -0.7 239 600 978.3 NA 0.0000 9999 3900 0 0 0
2017/11/29 17:46:00 BASE 9.74 308 11.88 302 0.3 93 -0.7 240 602 978.4 NA 0.0000 9999 4000 20930 0 0
2017/11/29 17:47:00 BASE 9.55 307 11.88 302 0.3 93 -0.7 239 599 978.4 NA 0.0000 9999 3970 0 0 0
2017/11/29 17:48:00 BASE 9.74 306 11.37 307 0.3 93 -0.7 237 595 978.4 NA 0.0000 9999 4040 0 0 0
2017/11/29 17:49:00 BASE 9.84 306 11.37 307 0.3 93 -0.6 237 596 978.5 NA 0.0000 9999 3840 0 0 0
2017/11/29 17:50:00 BASE 9.61 305 11.37 307 0.3 94 -0.6 242 605 978.5 NA 0.0000 9999 3870 4300 0 0
2017/11/29 17:51:00 BASE 9.84 304 11.37 307 0.3 94 -0.6 247 616 978.4 NA 0.0000 9999 3940 0 0 0
2017/11/29 17:52:00 BASE 9.86 305 11.37 307 0.3 94 -0.6 249 619 978.5 NA 0.0000 9999 4170 0 0 0
2017/11/29 17:53:00 BASE 9.51 307 11.37 307 0.3 94 -0.6 248 619 978.5 NA 0.0000 9999 4230 0 0 0
2017/11/29 17:54:00 BASE 9.61 308 11.37 307 0.3 94 -0.6 247 617 978.5 NA 0.0000 9999 4270 0 0 0
2017/11/29 17:55:00 BASE 9.96 308 11.37 307 0.3 94 -0.6 246 615 978.5 NA 0.0000 9999 4300 0 0 0
2017/11/29 17:56:00 BASE 9.92 308 11.37 307 0.3 94 -0.6 246 615 978.6 NA 0.0000 9999 4230 0 0 0
2017/11/29 17:57:00 BASE 9.72 307 11.37 307 0.3 94 -0.6 248 619 978.6 NA 0.2540 9999 4200 0 0 0
2017/11/29 17:58:00 BASE 9.59 305 10.91 309 0.3 94 -0.6 250 623 978.6 NA 0.0000 9999 4000 0 0 0
2017/11/29 17:59:00 BASE 9.49 304 10.91 309 0.3 94 -0.6 251 626 978.7 NA 0.0000 9999 4200 0 0 0
2017/11/29 18:00:00 BASE 9.09 304 10.91 309 0.3 94 -0.6 252 627 978.7 NA 0.0000 9999 4270 0 0 0
2017/11/29 18:01:00 BASE 8.89 305 10.80 314 0.3 94 -0.6 250 623 978.7 NA 0.0000 9999 4170 0 0 0
2017/11/29 18:02:00 BASE 9.05 306 10.65 302 0.3 94 -0.6 246 615 978.8 NA 0.0000 9999 4230 0 0 0
2017/11/29 18:03:00 BASE 9.33 309 10.65 302 0.3 94 -0.6 242 606 978.8 NA 0.0000 9999 4170 0 0 0
2017/11/29 18:04:00 BASE 9.85 309 10.91 313 0.3 94 -0.5 240 602 978.8 NA 0.0000 9999 4070 0 0 0
2017/11/29 18:05:00 BASE 10.00 306 10.91 313 0.3 94 -0.5 239 599 978.8 NA 0.0000 9999 4200 0 0 0
2017/11/29 18:06:00 BASE 9.56 306 10.91 313 0.3 95 -0.5 238 597 978.8 NA 0.0000 9999 4170 0 0 0
2017/11/29 18:07:00 BASE 9.68 307 10.91 313 0.3 95 -0.4 238 596 978.8 NA 0.0000 9999 4130 0 0 0
2017/11/29 18:08:00 BASE 10.63 309 11.88 310 0.3 95 -0.4 238 596 978.8 NA 0.0000 9999 4130 0 0 0
2017/11/29 18:09:00 BASE 10.94 309 11.88 310 0.3 95 -0.4 238 595 978.8 NA 0.0000 9999 4200 0 0 0
2017/11/29 18:10:00 BASE 11.00 310 11.88 310 0.3 95 -0.4 238 595 978.8 NA 0.0000 9999 4170 0 0 0
2017/11/29 18:11:00 BASE 11.01 311 11.88 310 0.3 95 -0.4 239 597 978.9 NA 0.0000 9999 4230 0 0 0
2017/11/29 18:12:00 BASE 10.90 311 11.88 310 0.3 95 -0.4 240 599 978.9 NA 0.0000 9999 4200 0 0 0
2017/11/29 18:13:00 BASE 10.85 311 11.88 310 0.3 95 -0.4 239 596 978.9 NA 0.0000 9999 4300 0 0 0
2017/11/29 18:14:00 BASE 10.64 310 11.88 310 0.3 95 -0.4 235 589 979.0 NA 0.0000 9999 4300 0 0 0
2017/11/29 18:15:00 BASE 10.73 309 11.88 310 0.3 95 -0.4 234 586 979.1 NA 0.0000 9999 4170 0 0 0
2017/11/29 18:16:00 BASE 10.60 310 11.88 310 0.3 95 -0.4 234 586 979.1 NA 0.0000 9999 4130 0 0 0
2017/11/29 18:17:00 BASE 10.23 309 11.88 310 0.3 95 -0.4 234 585 979.2 NA 0.0000 9999 4230 0 0 0
2017/11/29 18:18:00 BASE 9.90 307 11.88 310 0.3 95 -0.4 231 580 979.2 NA 0.0000 9999 4230 0 0 0
2017/11/29 18:19:00 BASE 9.55 307 11.88 310 0.3 95 -0.4 228 573 979.2 NA 0.0000 9999 4130 0 0 0
2017/11/29 18:20:00 BASE 9.68 309 11.88 310 0.3 95 -0.4 223 563 979.2 NA 0.0000 9999 4130 0 0 0
2017/11/29 18:21:00 BASE 9.90 308 11.88 310 0.3 95 -0.4 221 559 979.3 NA 0.0000 9999 3900 0 0 0
2017/11/29 18:22:00 BASE 9.94 308 11.57 310 0.3 95 -0.3 222 561 979.2 NA 0.0000 9999 3870 0 0 0
2017/11/29 18:23:00 BASE 9.91 310 11.32 313 0.3 96 -0.3 227 570 979.3 NA 0.0000 9999 3900 0 0 0
2017/11/29 18:24:00 BASE 9.74 312 11.32 313 0.3 96 -0.3 235 586 979.3 NA 0.0000 9999 3840 0 0 0
2017/11/29 18:25:00 BASE 9.74 313 11.01 310 0.3 96 -0.3 244 605 979.3 NA 0.0000 9999 3940 0 0 0
2017/11/29 18:26:00 BASE 9.91 311 11.78 313 0.3 96 -0.3 253 623 979.3 NA 0.0000 9999 4170 0 0 0
2017/11/29 18:27:00 BASE 9.88 311 11.78 313 0.3 96 -0.3 259 636 979.4 NA 0.0000 9999 4270 0 0 0
2017/11/29 18:28:00 BASE 10.00 312 11.78 313 0.3 96 -0.3 263 644 979.4 NA 0.0000 9999 4430 0 0 0
2017/11/29 18:29:00 BASE 9.80 314 11.78 313 0.3 95 -0.3 263 643 979.4 NA 0.0000 9999 4360 20870 0 0
2017/11/29 18:30:00 BASE 9.56 315 11.78 313 0.3 95 -0.4 258 634 979.4 NA 0.0000 9999 4300 0 0 0
2017/11/29 18:31:00 BASE 9.87 315 11.78 313 0.3 95 -0.4 252 621 979.4 NA 0.0000 9999 4330 0 0 0
2017/11/29 18:32:00 BASE 9.43 314 11.78 313 0.3 95 -0.4 246 607 979.6 NA 0.0000 9999 4300 0 0 0
2017/11/29 18:33:00 BASE 8.94 314 11.78 313 0.3 95 -0.3 239 592 979.6 NA 0.0000 9999 4230 0 0 0
2017/11/29 18:34:00 BASE 9.12 313 11.78 313 0.3 95 -0.3 231 576 979.6 NA 0.0000 9999 4270 0 0 0
2017/11/29 18:35:00 BASE 8.93 312 11.78 313 0.3 96 -0.3 226 564 979.7 NA 0.0000 9999 4300 0 0 0
2017/11/29 18:36:00 BASE 8.80 312 11.06 316 0.4 96 -0.2 226 565 979.7 NA 0.0000 9999 4230 0 0 0
2017/11/29 18:37:00 BASE 9.03 313 11.06 316 0.4 96 -0.2 229 572 979.7 NA 0.0000 9999 4130 0 0 0
2017/11/29 18:38:00 BASE 9.38 312 10.80 312 0.4 96 -0.2 233 580 979.6 NA 0.0000 9999 4130 0 0 0
2017/11/29 18:39:00 BASE 9.87 313 11.21 308 0.4 96 -0.2 236 587 979.6 NA 0.0000 9999 4070 0 0 0
2017/11/29 18:40:00 BASE 9.75 314 11.21 308 0.4 96 -0.2 242 600 979.6 NA 0.0000 9999 4170 0 0 0
2017/11/29 18:41:00 BASE 9.11 314 11.21 308 0.4 95 -0.2 249 613 979.7 NA 0.0000 9999 4100 0 0 0
2017/11/29 18:42:00 BASE 8.80 314 11.21 308 0.4 95 -0.3 254 623 979.7 NA 0.0000 9999 4330 0 0 0
2017/11/29 18:43:00 BASE 9.24 314 11.21 308 0.4 95 -0.3 253 622 979.7 NA 0.0000 9999 4360 0 0 0
2017/11/29 18:44:00 BASE 9.63 313 11.21 308 0.5 95 -0.3 246 607 979.7 NA 0.0000 9999 4430 0 0 0
2017/11/29 18:45:00 BASE 9.58 313 11.21 308 0.5 95 -0.3 240 593 979.7 NA 0.0000 9999 4230 22280 22800 0
2017/11/29 18:46:00 BASE 9.24 312 11.21 308 0.5 94 -0.3 239 593 979.8 NA 0.0000 9999 4300 0 0 0
2017/11/29 18:47:00 BASE 8.94 309 11.21 308 0.5 94 -0.3 246 608 979.8 NA 0.0000 9999 4130 0 0 0
2017/11/29 18:48:00 BASE 9.07 307 11.21 308 0.5 94 -0.3 256 629 979.8 NA 0.0000 9999 4070 0 0 0
2017/11/29 18:49:00 BASE 9.26 306 10.65 327 0.6 94 -0.3 266 649 979.8 NA 0.0000 9999 4270 0 0 0
2017/11/29 18:50:00 BASE 9.42 309 10.65 312 0.6 93 -0.4 273 665 979.8 NA 0.0000 9999 4300 0 0 0
2017/11/29 18:51:00 BASE 9.16 313 10.65 312 0.6 93 -0.4 279 676 979.8 NA 0.0000 9999 4430 0 0 0
2017/11/29 18:52:00 BASE 8.90 312 10.65 312 0.6 92 -0.5 285 690 979.8 NA 0.0000 9999 4360 20900 0 0
2017/11/29 18:53:00 BASE 8.57 312 10.65 312 0.6 92 -0.5 294 710 979.9 NA 0.0000 9999 4400 0 0 0
2017/11/29 18:54:00 BASE 8.28 313 10.65 312 0.6 92 -0.6 307 738 979.9 NA 0.0000 9999 4300 0 0 0
2017/11/29 18:55:00 BASE 8.41 312 10.65 312 0.6 92 -0.6 331 789 979.9 NA 0.0000 9999 4360 0 0 0
2017/11/29 18:56:00 BASE 8.28 314 10.65 312 0.6 92 -0.6 370 872 979.9 NA 0.0000 9999 4430 0 0 0
2017/11/29 18:57:00 BASE 8.55 317 10.65 312 0.6 92 -0.5 428 989 979.9 NA 0.0000 9999 4330 0 0 0
2017/11/29 18:58:00 BASE 8.83 320 10.65 312 0.6 92 -0.5 500 1140 979.9 NA 0.0000 9999 4230 0 0 0
2017/11/29 18:59:00 BASE 8.73 320 10.65 312 0.6 93 -0.4 483 1096 979.9 NA 0.0000 9999 4400 0 0 0
2017/11/29 19:00:00 BASE 8.48 318 9.77 309 0.6 93 -0.4 441 999 979.9 NA 0.0000 9999 4560 0 0 0
2017/11/29 19:01:00 BASE 8.69 316 9.77 309 0.6 94 -0.3 402 918 979.9 NA 0.0000 9999 4690 0 0 0
2017/11/29 19:02:00 BASE 9.21 313 10.39 312 0.6 94 -0.3 381 876 980.0 NA 0.0000 9999 4920 0 0 0
2017/11/29 19:03:00 BASE 8.81 314 10.39 312 0.6 94 -0.2 365 841 980.0 NA 0.0000 9999 4760 0 0 0
2017/11/29 19:04:00 BASE 8.37 315 10.39 312 0.6 94 -0.2 356 824 980.0 NA 0.0000 9999 4950 0 0 0
2017/11/29 19:05:00 BASE 8.52 315 10.39 312 0.6 94 -0.2 352 814 980.0 NA 0.0000 9999 5020 0 0 0
2017/11/29 19:06:00 BASE 8.98 314 10.65 314 0.6 94 -0.2 349 809 980.0 NA 0.0000 9999 4950 0 0 0
2017/11/29 19:07:00 BASE 9.08 315 10.65 314 0.6 94 -0.2 346 803 980.1 NA 0.0000 9999 4920 0 0 0
2017/11/29 19:08:00 BASE 8.77 318 10.65 314 0.6 94 -0.2 344 801 980.1 NA 0.0000 9999 4890 0 0 0
2017/11/29 19:09:00 BASE 9.04 319 10.65 314 0.6 94 -0.3 347 807 980.1 NA 0.0000 9999 4860 0 0 0
2017/11/29 19:10:01 BASE 8.99 318 10.65 314 0.6 94 -0.2 353 819 980.2 NA 0.0000 9999 4890 0 0 0
2017/11/29 19:11:00 BASE 8.74 318 10.65 314 0.6 94 -0.2 350 814 980.2 NA 0.0000 9999 4760 0 0 0
2017/11/29 19:12:00 BASE 8.51 318 10.65 314 0.6 95 -0.2 340 791 980.3 NA 0.0000 9999 4860 0 0 0
2017/11/29 19:13:00 BASE 8.65 314 10.65 314 0.6 95 -0.2 328 768 980.2 NA 0.0000 9999 4890 0 0 0
2017/11/29 19:14:00 BASE 8.48 317 10.65 314 0.6 95 -0.1 324 761 980.3 NA 0.0000 9999 4760 0 0 0
2017/11/29 19:15:00 BASE 8.22 319 10.65 314 0.6 95 -0.1 323 757 980.3 NA 0.0000 9999 4690 0 0 0
2017/11/29 19:16:00 BASE 8.53 318 9.98 326 0.6 95 -0.1 317 745 980.4 NA 0.0000 9999 4890 0 0 0
2017/11/29 19:17:00 BASE 8.28 316 9.98 326 0.6 95 -0.1 315 743 980.4 NA 0.0000 9999 4820 0 0 0
2017/11/29 19:18:00 BASE 8.30 316 10.75 312 0.6 96 -0.0 316 744 980.4 NA 0.0000 9999 4790 0 0 0
2017/11/29 19:19:00 BASE 8.44 317 10.75 312 0.6 96 -0.0 318 749 980.4 NA 0.0000 9999 4760 0 0 0
2017/11/29 19:20:00 BASE 8.45 318 10.75 312 0.6 96 -0.0 320 754 980.4 NA 0.0000 9999 4790 0 0 0
2017/11/29 19:21:00 BASE 8.95 317 10.75 312 0.6 96 -0.0 322 759 980.4 NA 0.0000 9999 4760 0 0 0
2017/11/29 19:22:00 BASE 9.75 315 10.91 313 0.6 95 -0.1 328 771 980.3 NA 0.0000 9999 4820 0 0 0
2017/11/29 19:23:00 BASE 9.66 316 10.91 313 0.6 95 -0.1 339 793 980.4 NA 0.0000 9999 4890 0 0 0
2017/11/29 19:24:00 BASE 9.67 315 11.06 311 0.6 95 -0.1 356 829 980.3 NA 0.0000 9999 4760 0 0 0
2017/11/29 19:25:00 BASE 10.07 312 11.06 311 0.6 95 -0.1 366 849 980.4 NA 0.0000 9999 4790 0 0 0
2017/11/29 19:26:00 BASE 9.90 313 11.06 311 0.7 94 -0.1 365 845 980.4 NA 0.0000 9999 4720 5090 0 0
2017/11/29 19:27:00 BASE 10.21 314 11.27 316 0.7 94 -0.2 366 847 980.4 NA 0.0000 9999 4950 0 0 0
2017/11/29 19:28:00 BASE 10.10 315 11.27 316 0.7 94 -0.2 385 888 980.4 NA 0.2540 9999 4990 0 0 0
2017/11/29 19:29:00 BASE 9.62 316 11.27 316 0.7 94 -0.2 414 948 980.4 NA 0.0000 9999 5020 0 0 0
2017/11/29 19:30:00 BASE 9.02 316 11.27 316 0.7 94 -0.2 440 998 980.5 NA 0.0000 9999 4950 0 0 0
2017/11/29 19:31:00 BASE 8.57 318 11.27 316 0.7 94 -0.2 464 1049 980.5 NA 0.0000 9999 4990 0 0 0
2017/11/29 19:32:00 BASE 8.25 319 11.27 316 0.7 94 -0.1 483 1087 980.5 NA 0.0000 9999 4890 0 0 0
2017/11/29 19:33:00 BASE 7.88 319 11.27 316 0.7 94 -0.1 493 1104 980.6 NA 0.0000 9999 5050 0 0 0
2017/11/29 19:34:00 BASE 8.03 319 11.27 316 0.7 95 -0.1 471 1050 980.6 NA 0.0000 9999 5090 0 0 0
2017/11/29 19:35:00 BASE 8.04 318 11.27 316 0.7 95 0.0 554 1225 980.6 NA 0.0000 9999 5050 0 0 0
2017/11/29 19:36:00 BASE 8.00 319 11.27 316 0.7 95 0.1 461 1032 980.6 NA 0.0000 9999 5120 0 0 0
2017/11/29 19:37:00 BASE 8.14 322 10.80 315 0.7 96 0.1 487 1082 980.6 NA 0.0000 9999 5090 20280 0 0
2017/11/29 19:38:00 BASE 8.37 322 10.24 315 0.7 96 0.1 481 1072 980.6 NA 0.0000 9999 5120 0 0 0
2017/11/29 19:39:00 BASE 8.24 321 9.67 322 0.7 96 0.2 467 1038 980.7 NA 0.0000 9999 5050 0 0 0
2017/11/29 19:40:00 BASE 7.83 321 9.67 322 0.7 96 0.2 465 1034 980.7 NA 0.0000 9999 5050 0 0 0
2017/11/29 19:41:00 BASE 7.86 320 9.67 322 0.7 96 0.1 460 1027 980.7 NA 0.0000 9999 5050 0 0 0
2017/11/29 19:42:00 BASE 8.20 320 9.67 322 0.7 96 0.1 444 990 980.6 NA 0.0000 9999 5090 0 0 0
2017/11/29 19:43:00 BASE 8.57 319 9.67 322 0.7 96 0.2 444 993 980.6 NA 0.0000 9999 5090 0 0 0
2017/11/29 19:44:00 BASE 8.76 318 9.67 322 0.8 96 0.2 440 987 980.6 NA 0.0000 9999 5020 20540 0 0
2017/11/29 19:45:01 BASE 8.66 319 9.67 322 0.8 96 0.2 455 1025 980.7 NA 0.0000 9999 5090 0 0 0
2017/11/29 19:46:00 BASE 8.71 320 9.67 322 0.8 96 0.2 428 961 980.7 NA 0.0000 9999 5020 0 0 0
2017/11/29 19:47:00 BASE 8.62 321 9.67 322 0.8 95 0.2 454 1022 980.8 NA 0.0000 9999 5020 22970 0 0
2017/11/29 19:48:00 BASE 8.30 322 9.62 316 0.8 95 0.1 424 951 980.7 NA 0.0000 9999 5050 0 0 0
2017/11/29 19:49:00 BASE 7.93 320 9.62 316 0.8 95 0.1 425 955 980.7 NA 0.0000 9999 5020 18240 0 0
2017/11/29 19:50:00 BASE 7.53 320 9.62 316 0.8 95 0.1 446 1004 980.8 NA 0.0000 9999 5090 0 0 0
2017/11/29 19:51:00 BASE 7.22 322 9.62 316 0.8 95 0.1 475 1064 980.8 NA 0.0000 9999 5090 0 0 0
2017/11/29 19:52:00 BASE 7.08 321 9.62 316 0.9 95 0.1 447 1002 980.8 NA 0.0000 9999 5020 0 0 0
2017/11/29 19:53:00 BASE 7.11 321 9.62 316 0.9 95 0.2 438 985 980.8 NA 0.0000 9999 5020 0 0 0
2017/11/29 19:54:00 BASE 6.96 322 9.57 325 0.9 95 0.2 423 949 980.9 NA 0.0000 9999 5020 0 0 0
2017/11/29 19:55:00 BASE 6.88 324 9.57 325 0.9 95 0.2 424 951 980.9 NA 0.0000 9999 5090 0 0 0
2017/11/29 19:56:00 BASE 6.96 325 9.11 321 0.9 95 0.2 423 949 980.9 NA 0.0000 9999 5090 0 0 0
2017/11/29 19:57:00 BASE 6.55 326 8.80 326 0.9 95 0.2 416 937 980.9 NA 0.0000 9999 5020 0 0 0
2017/11/29 19:58:00 BASE 6.21 326 8.28 317 0.9 95 0.2 427 961 981.0 NA 0.0000 9999 5050 0 0 0
2017/11/29 19:59:00 BASE 6.42 326 8.18 325 0.9 95 0.2 486 1089 980.9 NA 0.0000 9999 5020 0 0 0
2017/11/29 20:00:00 BASE 6.58 330 8.18 325 0.9 95 0.2 691 1496 981.0 NA 0.0000 9999 5020 0 0 0
2017/11/29 20:01:00 BASE 6.66 329 8.18 325 0.9 95 0.2 685 1471 981.0 NA 0.0000 9999 4990 0 0 0
2017/11/29 20:02:00 BASE 6.32 327 8.18 325 0.9 95 0.2 654 1405 981.0 NA 0.2540 9999 4990 0 0 0
2017/11/29 20:03:00 BASE 5.91 331 7.46 324 1.0 94 0.2 664 1416 981.0 NA 0.0000 9999 4990 0 0 0
2017/11/29 20:04:00 BASE 5.50 336 7.46 324 1.1 94 0.2 748 1514 981.0 NA 0.0000 9999 5050 0 0 0
2017/11/29 20:05:00 BASE 5.57 338 7.46 324 1.1 94 0.2 508 1113 981.0 NA 0.0000 9999 5020 0 0 0
2017/11/29 20:06:00 BASE 6.16 336 7.31 321 1.2 93 0.2 462 1023 981.0 NA 0.0000 9999 5020 0 0 0
2017/11/29 20:07:00 BASE 6.33 334 7.31 321 1.2 93 0.1 476 1047 981.0 NA 0.0000 9999 5020 0 0 0
2017/11/29 20:08:00 BASE 6.40 338 7.31 321 1.2 92 0.1 472 1044 981.0 NA 0.0000 9999 4990 0 0 0
2017/11/29 20:09:00 BASE 6.32 336 7.31 321 1.2 92 0.1 416 933 981.0 NA 0.0000 9999 4990 0 0 0
2017/11/29 20:10:00 BASE 6.11 330 7.31 321 1.3 91 0.0 474 1051 981.0 NA 0.0000 9999 5020 0 0 0
2017/11/29 20:11:00 BASE 6.16 332 7.25 342 1.3 91 -0.0 425 955 981.0 NA 0.0000 9999 4950 0 0 0
2017/11/29 20:12:00 BASE 6.30 333 7.25 342 1.3 90 -0.1 654 1390 981.1 NA 0.0000 9999 5020 0 0 0
2017/11/29 20:13:00 BASE 6.00 332 7.25 342 1.3 90 -0.2 371 845 981.2 NA 0.0000 9999 5020 0 0 0
2017/11/29 20:14:00 BASE 6.20 331 7.31 330 1.3 89 -0.2 357 816 981.1 NA 0.0000 9999 5020 0 0 0
2017/11/29 20:15:00 BASE 6.76 331 7.36 324 1.4 89 -0.3 369 846 981.1 NA 0.0000 9999 5050 0 0 0
2017/11/29 20:16:00 BASE 6.94 331 7.36 328 1.4 88 -0.3 420 945 981.1 NA 0.0000 9999 4920 0 0 0
2017/11/29 20:17:00 BASE 7.07 329 7.72 332 1.4 88 -0.4 442 988 981.2 NA 0.0000 9999 4990 0 0 0
2017/11/29 20:18:00 BASE 6.99 329 7.72 332 1.4 88 -0.4 531 1163 981.2 NA 0.0000 9999 4890 0 0 0
2017/11/29 20:19:00 BASE 6.79 329 7.72 332 1.4 87 -0.4 424 953 981.2 NA 0.0000 9999 4950 0 0 0
2017/11/29 20:20:00 BASE 6.77 329 7.72 332 1.4 87 -0.4 314 726 981.2 NA 0.0000 9999 4890 0 0 0
2017/11/29 20:21:00 BASE 6.60 336 7.72 332 1.4 87 -0.4 289 673 981.2 NA 0.0000 9999 4890 23000 0 0
2017/11/29 20:22:00 BASE 6.35 339 7.72 332 1.4 87 -0.4 284 664 981.2 NA 0.0000 9999 4860 0 0 0
2017/11/29 20:23:00 BASE 6.53 338 7.72 332 1.4 88 -0.4 290 677 981.2 NA 0.0000 9999 4950 0 0 0
2017/11/29 20:24:00 BASE 6.77 336 7.72 332 1.4 88 -0.4 318 740 981.2 NA 0.0000 9999 5020 0 0 0
2017/11/29 20:25:00 BASE 6.62 336 7.72 332 1.4 88 -0.4 375 855 981.2 NA 0.0000 9999 4920 0 0 0
2017/11/29 20:26:00 BASE 6.52 339 7.72 332 1.4 88 -0.4 445 990 981.2 NA 0.0000 9999 4920 0 0 0
2017/11/29 20:27:00 BASE 6.67 341 7.67 320 1.4 88 -0.4 484 1060 981.1 NA 0.0000 9999 4920 0 0 0
2017/11/29 20:28:00 BASE 6.76 342 7.61 342 1.4 89 -0.3 402 903 981.1 NA 0.0000 9999 4890 0 0 0
2017/11/29 20:29:00 BASE 6.89 342 7.61 342 1.4 89 -0.3 484 1056 981.1 NA 0.0000 9999 4820 0 0 0
2017/11/29 20:30:00 BASE 7.00 344 7.67 342 1.4 89 -0.2 550 1176 981.1 NA 0.0000 9999 4890 0 0 0
2017/11/29 20:31:00 BASE 6.92 344 7.67 342 1.4 89 -0.2 533 1145 981.2 NA 0.0000 9999 4920 0 0 0
2017/11/29 20:32:00 BASE 6.88 341 7.67 342 1.4 89 -0.2 539 1158 981.1 NA 0.0000 9999 4860 0 0 0
2017/11/29 20:33:00 BASE 6.75 339 7.67 342 1.5 89 -0.2 523 1127 981.1 NA 0.0000 9999 4920 0 0 0
2017/11/29 20:34:00 BASE 6.42 336 7.67 342 1.5 89 -0.2 513 1106 981.2 NA 0.0000 9999 0 0 0 0
2017/11/29 20:35:00 BASE 6.26 335 7.67 342 1.5 88 -0.2 514 1109 981.2 NA 0.0000 9999 0 0 0 0
2017/11/29 20:36:00 BASE 6.16 335 7.67 342 1.5 88 -0.3 528 1135 981.2 NA 0.0000 9999 0 0 0 0
2017/11/29 20:37:00 BASE 6.27 335 7.67 342 1.5 87 -0.3 523 1124 981.2 NA 0.0000 9999 0 0 0 0
2017/11/29 20:38:00 BASE 6.33 337 7.67 342 1.6 87 -0.3 517 1113 981.2 NA 0.0000 9999 22180 0 0 0
2017/11/29 20:39:00 BASE 6.28 335 7.67 342 1.6 87 -0.3 515 1108 981.2 NA 0.0000 9999 0 0 0 0
2017/11/29 20:40:00 BASE 6.45 333 7.25 329 1.6 87 -0.3 512 1102 981.2 NA 0.0000 9999 0 0 0 0
2017/11/29 20:41:00 BASE 6.50 332 7.25 329 1.6 87 -0.3 510 1097 981.2 NA 0.0000 9999 0 0 0 0
2017/11/29 20:42:00 BASE 6.57 331 7.31 331 1.6 87 -0.3 504 1085 981.2 NA 0.0000 9999 0 0 0 0
2017/11/29 20:43:00 BASE 6.74 332 7.46 328 1.6 87 -0.2 505 1086 981.2 NA 0.0000 9999 0 0 0 0
2017/11/29 20:44:00 BASE 6.58 332 7.46 328 1.6 88 -0.2 503 1083 981.2 NA 0.0000 9999 0 0 0 0
2017/11/29 20:45:00 BASE 6.76 333 7.92 339 1.6 88 -0.2 499 1073 981.2 NA 0.0000 9999 0 0 0 0
2017/11/29 20:46:00 BASE 7.45 334 8.28 336 1.6 88 -0.2 499 1073 981.2 NA 0.0000 9999 0 0 0 0
2017/11/29 20:47:00 BASE 7.63 333 8.28 336 1.6 88 -0.3 484 1044 981.3 NA 0.0000 9999 0 0 0 0
2017/11/29 20:48:00 BASE 7.31 330 8.28 336 1.6 87 -0.3 481 1037 981.3 NA 0.0000 9999 0 0 0 0
2017/11/29 20:49:00 BASE 6.89 329 8.28 336 1.6 87 -0.3 467 1011 981.3 NA 0.0000 9999 0 0 0 0
2017/11/29 20:50:00 BASE 6.15 331 8.28 336 1.6 87 -0.3 478 1029 981.4 NA 0.0000 9999 0 0 0 0
2017/11/29 20:51:00 BASE 5.72 332 8.28 336 1.6 88 -0.2 476 1025 981.4 NA 0.0000 9999 0 0 0 0
2017/11/29 20:52:00 BASE 6.39 335 8.28 336 1.6 88 -0.1 476 1026 981.3 NA 0.0000 9999 0 0 0 0
2017/11/29 20:53:00 BASE 6.95 339 8.28 336 1.6 88 -0.1 459 992 981.3 NA 0.0000 9999 0 0 0 0
2017/11/29 20:54:00 BASE 7.02 340 8.59 336 1.6 88 -0.1 446 967 981.3 NA 0.0000 9999 0 0 0 0
2017/11/29 20:55:00 BASE 7.63 341 8.59 336 1.6 88 -0.1 459 990 981.2 NA 0.0000 9999 0 0 0 0
2017/11/29 20:56:00 BASE 8.15 344 8.75 350 1.6 88 -0.1 452 978 981.2 NA 0.0000 9999 0 0 0 0
2017/11/29 20:57:00 BASE 7.93 344 8.75 350 1.6 88 -0.1 470 1013 981.2 NA 0.0000 9999 0 0 0 0
2017/11/29 20:58:00 BASE 8.20 346 9.21 351 1.6 88 -0.1 467 1006 981.2 NA 0.0000 9999 0 0 0 0
2017/11/29 20:59:00 BASE 8.44 349 9.21 351 1.6 89 -0.1 463 999 981.2 NA 0.0000 9999 0 0 0 0
2017/11/29 21:00:00 BASE 8.18 348 9.21 351 1.6 89 -0.1 466 1004 981.2 NA 0.0000 9999 0 0 0 0
2017/11/29 21:01:00 BASE 7.97 348 9.21 351 1.6 89 -0.1 442 960 981.2 NA 0.0000 9999 0 0 0 0
2017/11/29 21:02:00 BASE 8.02 350 9.21 351 1.6 88 -0.1 456 985 981.2 NA 0.0000 9999 0 0 0 0
2017/11/29 21:03:00 BASE 8.35 349 9.21 351 1.6 88 -0.1 463 998 981.3 NA 0.0000 9999 0 0 0 0
2017/11/29 21:04:00 BASE 8.36 349 9.21 351 1.6 88 -0.2 466 1001 981.2 NA 0.0000 9999 0 0 0 0
2017/11/29 21:05:00 BASE 8.11 348 9.21 351 1.6 88 -0.2 470 1009 981.3 NA 0.0000 9999 0 0 0 0
2017/11/29 21:06:00 BASE 7.55 346 9.21 351 1.7 87 -0.2 461 990 981.3 NA 0.0000 9999 0 0 0 0
2017/11/29 21:07:00 BASE 7.65 348 9.21 351 1.7 87 -0.2 441 953 981.3 NA 0.0000 9999 0 0 0 0
2017/11/29 21:08:00 BASE 8.27 348 9.11 350 1.7 87 -0.3 443 955 981.3 NA 0.0000 9999 0 0 0 0
2017/11/29 21:09:00 BASE 8.12 349 9.11 350 1.7 86 -0.4 437 942 981.2 NA 0.0000 9999 0 0 0 0
2017/11/29 21:10:00 BASE 7.86 351 9.11 350 1.7 85 -0.5 436 938 981.3 NA 0.0000 9999 0 0 0 0
2017/11/29 21:11:00 BASE 7.88 351 9.11 350 1.7 85 -0.5 429 926 981.3 NA 0.0000 9999 0 0 0 0
2017/11/29 21:12:00 BASE 8.07 351 9.11 350 1.8 84 -0.7 358 791 981.3 NA 0.0000 9999 0 0 0 0
2017/11/29 21:13:00 BASE 8.23 347 9.00 347 1.8 83 -0.7 340 755 981.3 NA 0.0000 9999 0 0 0 0
2017/11/29 21:14:00 BASE 8.26 348 8.69 350 1.8 83 -0.8 418 900 981.3 NA 0.0000 9999 0 0 0 0
2017/11/29 21:15:00 BASE 8.13 349 8.69 350 1.9 82 -0.9 417 897 981.3 NA 0.0000 9999 0 0 0 0
2017/11/29 21:16:00 BASE 7.98 347 8.69 350 1.9 81 -1.0 411 886 981.2 NA 0.0000 9999 0 0 0 0
2017/11/29 21:17:00 BASE 7.81 347 8.69 350 1.9 81 -1.1 407 878 981.2 NA 0.0000 9999 0 0 0 0
2017/11/29 21:18:00 BASE 7.68 351 8.64 349 1.9 80 -1.2 411 885 981.3 NA 0.0000 9999 0 0 0 0
2017/11/29 21:19:00 BASE 8.10 354 8.75 354 1.9 80 -1.2 391 846 981.3 NA 0.0000 9999 0 0 0 0
2017/11/29 21:20:00 BASE 8.51 349 9.11 350 1.9 79 -1.3 376 816 981.3 NA 0.0000 9999 0 0 0 0
2017/11/29 21:21:00 BASE 8.46 347 9.11 350 1.9 78 -1.5 344 756 981.3 NA 0.0000 9999 22340 0 0 0
2017/11/29 21:22:00 BASE 8.49 347 9.11 350 1.9 77 -1.6 323 713 981.3 NA 0.0000 9999 0 0 0 0
2017/11/29 21:23:00 BASE 8.40 352 9.11 350 1.9 76 -1.8 308 682 981.3 NA 0.0000 9999 0 0 0 0
2017/11/29 21:24:00 BASE 8.20 353 9.11 350 1.9 75 -2.0 302 670 981.3 NA 0.0000 9999 0 0 0 0
2017/11/29 21:25:00 BASE 8.45 352 9.11 350 1.9 75 -2.1 311 685 981.3 NA 0.0000 9999 0 0 0 0
2017/11/29 21:26:00 BASE 8.62 353 9.11 350 1.9 74 -2.1 289 642 981.3 NA 0.0000 9999 0 0 0 0
2017/11/29 21:27:00 BASE 8.50 355 9.11 350 1.9 74 -2.3 270 605 981.3 NA 0.0000 9999 0 0 0 0
2017/11/29 21:28:00 BASE 8.51 348 9.11 350 1.9 74 -2.3 291 643 981.2 NA 0.0000 9999 0 0 0 0
2017/11/29 21:29:00 BASE 8.41 343 9.11 350 1.9 74 -2.3 247 558 981.2 NA 0.0000 9999 0 0 0 0
2017/11/29 21:30:00 BASE 8.16 354 9.05 216 1.9 74 -2.3 214 493 981.2 NA 0.0000 9999 0 0 0 0
2017/11/29 21:31:00 BASE 7.99 359 9.05 216 1.8 74 -2.3 217 498 981.2 NA 0.0000 9999 0 0 0 0
2017/11/29 21:32:00 BASE 8.29 0 9.21 5 1.8 74 -2.3 204 472 981.2 NA 0.0000 9999 0 0 0 0
2017/11/29 21:33:00 BASE 8.72 4 9.21 5 1.9 74 -2.3 204 471 981.2 NA 0.0000 9999 0 0 0 0
2017/11/29 21:34:00 BASE 8.45 5 9.21 5 1.9 74 -2.3 205 472 981.2 NA 0.0000 9999 0 0 0 0
2017/11/29 21:35:00 BASE 8.12 6 9.21 5 1.9 74 -2.3 199 461 981.2 NA 0.0000 9999 0 0 0 0
2017/11/29 21:36:00 BASE 8.13 6 9.21 5 1.9 73 -2.4 208 478 981.2 NA 0.0000 9999 0 0 0 0
2017/11/29 21:37:00 BASE 7.70 9 9.21 5 1.9 73 -2.4 207 475 981.2 NA 0.0000 9999 0 0 0 0
2017/11/29 21:38:00 BASE 7.50 8 9.21 5 1.9 73 -2.5 197 455 981.2 NA 0.0000 9999 0 0 0 0
2017/11/29 21:39:00 BASE 8.07 7 9.21 5 1.9 73 -2.5 195 449 981.1 NA 0.0000 9999 0 0 0 0
2017/11/29 21:40:00 BASE 8.13 10 9.21 5 1.9 72 -2.6 195 449 981.2 NA 0.0000 9999 0 0 0 0
2017/11/29 21:41:00 BASE 8.05 11 9.21 5 1.9 72 -2.7 202 462 981.2 NA 0.0000 9999 0 0 0 0
2017/11/29 21:42:00 BASE 8.13 11 9.16 14 1.9 71 -2.7 218 493 981.1 NA 0.0000 9999 14700 0 0 0
2017/11/29 21:43:00 BASE 8.04 12 9.16 14 1.9 71 -2.9 229 513 981.1 NA 0.0000 9999 0 0 0 0
2017/11/29 21:44:00 BASE 8.22 14 9.16 14 1.9 70 -3.0 231 517 981.1 NA 0.0000 9999 0 0 0 0
2017/11/29 21:45:00 BASE 8.10 13 9.16 14 1.9 69 -3.1 241 536 981.1 NA 0.0000 9999 0 0 0 0
2017/11/29 21:46:00 BASE 7.87 12 9.16 14 1.9 69 -3.1 250 554 981.1 NA 0.0000 9999 0 0 0 0
2017/11/29 21:47:00 BASE 7.78 14 9.16 14 1.9 69 -3.1 253 559 981.1 NA 0.0000 9999 0 0 0 0
2017/11/29 21:48:00 BASE 7.56 18 9.16 14 1.9 69 -3.1 269 589 981.1 NA 0.0000 9999 11650 0 0 0
2017/11/29 21:49:00 BASE 7.49 18 9.16 14 1.9 70 -3.0 281 612 981.1 NA 0.0000 9999 14210 0 0 0
2017/11/29 21:50:00 BASE 7.68 18 9.16 14 1.9 70 -3.0 269 589 981.1 NA 0.0000 9999 0 0 0 0
2017/11/29 21:51:00 BASE 8.24 18 10.08 9 1.9 70 -3.0 245 542 981.1 NA 0.0000 9999 0 0 0 0
2017/11/29 21:52:00 BASE 8.21 19 10.08 9 1.9 70 -3.0 229 510 981.2 NA 0.0000 9999 0 0 0 0
2017/11/29 21:53:00 BASE 7.87 19 10.08 9 1.9 70 -3.0 214 482 981.1 NA 0.0000 9999 15190 0 0 0
2017/11/29 21:54:00 BASE 8.01 15 10.08 9 1.9 70 -3.1 210 473 981.2 NA 0.0000 9999 0 0 0 0
2017/11/29 21:55:00 BASE 8.33 15 10.08 9 1.9 70 -3.1 206 465 981.1 NA 0.0000 9999 0 0 0 0
2017/11/29 21:56:00 BASE 8.34 15 10.08 9 1.9 69 -3.1 204 461 981.1 NA 0.0000 9999 0 0 0 0
2017/11/29 21:57:00 BASE 7.67 17 10.08 9 1.9 69 -3.1 208 468 981.1 NA 0.0000 9999 0 0 0 0
2017/11/29 21:58:00 BASE 7.87 20 10.08 9 1.9 69 -3.1 206 465 981.1 NA 0.0000 9999 0 0 0 0
2017/11/29 21:59:00 BASE 8.16 22 10.08 9 1.9 69 -3.2 213 478 981.1 NA 0.0000 9999 0 0 0 0
2017/11/29 22:00:00 BASE 7.79 22 10.08 9 1.9 69 -3.3 228 505 981.1 NA 0.0000 9999 12210 0 0 0
2017/11/29 22:01:00 BASE 8.24 22 10.24 24 1.9 68 -3.3 226 501 981.0 NA 0.0000 9999 11980 0 0 0
2017/11/29 22:02:00 BASE 8.78 23 10.24 24 1.9 68 -3.4 207 464 981.0 NA 0.0000 9999 0 0 0 0
2017/11/29 22:05:18 BASE M M M M 1.9 68 -3.4 M M M NA 0.0000 M M M M M
2017/11/29 22:06:01 BASE M M M M 1.9 68 -3.5 183 416 981.0 NA 0.0000 9999 0 0 0 0
2017/11/29 22:07:01 BASE 10.12 32 M M 1.9 67 -3.6 181 412 981.0 NA 0.0000 9999 13220 0 0 0
2017/11/29 22:08:01 BASE 10.34 31 M M 2.0 66 -3.7 184 417 981.0 NA 0.0000 9999 13120 0 0 0
2017/11/29 22:09:01 BASE 9.96 32 M M 2.0 65 -3.9 200 448 981.0 NA 0.0000 9999 13680 0 0 0
2017/11/29 22:10:00 BASE 9.94 31 M M 2.0 65 -3.9 212 469 981.0 NA 0.0000 9999 12800 0 0 0
2017/11/29 22:11:00 BASE 10.07 30 M M 2.1 64 -4.0 212 468 981.1 NA 0.0000 9999 9090 0 0 0
2017/11/29 22:12:00 BASE 9.93 30 M M 2.1 64 -4.1 210 465 981.1 NA 0.0000 9999 9740 0 0 0
2017/11/29 22:13:00 BASE 9.74 30 11.21 31 2.1 63 -4.1 204 453 981.1 NA 0.0000 9999 0 0 0 0
2017/11/29 22:14:00 BASE 9.53 30 11.21 31 2.2 63 -4.2 187 420 981.1 NA 0.0000 9999 12140 0 0 0
2017/11/29 22:15:00 BASE 9.40 31 11.21 31 2.2 62 -4.3 169 386 981.1 NA 0.0000 9999 12470 0 0 0
2017/11/29 22:16:00 BASE 8.74 32 11.21 31 2.2 62 -4.3 167 381 981.1 NA 0.0000 9999 0 0 0 0
2017/11/29 22:17:00 BASE 8.72 35 11.21 31 2.2 62 -4.3 164 374 981.1 NA 0.0000 9999 0 0 0 0
2017/11/29 22:18:00 BASE 9.26 37 10.85 32 2.2 62 -4.3 160 366 981.0 NA 0.0000 9999 10960 0 0 0
2017/11/29 22:19:00 BASE 9.38 37 10.85 32 2.2 62 -4.3 169 381 981.0 NA 0.0000 9999 0 0 0 0
2017/11/29 22:20:00 BASE 9.14 38 10.75 30 2.2 62 -4.3 167 378 981.0 NA 0.0000 9999 9780 0 0 0
2017/11/29 22:21:00 BASE 9.24 38 10.75 30 2.2 62 -4.3 165 373 981.0 NA 0.0000 9999 9810 0 0 0
2017/11/29 22:22:00 BASE 9.61 38 10.24 40 2.2 62 -4.4 161 365 981.0 NA 0.0000 9999 9910 0 0 0
2017/11/29 22:23:00 BASE 9.28 36 10.24 40 2.2 62 -4.4 156 354 981.0 NA 0.0000 9999 0 0 0 0
2017/11/29 22:24:00 BASE 8.96 36 10.24 40 2.2 62 -4.4 148 338 981.1 NA 0.0000 9999 8960 0 0 0
2017/11/29 22:25:00 BASE 9.10 35 10.24 40 2.2 62 -4.4 139 322 981.1 NA 0.0000 9999 8890 0 0 0
2017/11/29 22:26:00 BASE 9.13 33 10.24 40 2.1 63 -4.3 132 309 981.2 NA 0.0000 9999 9220 0 0 0
2017/11/29 22:27:00 BASE 8.72 33 10.24 40 2.1 63 -4.2 128 300 981.2 NA 0.0000 9999 8790 0 0 0
2017/11/29 22:28:00 BASE 8.74 33 10.34 35 2.0 64 -4.1 125 293 981.2 NA 0.0000 9999 8660 0 0 0
2017/11/29 22:29:00 BASE 8.70 35 10.34 35 2.0 64 -4.1 120 282 981.2 NA 0.0000 9999 8460 0 0 0
2017/11/29 22:30:00 BASE 8.41 37 10.34 35 2.0 64 -4.0 113 267 981.1 NA 0.0000 9999 9250 0 0 0
2017/11/29 22:31:00 BASE 8.50 36 10.34 35 2.0 64 -4.1 106 253 981.2 NA 0.0000 9999 9970 0 0 0
2017/11/29 22:32:00 BASE 8.13 34 10.34 35 2.0 64 -4.1 100 240 981.2 NA 0.0000 9999 9450 0 0 0
2017/11/29 22:33:00 BASE 7.89 33 10.34 35 2.0 64 -4.1 95 230 981.2 NA 0.0000 9999 9060 0 0 0
2017/11/29 22:34:00 BASE 8.21 29 10.34 35 2.0 64 -4.0 91 221 981.2 NA 0.0000 9999 5450 0 0 0
2017/11/29 22:35:00 BASE 8.30 26 10.34 35 2.0 64 -4.1 88 214 981.2 NA 0.0000 9999 5280 0 0 0
2017/11/29 22:36:00 BASE 7.91 26 10.34 35 2.0 64 -4.1 87 211 981.3 NA 0.0000 9999 5050 0 0 0
2017/11/29 22:37:00 BASE 7.99 23 10.34 35 2.0 63 -4.2 87 210 981.3 NA 0.0000 9999 6230 0 0 0
2017/11/29 22:38:00 BASE 8.32 18 9.98 31 2.1 63 -4.3 88 211 981.2 NA 0.0000 9999 4950 0 0 0
2017/11/29 22:39:00 BASE 8.39 15 9.98 31 2.1 62 -4.5 89 213 981.3 NA 0.0000 9999 4590 0 0 0
2017/11/29 22:40:00 BASE 8.47 14 9.98 31 2.1 61 -4.6 89 214 981.3 NA 0.0000 9999 5350 21750 0 0
2017/11/29 22:41:00 BASE 8.31 16 9.98 31 2.2 61 -4.6 90 214 981.3 NA 0.0000 9999 5350 0 0 0
2017/11/29 22:42:00 BASE 8.23 19 9.98 31 2.2 60 -4.7 90 213 981.3 NA 0.0000 9999 4990 0 0 0
2017/11/29 22:43:00 BASE 8.00 18 9.98 31 2.2 60 -4.7 90 212 981.2 NA 0.0000 9999 4820 0 0 0
2017/11/29 22:44:00 BASE 7.80 13 9.88 36 2.2 60 -4.7 90 212 981.2 NA 0.0000 9999 4990 0 0 0
2017/11/29 22:45:00 BASE 8.94 13 11.57 26 2.2 60 -4.8 89 211 981.2 NA 0.0000 9999 4920 0 0 0
2017/11/29 22:46:00 BASE 9.60 16 11.57 26 2.2 60 -4.8 88 207 981.2 NA 0.0000 9999 23230 0 0 0
2017/11/29 22:47:00 BASE 8.93 14 11.57 26 2.2 59 -4.9 84 200 981.2 NA 0.0000 9999 4720 0 0 0
2017/11/29 22:48:00 BASE 9.08 14 11.57 26 2.2 59 -4.9 79 188 981.1 NA 0.0000 9999 5180 0 0 0
2017/11/29 22:49:00 BASE 9.78 11 11.78 4 2.2 59 -5.0 73 176 981.1 NA 0.0000 9999 4590 0 0 0
2017/11/29 22:50:00 BASE 10.45 7 12.04 4 2.2 59 -4.9 69 168 981.0 NA 0.0000 9999 4170 0 0 0
2017/11/29 22:51:00 BASE 10.93 7 12.40 11 2.3 59 -4.9 66 162 981.0 NA 0.0000 9999 23980 0 0 0
2017/11/29 22:52:00 BASE 11.55 11 13.58 19 2.3 59 -4.9 65 159 980.9 NA 0.0000 9999 4720 0 0 0
2017/11/29 22:53:00 BASE 12.18 14 13.58 19 2.3 59 -4.9 63 156 980.8 NA 0.0000 9999 4890 0 0 0
2017/11/29 22:54:00 BASE 12.89 10 14.82 10 2.3 59 -4.9 62 152 980.8 NA 0.0000 9999 4690 0 0 0
2017/11/29 22:55:00 BASE 12.65 4 14.82 10 2.3 59 -4.9 60 150 980.9 NA 0.0000 9999 4590 0 0 0
2017/11/29 22:56:00 BASE 10.87 6 14.82 10 2.3 59 -4.8 60 149 981.0 NA 0.0000 9999 4460 0 0 0
2017/11/29 22:57:00 BASE 11.06 11 14.82 10 2.2 60 -4.8 60 148 980.9 NA 0.0000 9999 5020 0 0 0
2017/11/29 22:58:00 BASE 12.36 10 14.82 10 2.2 60 -4.8 60 148 980.9 NA 0.0000 9999 5280 0 0 0
2017/11/29 22:59:00 BASE 11.99 8 14.82 10 2.2 60 -4.7 60 149 980.9 NA 0.0000 9999 5120 0 0 0
2017/11/29 23:00:00 BASE 11.50 7 14.82 10 2.2 61 -4.7 62 152 980.9 NA 0.0000 9999 5050 0 0 0
2017/11/29 23:01:00 BASE 11.69 11 14.82 10 2.1 61 -4.7 64 157 980.9 NA 0.0000 9999 4890 0 0 0
2017/11/29 23:02:00 BASE 12.13 15 14.82 10 2.1 61 -4.7 67 162 980.9 NA 0.0000 9999 4660 0 0 0
2017/11/29 23:03:00 BASE 12.23 14 14.82 10 2.1 61 -4.6 70 168 980.9 NA 0.0000 9999 5940 0 0 0
2017/11/29 23:04:00 BASE 11.42 12 13.94 13 2.1 61 -4.6 72 172 980.9 NA 0.0000 9999 6140 0 0 0
2017/11/29 23:05:00 BASE 11.36 13 13.94 13 2.0 62 -4.5 73 173 980.9 NA 0.0000 9999 6070 0 0 0
2017/11/29 23:06:00 BASE 12.23 14 14.35 5 2.0 62 -4.5 72 172 980.8 NA 0.0000 9999 5710 0 0 0
2017/11/29 23:07:00 BASE 12.87 11 14.97 20 2.0 63 -4.4 70 167 980.7 NA 0.0000 9999 5480 0 0 0
2017/11/29 23:08:00 BASE 13.47 7 14.97 20 1.9 63 -4.4 67 161 980.7 NA 0.0000 9999 5350 0 0 0
2017/11/29 23:09:00 BASE 12.94 0 16.20 1 1.9 64 -4.3 65 157 980.8 NA 0.0000 9999 5050 0 0 0
2017/11/29 23:10:00 BASE 12.02 6 16.20 1 1.8 64 -4.2 64 155 980.7 NA 0.0000 9999 4890 0 0 0
2017/11/29 23:11:00 BASE 12.86 16 16.20 1 1.8 65 -4.1 66 157 980.6 NA 0.0000 9999 4590 0 0 0
2017/11/29 23:12:00 BASE 14.48 15 16.20 1 1.7 66 -4.0 67 159 980.6 NA 0.0000 9999 4460 0 0 0
2017/11/29 23:13:00 BASE 13.72 14 16.20 1 1.7 66 -3.9 66 157 980.6 NA 0.0000 9999 3970 0 0 0
2017/11/29 23:14:00 BASE 13.13 12 16.20 1 1.6 67 -3.9 65 155 980.7 NA 0.0000 9999 3410 0 0 0
2017/11/29 23:15:00 BASE 14.82 14 17.34 11 1.6 67 -3.8 64 152 980.5 NA 0.0000 9999 22740 0 0 0
2017/11/29 23:16:00 BASE 15.01 13 17.34 11 1.6 67 -3.8 63 150 980.6 NA 0.0000 9999 0 0 0 4490
2017/11/29 23:17:00 BASE 13.86 9 17.34 11 1.6 68 -3.8 63 150 980.6 NA 0.0000 UP 9999 0 0 0 5320
2017/11/29 23:18:00 BASE 13.71 9 17.34 11 1.5 68 -3.8 62 149 980.6 NA 0.0000 UP 9999 0 0 0 5320
2017/11/29 23:19:00 BASE 13.74 12 17.34 11 1.5 68 -3.7 62 150 980.6 NA 0.0000 UP 9999 0 0 0 5640
2017/11/29 23:20:00 BASE 13.45 14 17.34 11 1.5 68 -3.7 63 150 980.6 NA 0.0000 UP 9999 5680 0 0 0
2017/11/29 23:21:00 BASE 13.70 14 17.34 11 1.5 69 -3.6 63 151 980.5 NA 0.0000 UP 9999 6140 0 0 0
2017/11/29 23:22:00 BASE 14.31 14 17.34 11 1.4 69 -3.5 65 154 980.5 NA 0.0000 UP 9999 5910 0 0 0
2017/11/29 23:23:00 BASE 13.90 14 17.34 11 1.4 70 -3.5 67 158 980.6 NA 0.0000 UP 9999 5710 0 0 0
2017/11/29 23:24:00 BASE 13.35 12 17.34 11 1.4 71 -3.4 68 159 980.5 NA 0.0000 UP 9999 5280 0 0 0
2017/11/29 23:25:00 BASE 14.36 12 16.87 13 1.3 71 -3.3 69 159 980.4 NA 0.0000 UP 9999 5150 0 0 0
2017/11/29 23:26:00 BASE 15.13 15 16.87 13 1.3 72 -3.1 69 160 980.4 NA 0.0000 UP 9999 5150 0 0 0
2017/11/29 23:27:00 BASE 15.35 15 16.98 14 1.3 73 -3.1 67 157 980.4 NA 0.0000 9999 4990 0 0 0
2017/11/29 23:28:00 BASE 15.35 14 16.98 14 1.3 73 -3.0 66 155 980.4 NA 0.0000 9999 4660 0 0 0
2017/11/29 23:29:00 BASE 15.23 16 16.98 14 1.2 74 -2.9 67 155 980.3 NA 0.0000 9999 4860 0 0 0
2017/11/29 23:30:00 BASE 15.28 17 18.11 21 1.2 74 -2.8 67 156 980.3 NA 0.0000 9999 5050 0 0 0
2017/11/29 23:31:00 BASE 14.53 19 18.11 21 1.2 75 -2.8 67 156 980.4 NA 0.0000 9999 5450 0 0 0
2017/11/29 23:32:00 BASE 13.98 23 18.11 21 1.2 75 -2.8 68 157 980.4 NA 0.0000 9999 6000 0 0 0
2017/11/29 23:33:00 BASE 13.65 22 18.11 21 1.2 75 -2.7 67 154 980.4 NA 0.0000 9999 6430 0 0 0
2017/11/29 23:34:00 BASE 13.27 23 18.11 21 1.3 75 -2.7 64 149 980.4 NA 0.0000 9999 6400 0 0 0
2017/11/29 23:35:00 BASE 13.73 23 18.11 21 1.3 75 -2.7 61 143 980.4 NA 0.0000 9999 4330 0 0 0
2017/11/29 23:36:00 BASE 13.81 23 18.11 21 1.3 75 -2.7 59 138 980.4 NA 0.0000 9999 5940 0 0 0
2017/11/29 23:37:00 BASE 13.45 23 18.11 21 1.3 75 -2.7 58 135 980.4 NA 0.0000 9999 6000 0 0 0
2017/11/29 23:38:00 BASE 13.75 22 18.11 21 1.3 75 -2.7 57 133 980.4 NA 0.0000 9999 6270 0 0 0
2017/11/29 23:39:00 BASE 14.21 25 18.11 21 1.3 75 -2.7 55 129 980.4 NA 0.0000 9999 6300 0 0 0
2017/11/29 23:40:00 BASE 14.02 25 16.05 17 1.3 75 -2.7 53 125 980.4 NA 0.0000 9999 6230 0 0 0
2017/11/29 23:41:00 BASE 13.33 25 16.05 17 1.3 75 -2.7 51 120 980.4 NA 0.0000 9999 6140 0 0 0
2017/11/29 23:42:00 BASE 12.99 26 16.05 17 1.3 75 -2.7 49 117 980.4 NA 0.0000 9999 6100 0 0 0
2017/11/29 23:43:00 BASE 13.93 26 16.05 17 1.3 75 -2.7 49 116 980.3 NA 0.0000 9999 6330 0 0 0
2017/11/29 23:44:00 BASE 14.80 27 16.10 28 1.3 75 -2.7 49 116 980.3 NA 0.0000 9999 6500 0 0 0
2017/11/29 23:45:00 BASE 14.76 29 16.10 28 1.3 75 -2.6 48 115 980.3 NA 0.0000 9999 3970 0 0 0
2017/11/29 23:46:00 BASE 14.83 30 16.10 28 1.3 75 -2.6 49 115 980.3 NA 0.0000 9999 4000 0 0 0
2017/11/29 23:47:00 BASE 14.63 29 16.10 28 1.4 75 -2.6 49 116 980.3 NA 0.0000 9999 6230 0 0 0
2017/11/29 23:48:00 BASE 14.24 30 16.10 28 1.4 75 -2.6 47 111 980.3 NA 0.0000 9999 4170 0 0 0
2017/11/29 23:49:00 BASE 14.21 30 16.10 28 1.4 75 -2.5 44 106 980.4 NA 0.0000 9999 4040 0 0 0
2017/11/29 23:50:00 BASE 14.11 30 16.10 28 1.4 75 -2.5 43 102 980.4 NA 0.0000 9999 4170 0 0 0
2017/11/29 23:51:00 BASE 13.15 32 16.10 28 1.4 75 -2.5 40 98 980.4 NA 0.0000 9999 4270 0 0 0
2017/11/29 23:52:00 BASE 12.85 33 16.10 28 1.5 75 -2.5 38 93 980.4 NA 0.0000 9999 4230 5740 0 0
2017/11/29 23:53:00 BASE 12.76 33 16.10 28 1.5 75 -2.4 36 88 980.4 NA 0.0000 9999 4270 0 0 0
2017/11/29 23:54:00 BASE 12.87 33 15.95 31 1.6 75 -2.4 35 86 980.4 NA 0.0000 9999 7320 0 0 0
2017/11/29 23:55:00 BASE 13.01 34 15.95 31 1.6 75 -2.4 34 84 980.4 NA 0.0000 9999 5350 0 0 0
2017/11/29 23:56:00 BASE 12.58 34 15.74 31 1.7 74 -2.4 33 81 980.4 NA 0.0000 9999 5320 0 0 0
2017/11/29 23:57:00 BASE 12.33 35 15.74 31 1.7 74 -2.4 31 78 980.5 NA 0.0000 9999 5220 5640 0 0
2017/11/29 23:58:00 BASE 12.12 35 15.74 31 1.8 74 -2.3 30 76 980.5 NA 0.0000 9999 5740 0 0 0
2017/11/29 23:59:00 BASE 11.86 34 14.97 29 1.8 74 -2.3 30 76 980.5 NA 0.0000 9999 4920 0 0 0